[[{"header":{"parameterUnit":"m.s-1","parameterCategory":1,"la1":30.6,"la2":29.2853,"lo1":-89.7004,"lo2":-87.6739,"dy":0.0162,"dx":0.0183,"nx":112,"ny":82,"refTime":"2023-04-03T18:00:00:Z","depth":0,"parameterNumber":2,"parameterNumberName":"U-component_of_WINDS"},"data":[0.0,0.0,0.0,0.0,0.0,0.0,0.0,0.0,0.0,0.0,0.0,0.0,0.0,0.0,0.0,0.0,0.0,0.0,0.0,0.0,0.0,0.0,0.0,0.0,0.0,0.0,0.0,0.0,0.0,0.0,0.0,0.0,0.0,0.0,0.0,0.0,0.0,0.0,0.0,0.0,0.0,0.0,0.0,0.0,0.0,0.0,0.0,0.0,0.0,0.0,0.0,0.0,0.0,0.0,0.0,0.0,0.0,0.0,0.0,0.0,0.0,0.0,0.0,0.0,0.0,0.0,0.0,0.0,0.0,0.0,0.0,0.0,0.0,0.0,0.0,0.0,0.0,0.0,0.0,0.0,0.0,0.0,0.0,0.0,0.0,0.0,0.0,0.0,0.0,0.0,-6.9853,-7.3266,-7.9617,-8.3214,-8.226,-8.2201,-7.8366,-6.9286,0.0,0.0,0.0,0.0,0.0,0.0,0.0,0.0,0.0,0.0,0.0,0.0,0.0,0.0,0.0,0.0,0.0,0.0,0.0,0.0,0.0,0.0,0.0,0.0,0.0,0.0,0.0,0.0,0.0,0.0,0.0,0.0,0.0,0.0,0.0,0.0,0.0,0.0,0.0,0.0,0.0,0.0,0.0,0.0,0.0,0.0,0.0,0.0,0.0,0.0,0.0,0.0,0.0,0.0,0.0,0.0,0.0,0.0,0.0,0.0,0.0,0.0,0.0,0.0,0.0,0.0,0.0,0.0,0.0,0.0,0.0,0.0,0.0,0.0,0.0,0.0,0.0,0.0,0.0,0.0,0.0,0.0,0.0,0.0,0.0,0.0,0.0,0.0,0.0,0.0,0.0,0.0,0.0,0.0,0.0,0.0,0.0,0.0,0.0,0.0,0.0,0.0,0.0,0.0,-6.9889,-7.7818,-8.2113,-8.3838,-8.2333,-7.9002,-7.4348,-6.8263,0.0,0.0,0.0,0.0,0.0,0.0,0.0,0.0,0.0,0.0,0.0,0.0,0.0,0.0,0.0,0.0,0.0,0.0,0.0,0.0,0.0,0.0,0.0,0.0,0.0,0.0,0.0,0.0,0.0,0.0,0.0,0.0,0.0,0.0,0.0,0.0,0.0,0.0,0.0,0.0,0.0,0.0,0.0,0.0,0.0,0.0,0.0,0.0,0.0,0.0,0.0,0.0,0.0,0.0,0.0,0.0,0.0,0.0,0.0,0.0,0.0,0.0,0.0,0.0,0.0,0.0,0.0,0.0,0.0,0.0,0.0,0.0,0.0,0.0,0.0,0.0,0.0,0.0,0.0,0.0,0.0,0.0,0.0,0.0,0.0,0.0,0.0,0.0,0.0,0.0,0.0,0.0,0.0,0.0,0.0,0.0,0.0,0.0,0.0,0.0,0.0,0.0,0.0,-6.8029,-7.1854,-7.959,-8.1123,-8.131,-8.0754,-7.7991,-7.3367,-6.6673,-6.7261,0.0,0.0,0.0,0.0,0.0,0.0,0.0,0.0,0.0,0.0,0.0,0.0,0.0,0.0,0.0,0.0,0.0,0.0,0.0,0.0,0.0,0.0,0.0,0.0,0.0,0.0,0.0,0.0,0.0,0.0,0.0,0.0,0.0,0.0,0.0,0.0,0.0,0.0,0.0,0.0,0.0,0.0,0.0,0.0,0.0,0.0,0.0,0.0,0.0,0.0,0.0,0.0,0.0,0.0,0.0,0.0,0.0,0.0,0.0,0.0,0.0,0.0,0.0,0.0,0.0,0.0,0.0,0.0,0.0,0.0,0.0,0.0,0.0,0.0,0.0,0.0,0.0,0.0,0.0,0.0,0.0,0.0,0.0,0.0,0.0,0.0,0.0,0.0,0.0,0.0,0.0,0.0,0.0,0.0,0.0,0.0,0.0,0.0,0.0,0.0,0.0,0.0,-7.0685,-7.374,-7.9114,-7.9134,-7.8704,-7.8566,-7.6351,-7.2012,-6.5152,-6.4009,0.0,0.0,0.0,0.0,0.0,0.0,0.0,0.0,0.0,0.0,0.0,0.0,0.0,0.0,0.0,0.0,0.0,0.0,0.0,0.0,0.0,0.0,0.0,0.0,0.0,0.0,0.0,0.0,0.0,0.0,0.0,0.0,0.0,0.0,0.0,0.0,0.0,0.0,0.0,0.0,0.0,0.0,0.0,0.0,0.0,0.0,0.0,0.0,0.0,0.0,0.0,0.0,0.0,0.0,0.0,0.0,0.0,0.0,0.0,0.0,0.0,0.0,0.0,0.0,0.0,0.0,0.0,0.0,0.0,0.0,0.0,0.0,0.0,0.0,0.0,0.0,0.0,0.0,0.0,0.0,0.0,0.0,0.0,0.0,0.0,0.0,0.0,0.0,0.0,0.0,0.0,0.0,0.0,0.0,0.0,0.0,0.0,0.0,0.0,0.0,0.0,0.0,-7.0978,-7.4604,-7.578,-7.7121,-7.7366,-7.5915,-7.2283,-6.8353,-6.4212,-6.1133,0.0,0.0,0.0,0.0,0.0,0.0,0.0,0.0,0.0,0.0,0.0,0.0,0.0,0.0,0.0,0.0,0.0,0.0,0.0,0.0,0.0,0.0,0.0,0.0,0.0,0.0,0.0,0.0,0.0,0.0,0.0,0.0,0.0,0.0,0.0,0.0,0.0,0.0,0.0,0.0,0.0,0.0,0.0,0.0,0.0,0.0,0.0,0.0,0.0,0.0,0.0,0.0,0.0,0.0,0.0,0.0,0.0,0.0,0.0,0.0,0.0,0.0,0.0,0.0,0.0,0.0,0.0,0.0,0.0,0.0,0.0,0.0,0.0,0.0,0.0,0.0,0.0,0.0,0.0,0.0,0.0,0.0,0.0,0.0,0.0,0.0,0.0,0.0,0.0,0.0,0.0,0.0,0.0,0.0,0.0,0.0,0.0,0.0,0.0,0.0,0.0,0.0,-6.8527,-7.2275,-7.5192,-7.5269,-7.4998,-7.4595,-7.1705,-6.7995,-6.3243,0.0,0.0,0.0,0.0,0.0,0.0,0.0,0.0,0.0,0.0,0.0,0.0,0.0,0.0,0.0,0.0,0.0,0.0,0.0,0.0,0.0,0.0,0.0,0.0,0.0,0.0,0.0,0.0,0.0,0.0,0.0,0.0,0.0,0.0,0.0,0.0,0.0,0.0,0.0,0.0,0.0,0.0,0.0,0.0,0.0,0.0,0.0,0.0,0.0,0.0,0.0,0.0,0.0,0.0,0.0,0.0,0.0,0.0,0.0,0.0,0.0,0.0,0.0,0.0,0.0,0.0,0.0,0.0,0.0,0.0,0.0,0.0,0.0,0.0,0.0,0.0,0.0,0.0,0.0,0.0,0.0,0.0,0.0,0.0,0.0,0.0,0.0,0.0,0.0,0.0,0.0,0.0,0.0,0.0,0.0,0.0,0.0,0.0,0.0,0.0,0.0,0.0,-6.3373,-6.6902,-7.0463,-7.3816,-7.3342,-7.279,-7.2768,-6.9902,-6.6339,-6.2313,0.0,0.0,0.0,0.0,0.0,0.0,0.0,0.0,0.0,0.0,0.0,0.0,0.0,0.0,0.0,0.0,0.0,0.0,0.0,0.0,0.0,0.0,0.0,0.0,0.0,0.0,0.0,0.0,0.0,0.0,0.0,0.0,0.0,0.0,0.0,0.0,0.0,0.0,0.0,0.0,0.0,0.0,0.0,0.0,0.0,0.0,0.0,0.0,0.0,0.0,0.0,0.0,0.0,0.0,0.0,0.0,0.0,0.0,0.0,0.0,0.0,0.0,0.0,0.0,0.0,0.0,0.0,0.0,0.0,0.0,0.0,0.0,0.0,0.0,0.0,0.0,0.0,0.0,0.0,0.0,0.0,0.0,0.0,0.0,0.0,0.0,0.0,0.0,0.0,0.0,0.0,0.0,0.0,0.0,0.0,0.0,0.0,0.0,0.0,0.0,0.0,0.0,-6.3218,-6.6773,-6.9654,-7.1142,-7.1312,-7.1007,-7.0229,-6.6068,-6.2888,0.0,0.0,0.0,0.0,0.0,0.0,0.0,0.0,0.0,0.0,0.0,0.0,0.0,0.0,0.0,0.0,0.0,0.0,0.0,0.0,0.0,0.0,0.0,0.0,0.0,0.0,0.0,0.0,0.0,0.0,0.0,0.0,0.0,0.0,0.0,0.0,0.0,0.0,0.0,0.0,0.0,0.0,0.0,0.0,0.0,0.0,0.0,0.0,0.0,0.0,0.0,0.0,0.0,0.0,0.0,0.0,0.0,0.0,0.0,0.0,0.0,0.0,0.0,0.0,0.0,0.0,0.0,0.0,0.0,0.0,0.0,0.0,0.0,0.0,0.0,0.0,0.0,0.0,0.0,0.0,0.0,0.0,0.0,0.0,0.0,0.0,0.0,0.0,0.0,0.0,0.0,0.0,0.0,0.0,0.0,0.0,0.0,0.0,0.0,0.0,0.0,0.0,0.0,-6.2425,-6.5963,-6.9045,-7.1109,-7.0838,-7.0229,-6.9485,-6.5797,-6.2651,-6.0588,0.0,0.0,0.0,0.0,0.0,0.0,0.0,0.0,0.0,0.0,0.0,0.0,0.0,0.0,0.0,0.0,0.0,0.0,0.0,0.0,0.0,0.0,0.0,0.0,0.0,0.0,0.0,0.0,0.0,0.0,0.0,0.0,0.0,0.0,0.0,0.0,0.0,0.0,0.0,0.0,0.0,0.0,0.0,0.0,0.0,0.0,0.0,0.0,0.0,0.0,0.0,0.0,0.0,0.0,0.0,0.0,0.0,0.0,0.0,0.0,0.0,0.0,0.0,0.0,0.0,0.0,0.0,0.0,0.0,0.0,0.0,0.0,0.0,0.0,0.0,0.0,0.0,0.0,0.0,0.0,0.0,0.0,0.0,0.0,0.0,0.0,0.0,0.0,0.0,0.0,0.0,0.0,0.0,0.0,0.0,0.0,0.0,0.0,0.0,0.0,0.0,0.0,-6.1704,-6.5189,-6.8233,-7.0229,-7.0026,-6.9316,-6.8267,-6.5324,-6.2415,-5.9844,0.0,0.0,0.0,0.0,0.0,0.0,0.0,0.0,0.0,0.0,0.0,0.0,0.0,0.0,0.0,0.0,0.0,0.0,0.0,0.0,0.0,0.0,0.0,0.0,0.0,0.0,0.0,0.0,0.0,0.0,0.0,0.0,0.0,0.0,0.0,0.0,0.0,0.0,0.0,0.0,0.0,0.0,0.0,0.0,0.0,0.0,0.0,0.0,0.0,0.0,0.0,0.0,0.0,0.0,0.0,0.0,0.0,0.0,0.0,0.0,0.0,0.0,0.0,0.0,0.0,0.0,0.0,0.0,0.0,0.0,0.0,0.0,0.0,0.0,0.0,0.0,0.0,0.0,0.0,0.0,0.0,0.0,0.0,0.0,0.0,0.0,0.0,0.0,0.0,0.0,0.0,0.0,0.0,0.0,0.0,0.0,0.0,0.0,0.0,0.0,0.0,0.0,-6.1095,-6.441,-6.7252,-6.891,-6.8977,-6.8301,-6.6846,-6.4546,-6.1975,-5.9099,0.0,0.0,0.0,0.0,0.0,0.0,0.0,0.0,0.0,0.0,0.0,0.0,0.0,0.0,0.0,0.0,0.0,0.0,0.0,0.0,0.0,0.0,0.0,0.0,0.0,0.0,0.0,0.0,0.0,0.0,0.0,0.0,0.0,0.0,0.0,0.0,0.0,0.0,0.0,0.0,0.0,0.0,0.0,0.0,0.0,0.0,0.0,0.0,0.0,0.0,0.0,0.0,0.0,0.0,0.0,0.0,0.0,0.0,0.0,0.0,-7.4404,-7.5799,0.0,0.0,0.0,0.0,0.0,0.0,0.0,0.0,0.0,0.0,0.0,0.0,0.0,0.0,0.0,0.0,0.0,0.0,0.0,0.0,0.0,0.0,0.0,0.0,0.0,0.0,0.0,0.0,0.0,0.0,0.0,0.0,0.0,0.0,0.0,0.0,0.0,0.0,0.0,0.0,-6.096,-6.3497,-6.6102,-6.8808,-6.803,-6.6914,-6.6,-6.2787,-6.0047,-5.8254,-5.6055,0.0,0.0,0.0,0.0,0.0,0.0,0.0,0.0,0.0,0.0,0.0,0.0,0.0,0.0,0.0,0.0,0.0,0.0,0.0,0.0,0.0,0.0,0.0,0.0,0.0,0.0,0.0,0.0,0.0,0.0,0.0,0.0,0.0,0.0,0.0,0.0,0.0,0.0,0.0,0.0,0.0,0.0,0.0,0.0,0.0,0.0,0.0,0.0,0.0,0.0,0.0,0.0,0.0,0.0,0.0,0.0,0.0,0.0,0.0,-7.4441,-7.4625,0.0,0.0,0.0,0.0,0.0,0.0,0.0,0.0,0.0,0.0,0.0,0.0,0.0,0.0,0.0,0.0,0.0,0.0,0.0,0.0,0.0,0.0,0.0,0.0,0.0,0.0,0.0,0.0,0.0,0.0,0.0,0.0,0.0,0.0,0.0,0.0,0.0,0.0,0.0,0.0,-5.9911,-6.2144,-6.441,-6.6677,-6.6237,-6.5459,-6.4715,-6.2212,-5.9877,-5.8017,-5.6156,0.0,0.0,0.0,0.0,0.0,0.0,0.0,0.0,0.0,0.0,0.0,0.0,0.0,0.0,0.0,0.0,0.0,0.0,0.0,0.0,0.0,0.0,0.0,0.0,0.0,0.0,0.0,0.0,0.0,0.0,0.0,0.0,0.0,0.0,0.0,0.0,0.0,0.0,0.0,0.0,0.0,0.0,0.0,0.0,0.0,0.0,0.0,0.0,0.0,0.0,0.0,0.0,0.0,-7.323,-7.4184,-7.5439,-7.4615,-7.4388,-7.4668,-7.4659,-7.3433,-7.1706,-7.4342,0.0,0.0,0.0,0.0,0.0,0.0,0.0,0.0,0.0,0.0,0.0,0.0,0.0,0.0,0.0,0.0,0.0,0.0,0.0,0.0,0.0,0.0,-6.1394,-6.2016,-6.0645,-5.9321,-5.984,0.0,0.0,0.0,0.0,0.0,0.0,0.0,0.0,0.0,0.0,0.0,-5.8795,-6.0892,-6.2821,-6.4444,-6.4478,-6.4174,-6.3565,-6.2042,-6.0182,-5.8017,-5.6528,-5.504,0.0,0.0,0.0,0.0,0.0,0.0,0.0,0.0,0.0,0.0,0.0,0.0,0.0,0.0,0.0,0.0,0.0,0.0,0.0,0.0,0.0,0.0,0.0,0.0,0.0,0.0,0.0,0.0,0.0,0.0,0.0,0.0,-6.9853,-7.0073,0.0,0.0,0.0,0.0,0.0,0.0,0.0,0.0,0.0,0.0,0.0,0.0,0.0,-7.2973,-7.4258,-7.367,-7.345,-7.3523,-7.2936,-7.2789,-7.2973,-7.2856,-7.3149,-7.3861,-7.3675,0.0,-7.2227,-7.2658,0.0,0.0,0.0,0.0,0.0,0.0,0.0,0.0,0.0,0.0,0.0,0.0,0.0,0.0,0.0,0.0,0.0,0.0,0.0,0.0,0.0,0.0,-6.0303,-6.0404,-6.0194,-5.9644,-5.847,-5.8126,-5.8017,-5.7915,-5.619,-5.4735,0.0,0.0,0.0,0.0,0.0,0.0,-5.8727,-6.0452,-6.2245,-6.4377,-6.4038,-6.3632,-6.3531,-6.1501,-5.9573,-5.7983,-5.6528,-5.504,-5.3551,-5.3416,0.0,0.0,0.0,0.0,0.0,0.0,0.0,0.0,0.0,0.0,0.0,0.0,0.0,0.0,0.0,0.0,0.0,0.0,0.0,0.0,0.0,0.0,0.0,0.0,0.0,0.0,0.0,0.0,0.0,-7.0073,-7.1101,-7.022,-7.1908,-7.2349,0.0,0.0,0.0,0.0,0.0,0.0,0.0,0.0,0.0,-7.312,-7.3156,-7.3303,-7.356,-7.3634,-7.3927,-7.4368,-7.4478,-7.4771,-7.5182,-7.403,-7.4345,-7.5635,-7.3833,-7.2969,-7.2761,-7.2333,-7.1617,-7.0724,0.0,0.0,0.0,0.0,-6.9203,-6.8187,-6.6672,-6.5783,-6.5233,-6.4752,0.0,0.0,0.0,0.0,0.0,0.0,0.0,-6.0655,-6.0216,-6.0723,-6.1298,-6.0858,-6.0757,-6.0588,-5.9945,-5.8795,-5.7645,-5.6833,-5.6224,-5.5581,-5.4735,-5.3991,0.0,0.0,0.0,-5.6359,-5.8152,-5.9708,-6.1332,-6.3159,-6.3057,-6.2719,-6.2313,-6.0926,-5.9302,-5.7408,-5.6292,-5.504,-5.3551,-5.3518,-5.3281,0.0,0.0,0.0,0.0,0.0,0.0,0.0,0.0,0.0,0.0,0.0,0.0,0.0,0.0,0.0,0.0,0.0,0.0,0.0,0.0,0.0,0.0,0.0,0.0,0.0,0.0,0.0,0.0,-7.0403,-7.1688,-7.0257,-7.2239,-7.2679,0.0,0.0,0.0,0.0,0.0,0.0,-7.1835,-7.2312,-7.2973,-7.3964,-7.4221,-7.4066,-7.3636,-7.4689,-7.5312,-7.5426,-7.6301,-7.6778,-7.6856,-7.5614,-7.5754,-7.6793,-7.4272,-7.33,-7.339,-7.2138,-7.058,-6.9066,-6.9526,-6.9141,-6.8291,-6.8505,-6.7929,-6.6903,-6.5742,-6.4884,-6.414,-6.3024,-6.2178,-6.1332,-5.9945,0.0,0.0,0.0,0.0,-6.0655,-6.0452,-6.1264,-6.2009,-6.167,-6.1434,-6.1231,-6.1028,-5.9674,-5.8017,-5.6562,-5.6393,-5.6122,-5.4803,-5.4126,0.0,-5.3788,-5.4905,-5.6258,-5.7712,-5.9032,-6.0317,-6.167,-6.1806,-6.1603,-6.1028,-6.0283,-5.8964,-5.6934,-5.6122,-5.504,-5.3551,-5.3518,-5.3213,-5.2638,0.0,0.0,0.0,0.0,0.0,0.0,0.0,0.0,0.0,0.0,0.0,0.0,0.0,0.0,0.0,0.0,0.0,0.0,0.0,0.0,0.0,0.0,0.0,0.0,0.0,0.0,0.0,0.0,0.0,-7.0183,-7.2239,0.0,0.0,0.0,0.0,-7.1248,-7.2532,-7.345,-7.356,-7.2899,-7.323,-7.4808,-7.5579,-7.6204,-7.6688,-7.8541,-7.8577,-7.6832,-7.792,-7.7555,-7.5925,-7.6761,-7.666,-7.5787,-7.4684,-7.4234,-7.4057,-7.1691,-7.0555,-7.0342,-6.9684,-6.992,-7.0413,-6.8892,-6.7815,-6.6792,-6.4443,-6.3605,-6.3565,-6.3497,-6.2956,-6.1806,-5.8863,-5.849,0.0,0.0,-5.9099,-5.9438,-6.0892,-6.1298,-6.1535,-6.2178,-6.1806,-6.1095,-6.0317,-6.008,-5.9539,-5.8084,-5.6697,-5.5513,-5.4735,0.0,-5.4532,-5.4532,-5.5209,-5.6258,-5.7712,-5.8592,-5.937,-6.0148,-6.0216,-6.0216,-6.0148,-5.9471,-5.8423,-5.69,-5.6122,-5.504,-5.3551,-5.3518,-5.3484,-5.345,-5.1995,0.0,0.0,0.0,0.0,0.0,0.0,0.0,0.0,0.0,0.0,0.0,0.0,0.0,0.0,0.0,0.0,0.0,0.0,0.0,0.0,0.0,0.0,0.0,0.0,0.0,0.0,0.0,0.0,-7.4588,-7.5983,0.0,-7.3744,-7.3634,-7.345,-7.2899,-7.2899,-7.3597,-7.5175,-7.4806,-7.5138,-7.6393,-7.7101,-7.7628,-7.8001,-7.8022,-7.7647,-7.6942,-7.685,-7.6364,-7.5579,-7.5908,-7.5872,-7.5468,-7.378,-7.3199,-7.3217,-7.1652,-7.0465,-6.9543,-6.8724,-6.8357,-6.8091,-6.701,-6.6786,-6.6739,-6.5379,-6.4918,-6.4681,-6.326,-6.1941,-6.0723,-5.9641,-5.9505,-5.9708,-5.9708,-6.008,-6.0622,-6.1163,-6.1637,-6.2076,-6.2347,-6.1839,-6.1231,-6.0926,-6.008,-5.9235,-5.8727,-5.7814,-5.6731,-5.5513,-5.531,-5.531,-5.531,-5.5953,-5.6765,-5.7746,-5.8558,-5.9302,-6.0013,-6.0114,-5.9911,-5.9438,-5.8727,-5.7679,-5.619,-5.5412,-5.4532,-5.3551,-5.301,-5.2503,-5.2029,-5.1014,-5.027,0.0,0.0,0.0,0.0,0.0,0.0,0.0,0.0,0.0,0.0,0.0,0.0,0.0,0.0,0.0,0.0,0.0,0.0,0.0,0.0,0.0,0.0,0.0,0.0,0.0,-7.3634,-7.5946,-7.7561,-7.8736,-7.8772,-7.7084,-7.646,-7.5946,-7.5395,-7.5359,-7.5836,-7.69,-7.6439,-7.6459,-7.7162,-7.7484,-7.7703,-7.7896,-7.7839,-7.7342,-7.6482,-7.6298,-7.5621,-7.4545,-7.4861,-7.4823,-7.4466,-7.3129,-7.2631,-7.2714,-7.1732,-7.0737,-6.9789,-6.9282,-6.8605,-6.7895,-6.7387,-6.7184,-6.7083,-6.6339,-6.573,-6.5053,-6.3328,-6.1738,-6.0452,-6.0182,-6.0114,-6.0148,-6.0419,-6.0892,-6.1366,-6.1603,-6.2009,-6.2347,-6.2076,-6.1434,-6.0825,-6.0588,-5.9539,-5.8626,-5.8626,-5.822,-5.7509,-5.6292,-5.6089,-5.6089,-5.6089,-5.6494,-5.707,-5.7814,-5.8321,-5.8829,-5.9302,-5.9133,-5.8795,-5.8321,-5.7577,-5.6528,-5.5074,-5.4499,-5.3788,-5.2773,-5.2469,-5.2063,-5.1589,-5.0845,-4.9999,-4.9018,0.0,0.0,0.0,0.0,0.0,0.0,0.0,0.0,0.0,0.0,0.0,0.0,0.0,0.0,0.0,0.0,0.0,0.0,0.0,0.0,0.0,0.0,0.0,-7.1394,-7.5616,-7.8662,-7.8772,-8.0167,-8.0498,-7.8956,-8.0135,-8.0392,-7.8846,-8.0099,-8.0282,-7.8741,-7.7637,-7.6979,-7.6873,-7.6716,-7.6608,-7.6533,-7.838,-7.7986,-7.5401,-7.641,-7.5468,-7.2832,-7.3842,-7.3764,-7.279,-7.279,-7.279,-7.2707,-7.1688,-7.1312,-7.1312,-7.1312,-7.0872,-7.0229,-7.0195,-6.9214,-6.7793,-6.7049,-6.5831,-6.4478,-6.3768,-6.2516,-6.1197,-6.0419,-6.0182,-6.0317,-6.1129,-6.1332,-6.1501,-6.2212,-6.2381,-6.2212,-6.1467,-6.0689,-5.9911,-5.9167,-5.8423,-5.7881,-5.7881,-5.7881,-5.7679,-5.6968,-5.6833,-5.6833,-5.6833,-5.6833,0.0,-5.778,-5.7848,-5.7848,-5.7848,-5.7239,-5.6799,-5.6799,-5.6122,-5.5074,-5.3585,-5.345,-5.2773,-5.1285,-5.186,-5.2232,-5.2198,-5.1522,-5.0439,-4.9018,0.0,0.0,0.0,0.0,0.0,0.0,0.0,0.0,0.0,0.0,0.0,0.0,0.0,0.0,0.0,0.0,0.0,0.0,0.0,0.0,0.0,-7.2679,-7.5402,-7.5622,-7.7855,-8.0314,-8.2663,-8.3324,-8.3434,-8.2994,-8.2093,-8.1663,-8.2047,-8.0638,-7.9858,-8.0038,-7.8489,-7.7281,-7.6638,-7.6959,-7.7208,-7.7417,-7.7192,-7.6438,-7.5164,-7.4897,-7.3969,-7.256,-7.3545,-7.3461,-7.2516,-7.2516,-7.2209,-7.1688,-7.1412,-7.1312,-7.1312,-7.1312,-7.1176,-7.0939,-7.0398,-6.9214,-6.7726,-6.644,-6.5392,-6.4478,-6.3768,-6.2854,-6.2042,-6.1806,-6.1772,-6.1806,-6.2042,-6.211,-6.2144,-6.2347,-6.2381,-6.2212,-6.1467,-6.0689,-5.9911,-5.9167,-5.8423,-5.7881,-5.7881,-5.7881,-5.7814,-5.7611,-5.7577,-5.7577,-5.7577,-5.7577,-5.7476,-5.7137,-5.7103,-5.7103,-5.7103,-5.6934,-5.6799,-5.6799,-5.5615,-5.4499,-5.3551,-5.2469,-5.1657,-5.1219,-5.0879,-5.0439,-4.9932,-4.9729,-4.9424,0.0,0.0,0.0,0.0,0.0,0.0,0.0,0.0,0.0,0.0,0.0,0.0,0.0,0.0,0.0,0.0,0.0,0.0,0.0,0.0,0.0,0.0,-7.5726,-7.8699,-8.1048,-8.1893,-8.3104,-8.5343,-8.5894,-8.6261,-8.6591,-8.5005,-8.3991,-8.417,-8.2106,-8.0546,-7.9918,-7.812,-7.7017,-7.6871,-7.6399,-7.6632,-7.7572,-7.6632,-7.5812,-7.5049,-7.4287,-7.3378,-7.244,-7.2703,-7.2522,-7.1954,-7.1954,-7.1718,-7.1312,-7.1312,-7.1312,-7.1312,0.0,0.0,0.0,0.0,-6.8944,-6.7726,-6.6576,-6.5493,-6.4546,-6.4106,-6.326,-6.2381,-6.2381,-6.2381,-6.2381,-6.2381,-6.2381,-6.2381,-6.2381,-6.2381,-6.2212,-6.1467,-6.0689,-5.9911,-5.9167,-5.8423,-5.7814,-5.7476,-5.7679,0.0,-5.707,-5.7476,-5.7881,-5.7881,-5.7645,-5.7273,-5.6867,-5.6528,-5.6359,-5.6359,-5.6055,-5.5886,-5.5886,-5.4499,0.0,0.0,0.0,-5.0744,-5.0744,-5.0338,0.0,0.0,0.0,-4.9323,-4.9018,-4.9018,0.0,0.0,-4.9018,-4.9018,0.0,0.0,0.0,0.0,0.0,0.0,0.0,0.0,0.0,0.0,0.0,0.0,0.0,0.0,0.0,0.0,-7.9066,-8.1232,-8.6407,-8.6664,-8.6554,-8.7215,-8.7839,-8.85,-8.9197,-8.7738,-8.632,-8.5391,-8.3788,-8.1738,-7.9134,-7.7376,0.0,0.0,0.0,-7.5649,-7.7233,-7.6553,-7.5759,-7.493,-7.4213,-7.3351,-7.236,-7.165,-7.1312,-7.1312,-7.1312,-7.1312,-7.1312,-7.1312,-7.1312,-7.1312,-7.1312,-7.1278,-7.1007,-6.962,-6.8605,-6.776,-6.688,0.0,0.0,-6.441,-6.3463,-6.2381,-6.2381,-6.2381,-6.2381,-6.2381,-6.2381,-6.2381,-6.2381,-6.2347,-6.2076,-6.1332,-6.0554,-5.9742,-5.893,-5.8287,-5.7645,-5.6833,-5.734,-5.7442,-5.6089,-5.69,-5.7746,-5.7645,-5.7103,-5.6664,-5.6562,-5.5987,-5.5581,-5.5581,-5.5006,0.0,-5.46,-5.3281,-5.2097,-5.1219,-5.0439,-4.9965,-4.9965,-4.9965,-4.9965,-4.9965,-4.9965,-4.9661,-4.9018,-4.9018,-4.9018,-4.9018,-4.9018,-4.9018,0.0,0.0,0.0,0.0,0.0,0.0,0.0,0.0,0.0,0.0,0.0,0.0,0.0,0.0,0.0,-7.8295,-8.1856,-8.5233,-8.7619,-8.894,-8.9491,-8.9014,-8.85,-8.828,-8.8426,-8.6433,-8.5212,-8.5276,-8.326,-8.131,-7.9634,-7.8613,-7.7719,-7.7006,-7.6617,-7.6617,-7.6958,-7.6822,-7.6041,-7.4648,-7.3946,0.0,-7.236,-7.165,-7.1312,-7.1312,-7.1312,-7.1312,-7.1312,-7.1312,-7.1312,-7.1312,-7.1312,-7.0939,-7.0297,-6.9417,-6.8605,-6.7624,-6.5696,-6.485,-6.441,-6.3193,-6.2618,-6.2381,-6.2381,-6.2381,0.0,-6.2381,-6.2381,-6.2381,-6.2381,-6.1941,-6.1298,-6.052,-5.9776,-5.8863,-5.7509,-5.7577,-5.7509,-5.619,-5.7002,-5.7611,-5.6731,-5.6833,-5.6799,-5.6224,-5.6021,-5.5716,-5.5108,-5.4905,-5.4803,-5.4803,-5.4668,-5.46,-5.46,-5.3788,-5.2672,-5.1286,-4.9965,-4.9221,-4.9221,-4.9221,-4.9221,-4.9221,-4.9221,-4.9154,-4.9018,-4.9018,-4.9018,-4.9018,-4.9018,-4.9018,0.0,0.0,0.0,0.0,0.0,0.0,0.0,0.0,0.0,0.0,0.0,-7.2496,-7.2496,0.0,-8.0094,-8.2957,-8.5416,-8.7692,-8.9711,-9.0335,-9.0445,-9.0078,-8.9674,-8.9564,-8.9968,-8.767,-8.623,-8.6505,-8.3613,-8.139,-8.0327,-7.8614,-7.7631,-7.7483,-7.669,-7.6487,-7.6893,-7.6487,-7.5912,-7.5134,-7.4018,-7.3308,-7.2902,-7.1819,-7.1312,-7.1312,-7.1312,-7.1312,-7.1312,-7.1312,-7.1312,-7.1278,-7.0906,-7.0297,-6.9586,-6.9248,-6.8368,-6.7184,-6.6102,-6.5222,-6.4478,-6.3734,-6.299,-6.2381,-6.2381,-6.2381,-6.2381,-6.2381,-6.2381,-6.2381,-6.2381,-6.1839,-6.1197,-6.0791,-5.9844,-5.8829,-5.8084,-5.7881,-5.7577,-5.6461,-5.6833,-5.7002,-5.5886,-5.5683,-5.5818,-5.619,-5.5615,-5.5006,-5.4634,-5.4262,-5.4059,-5.4059,-5.4059,-5.4059,-5.4059,-5.3348,-5.2435,-5.1252,-5.0168,-4.956,-4.956,-4.9187,-4.9018,-4.9018,-4.9018,-4.9018,-4.9018,-4.9018,-4.9018,-4.9018,-4.9018,-4.9018,0.0,0.0,0.0,0.0,0.0,0.0,0.0,-6.8054,-6.9119,-7.011,-7.2863,-7.5726,-7.7671,-8.0314,-8.3508,-8.7545,-8.8463,-8.9417,-9.151,-9.1253,-9.0849,-9.0849,-9.0702,-9.0777,-9.1179,-8.9144,-8.7613,-8.7128,-8.4124,-8.1875,-8.0881,-7.8463,-7.7401,-7.7976,-7.6657,-7.6251,-7.6893,-7.6082,-7.5642,-7.5473,-7.3984,-7.3274,-7.324,-7.1921,-7.1312,-7.1312,-7.1312,-7.1312,-7.1312,-7.1312,-7.1244,-7.1041,-7.0432,-6.9654,-6.8876,-6.8876,-6.7996,-6.6779,-6.6474,-6.5595,-6.4546,-6.4275,-6.3362,-6.2381,-6.2381,-6.2381,-6.2381,-6.2381,-6.2381,-6.2347,-6.2212,-6.1637,-6.1028,-6.0892,-5.981,-5.8761,-5.8626,-5.822,-5.7645,-5.6765,-5.6697,-5.6393,-5.504,-5.4668,-5.4938,-5.5987,-5.5141,-5.4397,-5.4397,-5.3856,-5.3518,-5.3518,-5.3518,-5.3518,-5.3518,-5.2773,-5.2063,-5.1454,-5.0574,-5.0101,-5.0101,-4.939,-4.9018,-4.9018,-4.9018,-4.9018,-4.9018,-4.9154,-4.9154,-4.9018,-4.9154,-4.9154,-6.7026,-6.6623,-6.721,-6.8972,-6.9082,-6.9669,0.0,-7.3413,-7.345,-7.4992,-7.7892,-8.0277,-8.0534,-8.3728,-8.6738,-8.7986,-8.9417,-9.0702,-9.1657,-9.173,-9.1657,-9.1657,-9.1033,-9.019,-8.9235,-8.8855,-8.7649,-8.5224,-8.4365,-8.3031,-8.0916,-7.8941,-7.7908,-7.7976,-7.7198,-7.6826,-7.6893,-7.6082,-7.5371,-7.4728,-7.324,-7.2529,-7.2496,-7.1684,-7.1312,-7.1312,-7.1312,-7.1312,-7.1312,-7.1312,-7.0906,-7.0297,-7.0229,-6.9316,-6.803,-6.803,-6.7523,-6.6609,-6.529,-6.4749,-6.4377,-6.3057,-6.2516,-6.2381,-6.2381,-6.2381,-6.2381,-6.2381,-6.2381,-6.2245,-6.1603,-6.0825,-6.008,-5.9438,-5.8626,-5.7848,-5.7205,-5.7476,-5.7476,-5.6089,-5.6359,-5.6562,-5.5716,-5.504,-5.4431,-5.3957,-5.3721,-5.3619,-5.3619,-5.3551,-5.3518,-5.3518,-5.3518,-5.3518,-5.3518,-5.2773,-5.2266,-5.2198,-5.0879,-5.0101,-5.0101,-4.939,-4.9018,-4.9018,-4.9018,-4.9018,-4.9018,-4.9661,-4.9627,-4.9018,-4.9661,-4.9627,-6.7063,-6.7173,-6.7797,-6.743,-6.8825,-7.077,-7.2422,-7.3634,-7.5139,-7.7708,-8.1195,-8.4095,-8.5013,-8.7325,-8.9381,-9.0152,-9.0849,-9.1436,-9.173,-9.1211,-9.0427,-8.9595,-8.8938,-8.8793,-8.9424,-8.8452,-8.7109,-8.5497,-8.4239,-8.2707,-8.0916,-7.9009,-7.757,-7.669,-7.5946,-7.5371,-7.4931,-7.4593,-7.4255,-7.395,-7.2902,-7.2394,-7.236,-7.165,-7.1312,-7.1312,-7.1312,-7.1312,-7.1312,-7.1312,-7.0872,-7.0161,-6.9722,-6.8876,-6.7895,-6.7895,-6.7151,-6.6068,-6.5459,-6.4681,-6.3869,-6.326,-6.2753,-6.2381,-6.2381,-6.2381,-6.2313,-6.1873,-6.1772,-6.1569,-6.0791,-6.0047,-5.9404,-5.9099,-5.8457,-5.7814,-5.7509,-5.734,-5.707,-5.6461,-5.5919,-5.5412,-5.5108,-5.4465,-5.3856,-5.3551,-5.3518,-5.3518,-5.3518,-5.3518,-5.3518,-5.3518,-5.3518,-5.3518,-5.3518,-5.3179,-5.301,-5.301,-5.1995,-5.1183,-5.0777,-5.0033,-4.9424,-4.9018,-4.9424,-4.9424,-4.9018,-4.9729,-4.9729,-4.9018,-4.9323,-4.9289,-6.6843,-6.7504,-6.8421,-6.7797,-7.0146,-7.2826,-7.3487,-7.5359,-7.7708,-8.0534,-8.3948,-8.6885,-8.828,-8.9858,-9.1106,-9.1693,-9.1803,-9.1803,-9.1803,-9.0658,-8.9244,-8.7673,-8.6762,-8.6787,-8.8152,-8.7621,-8.6829,-8.5957,-8.4417,-8.2731,-8.0916,-7.9009,-7.7266,-7.5743,-7.4999,-7.4255,-7.3477,-7.3274,-7.3172,-7.3172,-7.2462,-7.209,-7.209,-7.1548,-7.1312,-7.1312,-7.1312,-7.121,-7.1007,-7.1007,-7.0432,-6.9485,-6.8977,-6.8301,-6.759,-6.759,-6.6914,-6.5933,-6.5527,-6.4681,-6.3768,-6.3328,-6.2854,-6.2381,-6.2381,-6.2381,-6.2279,-6.1738,-6.1603,-6.1366,-6.0351,-5.9708,-5.9201,-5.8795,-5.8287,-5.7881,-5.7881,-5.7476,-5.7103,-5.7103,-5.6089,-5.5209,-5.5209,-5.46,-5.4126,-5.4126,-5.3923,-5.3721,-5.3518,-5.3518,-5.3518,-5.3518,-5.3518,-5.3518,-5.3518,-5.3518,-5.3518,-5.3518,-5.2739,-5.2063,-5.1555,-5.0811,-5.0168,-4.9627,-5.0135,-5.0033,-4.9323,-5.0033,-4.9932,-4.9018,-4.9221,-4.9187,-6.6109,-6.71,-6.8641,-7.2496,-7.4698,-7.657,-7.8993,-8.0791,-8.2443,-8.4095,-8.6407,-8.839,-8.9234,-9.0702,-9.1767,-9.1803,-9.1803,-9.1803,-9.1803,-9.0446,-8.8765,-8.6921,-8.5206,-8.4015,-8.3903,-8.6199,-8.7182,-8.6009,-8.5179,-8.3605,-8.0927,-7.9009,-7.7266,-7.5743,-7.4999,-7.4255,-7.3477,-7.28,-7.2428,-7.2428,-7.1684,-7.1345,-7.1345,-7.1312,-7.1312,-7.1312,-7.1312,-7.0906,-7.0229,-7.0229,-6.9316,-6.7963,-6.7963,-6.7489,-6.6846,-6.6846,-6.6812,-6.6576,-6.5121,-6.4613,-6.4343,-6.2888,-6.2415,-6.2381,-6.2381,-6.2381,-6.2381,-6.2347,-6.2347,-6.2009,-6.0486,-6.008,-5.9708,-5.8254,-5.7915,-5.7881,-5.7881,-5.7881,-5.7848,-5.7848,-5.7239,-5.6731,-5.6731,-5.6122,-5.5614,-5.5614,-5.5006,-5.4296,-5.3585,-5.3518,-5.3518,-5.3518,-5.3518,-5.3518,-5.3518,-5.3518,-5.3518,-5.3518,-5.2739,-5.23,-5.2266,-5.1555,-5.1183,-5.1117,-5.1183,-5.0811,-5.0067,-5.0811,-5.0439,-4.9018,-4.9729,-4.9661,-6.7136,-6.9816,-7.3083,-7.5506,-7.7745,-7.9837,-8.1746,-8.303,-8.4242,-8.5857,-8.6004,-8.6077,-8.6848,-8.7031,-8.7362,-8.8463,-8.9528,-9.0118,-8.9882,-8.8703,-8.6691,-8.3508,-8.2138,-8.1488,-8.1634,-8.3354,-8.4625,-8.508,-8.4646,-8.3063,-8.0209,-7.9465,-7.7865,-7.5033,-7.4728,-7.4018,-7.2766,-7.2529,-7.2157,-7.1684,-7.1447,-7.1312,-7.1312,-7.1312,-7.1312,-7.1312,-7.1312,-7.1176,-7.0939,-7.0939,-7.006,-6.8707,-6.8707,-6.7929,-6.6745,-6.6237,-6.6068,-6.5933,-6.4952,-6.4275,-6.3734,-6.2719,-6.2381,-6.2381,-6.2381,-6.2381,-6.2279,-6.1806,-6.1298,-6.0655,-5.9641,-5.8998,-5.8524,-5.8017,-5.7881,-5.7881,-5.7881,-5.7509,-5.7171,-5.7171,-5.6562,-5.6089,-5.6089,-5.548,-5.4803,-5.4329,-5.4431,-5.4329,-5.3585,-5.3518,-5.3518,-5.3518,-5.3518,-5.3518,-5.3518,-5.3518,-5.3518,-5.3518,-5.3247,-5.2875,-5.2334,-5.2063,-5.1725,-5.1185,-5.1691,-5.1589,-5.0845,-5.1082,-5.071,-4.9729,-4.9492,-4.9255,-7.0146,-7.3413,-7.6754,-7.8925,-8.0681,-8.2296,-8.3911,-8.4646,-8.5233,-8.6004,-8.5086,-8.4168,-8.4095,-8.3434,-8.3324,-8.4646,-8.5747,-8.6571,-8.7133,-8.5805,-8.3774,-8.107,-8.0175,-7.9798,-8.0021,-8.0977,-8.2373,-8.4314,-8.4238,-8.2937,-8.0254,-7.9841,-7.8259,-7.5114,-7.4492,-7.3646,-7.2428,-7.2157,-7.1785,-7.1312,-7.1312,-7.1312,-7.1312,-7.1312,-7.1312,-7.1312,-7.1312,-7.1142,-7.0906,-7.0906,-7.0026,-6.8673,-6.8673,-6.7895,-6.6745,-6.6271,-6.6102,-6.5899,-6.4647,-6.3903,-6.3396,-6.2618,-6.2381,-6.2381,-6.2381,-6.2381,-6.2279,-6.1839,-6.1332,-6.0757,-6.0013,-5.9471,-5.9032,-5.8727,-5.8693,-5.8592,-5.8355,-5.7915,-5.7509,-5.7239,-5.6799,-5.6494,-5.6494,-5.6089,-5.5446,-5.4465,-5.4702,-5.4634,-5.3619,-5.3518,-5.3518,-5.3518,-5.3518,-5.3518,-5.3518,-5.3518,-5.3518,-5.3518,-5.3518,-5.3281,-5.2739,-5.2739,-5.2503,-5.2029,-5.2503,-5.2367,-5.1589,-5.1352,-5.098,-5.0473,-4.9729,-4.939,-7.4845,-7.7598,-7.9653,-8.2847,-8.3654,-8.4058,-8.5563,-8.5857,-8.5527,-8.4646,-8.3691,-8.248,-8.0865,-7.9947,-7.9764,-8.0718,-8.1048,-8.1858,-8.3836,-8.228,-8.0623,-7.9956,-7.9325,-7.8998,-7.9134,-7.9272,-8.0693,-8.3797,-8.4053,-8.316,-8.105,-8.0254,-7.8592,-7.592,-7.4369,-7.3206,-7.2462,-7.1684,-7.1312,-7.1312,-7.1312,-7.1312,-7.1312,-7.1312,-7.1312,-7.1312,-7.1312,-7.0872,-7.0195,-7.0195,-6.9282,-6.7895,-6.7895,-6.7455,-6.6812,-6.6779,-6.6745,-6.644,-6.4309,-6.3599,-6.3497,-6.2719,-6.2448,-6.2448,-6.2415,-6.2381,-6.2381,-6.2381,-6.2347,-6.2178,-6.1467,-6.1264,-6.1061,-6.0283,-6.0114,-5.9911,-5.9167,-5.9032,-5.8795,-5.8017,-5.7881,-5.7881,-5.7848,-5.7814,-5.7306,-5.5886,-5.558,-5.5108,-5.3687,-5.3518,-5.3518,-5.3518,-5.3518,-5.3518,-5.3518,-5.3518,-5.3518,-5.3518,-5.3518,-5.3518,-5.3518,-5.3518,-5.3518,-5.3518,-5.3518,-5.3112,-5.2367,-5.1623,-5.1285,-5.1251,-5.0507,-5.0135,-7.8699,-8.1379,-8.3691,-8.6334,-8.6995,-8.7068,-8.7472,-8.6664,-8.5233,-8.3214,-7.9764,-7.6607,-7.4955,-7.4992,-7.613,-7.8772,-8.1746,-8.3877,-8.4544,-8.4575,-8.3528,-8.0719,-8.0093,-7.9833,-7.9681,-8.0349,-8.1477,-8.3074,-8.3445,-8.352,-8.3355,-8.1833,-8.0018,-7.7913,-7.5547,-7.395,-7.3206,-7.1954,-7.1312,-7.1312,-7.1312,-7.1312,-7.1312,-7.1312,-7.1312,-7.1312,-7.1312,-7.0872,-7.0195,-7.0195,-6.9282,-6.7895,-6.7895,-6.7455,-6.6745,-6.617,-6.5967,-6.5831,-6.4715,-6.4681,-6.4918,-6.3632,-6.3226,-6.3125,-6.255,-6.2381,-6.2381,-6.2381,-6.2009,-6.1535,-6.1366,-6.0858,-6.0351,-6.0148,-6.0114,-5.9911,-5.9167,-5.9032,-5.8795,-5.8017,-5.7881,-5.7712,-5.7171,-5.663,-5.5953,-5.5006,-5.4397,-5.3923,-5.3551,-5.3518,-5.3518,-5.3518,-5.3518,-5.3518,-5.3518,-5.3518,-5.3518,-5.3518,-5.3518,-5.3518,-5.3518,-5.3518,-5.3518,-5.3518,-5.3518,-5.3416,-5.3179,-5.2401,-5.2029,-5.1995,-5.1285,-5.0913,-8.2663,-8.5159,-8.7031,-8.839,-8.8463,-8.7729,-8.5967,-8.4866,-8.303,-7.8809,-7.5469,-7.2716,-7.077,-7.1064,-7.2422,-7.4992,-7.8479,-8.115,-8.2028,-8.2552,-8.2085,-8.0171,-7.9794,-7.9726,-7.9758,-8.0662,-8.1835,-8.3288,-8.4059,-8.4133,-8.3474,-8.212,-8.0161,-7.7423,-7.5204,-7.3612,-7.2529,-7.1718,-7.1312,-7.1312,-7.1312,-7.1312,-7.1312,-7.1312,-7.1312,-7.1312,-7.1312,-7.0872,-7.0195,-7.0195,-6.9282,-6.7895,-6.7895,-6.7455,-6.6779,-6.6339,-6.5967,-6.5628,-6.5222,-6.5121,-6.5019,-6.3869,-6.3294,-6.2956,-6.2516,-6.2381,-6.2381,-6.2381,-6.211,-6.1772,-6.1772,-6.1434,-6.1095,-6.1095,-6.0858,-6.052,-6.0114,-5.9505,-5.8795,-5.8017,-5.7881,-5.7746,-5.734,-5.6934,-5.6427,-5.5683,-5.4938,-5.4363,-5.4025,-5.3687,-5.3518,-5.3518,-5.3518,-5.3518,-5.3518,-5.3518,-5.3518,-5.3518,-5.3518,-5.3518,-5.3518,-5.3518,-5.3518,-5.3518,-5.3518,-5.3518,-5.3518,-5.2706,-5.2469,-5.2807,-5.2063,-5.1691,-8.6444,-8.85,-8.9565,-8.9675,-8.894,-8.7178,-8.3251,-8.1929,-7.9764,-7.3487,-7.1394,-6.9963,-6.765,-6.7981,-6.9265,-7.1284,-7.4221,-7.6967,-7.8961,-7.9392,-7.9476,-7.9423,-7.9397,-7.9586,-7.9994,-8.0953,-8.2216,-8.3888,-8.5009,-8.4755,-8.2826,-8.1768,-7.9476,-7.5534,-7.4153,-7.28,-7.1312,-7.1312,-7.1312,-7.1312,-7.1312,-7.1312,-7.1312,-7.1312,-7.1312,-7.1312,-7.121,-7.0737,-7.0026,-6.9925,-6.9045,-6.776,-6.776,-6.7354,-6.6812,-6.6711,-6.6237,-6.5662,-6.5561,-6.5053,-6.4343,-6.3734,-6.3057,-6.2516,-6.2415,-6.2381,-6.2381,-6.2381,-6.2381,-6.2381,-6.2381,-6.2381,-6.2381,-6.2381,-6.1907,-6.1434,-6.1332,-6.0114,-5.8829,-5.8152,-5.7949,-5.7881,-5.7881,-5.7814,-5.7543,-5.69,-5.619,-5.548,-5.4837,-5.4025,-5.3518,-5.3518,-5.3518,-5.3518,-5.3518,-5.3518,-5.3518,-5.3518,-5.3518,-5.3518,-5.3518,-5.3518,-5.3518,-5.3518,-5.3518,-5.3518,-5.3518,-5.2807,-5.2807,-5.3484,-5.2773,-5.2469,-8.9234,-9.0188,-9.0555,-9.1216,-8.9784,-8.7325,-8.3985,-8.0608,-7.6717,-7.1578,-6.8825,-6.6806,-6.5044,-6.5925,-6.8311,-7.2569,-7.5432,-7.8168,-8.1353,-8.2298,-8.2241,-8.1053,-8.0919,-8.1288,-8.2276,-8.2848,-8.3309,-8.3661,-8.4176,-8.4311,-8.3932,-8.1711,-7.8384,-7.4009,-7.3612,-7.28,-7.1312,-7.1312,-7.1312,-7.1312,-7.1312,-7.1312,-7.1312,-7.1312,-7.1312,-7.1278,-7.0669,-6.9958,-6.9248,-6.8571,-6.7793,-6.7015,-6.7015,-6.6914,-6.6745,-6.6102,-6.5797,-6.5595,-6.4986,-6.4309,-6.3666,-6.3565,-6.3429,-6.3193,-6.2584,-6.2381,-6.2381,-6.2381,-6.2381,-6.2381,-6.2381,-6.2381,-6.2381,-6.2381,-6.2279,-6.2042,-6.1434,-6.0114,-5.8964,-5.8829,-5.8321,-5.7881,-5.7881,-5.7374,-5.6934,-5.6833,-5.619,-5.5683,-5.5547,-5.4329,-5.3518,-5.3518,-5.3518,-5.3518,-5.3518,-5.3518,-5.3518,-5.3518,-5.3518,-5.3518,-5.3518,-5.3518,-5.3518,-5.3518,-5.3518,-5.3518,-5.3518,-5.3382,-5.3382,-5.3518,-5.3382,-5.3281,-9.1473,-9.1913,-9.1877,-9.1803,-8.9674,-8.6297,-8.1346,-7.7745,-7.3707,-6.7577,-6.5742,-6.4861,-6.3649,-6.5118,-6.7393,-7.011,-7.2936,-7.5875,-7.8859,-7.9952,-8.0474,-8.0714,-8.0716,-8.1201,-8.2323,-8.3138,-8.3655,-8.3839,-8.3675,-8.3053,-8.1892,-7.8613,-7.5736,-7.3557,-7.2766,-7.2022,-7.1312,-7.1312,-7.1312,-7.1312,-7.1312,-7.1312,-7.1312,-7.1312,-7.1312,-7.1312,-7.0939,-7.0364,-6.962,-6.8842,-6.8064,-6.7354,-6.6948,-6.6812,-6.6779,-6.6406,-6.6034,-6.5628,-6.529,-6.4444,-6.3531,-6.3531,-6.326,-6.2854,-6.2516,-6.2381,-6.2381,-6.2381,-6.2381,-6.2381,-6.2381,-6.2381,-6.2381,-6.2381,-6.2381,-6.2076,-6.0926,-6.0419,-5.9979,-5.9167,-5.8727,-5.8355,-5.7949,-5.7611,-5.7374,-5.7374,-5.6731,-5.6292,-5.6292,-5.5344,-5.4499,-5.4126,-5.3721,-5.3518,-5.3518,-5.3518,-5.3518,-5.3518,-5.3518,-5.3518,-5.3518,-5.3518,-5.3518,-5.3518,-5.3518,-5.3518,-5.3518,-5.3518,-5.3518,-5.3518,-5.3518,-5.3518,-9.2905,-9.3088,-9.2905,-9.2024,-8.9124,-8.4829,-7.8516,-7.4918,-7.0991,-6.42,-6.3356,-6.3613,-6.2952,-6.4383,-6.6182,-6.7687,-7.0073,-7.2824,-7.5942,-7.7082,-7.8194,-7.9797,-8.0107,-8.0755,-8.2152,-8.2927,-8.362,-8.4336,-8.3056,-8.1389,-7.9307,-7.5697,-7.3646,-7.3477,-7.2225,-7.1481,-7.1312,-7.1312,-7.1312,-7.1312,-7.1312,-7.1312,-7.1312,-7.1312,-7.1312,-7.1312,-7.1142,-7.0737,-7.0128,-6.9214,-6.847,-6.7827,-6.7117,-6.6812,-6.6779,-6.6643,-6.6203,-6.5662,-6.5493,-6.4613,-6.3531,-6.3531,-6.3125,-6.2618,-6.2448,-6.2516,-6.2584,-6.2415,-6.2381,-6.2381,-6.2381,-6.2381,-6.2381,-6.2381,-6.2381,-6.2009,-6.0655,-6.0723,-6.0655,-5.9268,-5.8896,-5.8626,-5.822,-5.8118,-5.8118,-5.8118,-5.7645,-5.7205,-5.707,-5.6393,-5.5716,-5.5141,-5.4262,-5.3754,-5.3754,-5.3754,-5.3788,-5.3957,-5.3822,-5.3754,-5.3754,-5.3585,-5.3518,-5.3518,-5.3518,-5.3518,-5.3518,-5.3518,-5.3518,-5.3518,-5.3518,-5.3518,-9.3088,-9.3088,-9.2905,-9.2024,-8.828,-8.3324,-7.7524,-7.3193,-6.8972,-6.3844,-6.2853,-6.2915,-6.278,-6.2964,-6.4383,-6.8164,-6.9045,-7.0932,-7.5697,-7.7121,-7.8019,-7.9069,-7.9803,-8.1063,-8.3234,-8.2864,-8.3264,-8.5057,-8.1966,-7.9301,-7.7613,-7.5583,-7.4187,-7.351,-7.2699,-7.1988,-7.1312,-7.1312,-7.1312,-7.1312,-7.1312,-7.1312,-7.1312,-7.1312,-7.1312,-7.1278,-7.0601,-7.0263,-7.0094,-6.8605,-6.7963,-6.7827,-6.7117,-6.6812,-6.6745,-6.6034,-6.5764,-6.5595,-6.4918,-6.4174,-6.3531,-6.3531,-6.3463,-6.3294,-6.2584,-6.2854,-6.326,-6.2584,-6.2381,-6.2381,-6.2381,-6.2381,-6.2381,-6.2381,-6.2381,-6.2178,-6.1366,-6.0655,-5.9979,-5.9167,-5.8457,-5.8186,-5.8795,-5.893,-5.893,-5.893,-5.8863,-5.8558,-5.7881,-5.7171,-5.6664,-5.6596,-5.5344,-5.4499,-5.4499,-5.4499,-5.4769,-5.548,-5.4871,-5.4499,-5.4499,-5.3856,-5.3518,-5.3518,-5.3518,-5.3518,-5.3518,-5.3518,-5.3518,-5.3518,-5.3518,-5.3518,-9.3272,-9.3822,-9.3602,-9.2794,-8.8206,-8.2774,-7.8552,-7.334,-6.8274,-6.4383,-6.3172,-6.278,-6.278,-6.2401,-6.2952,-6.5595,-6.5558,-6.6708,-7.1006,-7.1835,-7.3322,-7.6736,-7.7332,-7.8839,-8.2262,-8.2909,-8.3335,-8.3869,-8.146,-7.9021,-7.6756,-7.4946,-7.3578,-7.2868,-7.2124,-7.1616,-7.1312,-7.1312,-7.1312,-7.1312,-7.1312,-7.1312,-7.1312,-7.1312,-7.1312,-7.1312,-7.1007,-7.0872,-7.077,-6.9722,-6.9282,-6.9214,-6.847,-6.7895,-6.7421,-6.7117,-6.6745,-6.6339,-6.6034,-6.5459,-6.4816,-6.4816,-6.4512,-6.3937,-6.2753,-6.2618,-6.2787,-6.2482,-6.2381,-6.2381,-6.2381,-6.2381,-6.2381,-6.2381,-6.2381,-6.2313,-6.2009,-6.1366,-6.0588,-5.981,-5.9438,-5.9167,-5.9032,-5.937,-5.9674,-5.9674,-5.9302,-5.8896,-5.8592,-5.7915,-5.7273,-5.6867,-5.5886,-5.5277,-5.5277,-5.5277,-5.5412,-5.5647,-5.5446,-5.5277,-5.5277,-5.4566,-5.416,-5.416,-5.3721,-5.3518,-5.3518,-5.3518,-5.3518,-5.3518,-5.3518,-5.3518,-9.2097,-9.3382,-9.3675,-9.2648,-8.7839,-8.2443,-7.8699,-7.323,-6.7981,-6.4751,-6.3429,-6.278,-6.278,-6.2365,-6.2438,0.0,-6.3796,-6.4665,-6.7981,-6.8768,-7.0516,-7.4504,-7.5092,-7.6699,-8.0573,-8.2885,-8.3821,-8.3194,-8.1523,-7.9299,-7.651,-7.4556,-7.3138,-7.2428,-7.1684,-7.1312,-7.1312,-7.1312,-7.1312,-7.1312,-7.1312,-7.1312,-7.1312,-7.1312,-7.1312,-7.1312,-7.1312,-7.1312,-7.1244,-7.05,-7.0195,-7.0128,-6.9383,-6.8605,-6.7895,-6.7895,-6.7455,-6.6812,-6.6812,-6.6305,-6.5696,-6.5696,-6.5053,-6.4072,-6.3024,-6.2719,-6.2685,-6.2448,-6.2381,-6.2381,-6.2381,-6.2381,-6.2381,-6.2381,-6.2381,-6.2347,-6.211,-6.167,-6.1061,-6.025,-6.0114,-6.0013,-5.9742,-6.0114,-6.0452,-6.0452,-6.0013,-5.9539,-5.9066,-5.8558,-5.7949,-5.7205,-5.6664,-5.6258,-5.6055,-5.6055,-5.6122,-5.6359,-5.6156,-5.6055,-5.6055,-5.5108,-5.46,-5.46,-5.389,-5.3518,-5.3518,-5.3518,-5.3518,-5.3518,-5.3518,-5.3518,-8.9014,-9.1253,-9.2721,-9.1033,-8.6995,-8.215,-7.7231,-7.2386,-6.7981,-6.4751,-6.3429,-6.278,-6.278,-6.278,-6.3099,-6.3943,-6.4751,-6.6044,-6.8187,-6.9829,-7.1292,-7.267,-7.3505,-7.5196,-7.8534,-8.2747,-8.4752,-8.3481,-8.2124,-7.9985,-7.6866,-7.4653,-7.3138,-7.2428,-7.1684,-7.1312,-7.1312,-7.1312,-7.1312,-7.1312,-7.1312,-7.1312,-7.1312,-7.1312,-7.1312,-7.1312,-7.1312,-7.1312,-7.1244,-7.05,-7.0195,-7.0128,-6.9383,-6.8605,-6.7895,-6.7895,-6.7455,-6.6812,-6.6812,-6.6305,-6.5696,-6.5696,-6.4715,-6.3531,-6.3497,-6.3497,-6.3362,-6.2618,-6.2381,-6.2381,-6.2381,-6.2381,-6.2381,-6.2381,-6.2381,-6.2178,-6.1467,-6.1298,-6.1061,-6.025,-6.0114,-6.0351,-6.1129,-6.1298,-6.1298,-6.1298,-6.1298,-6.0723,-5.9201,-5.8998,-5.8727,-5.7949,-5.7881,-5.7577,-5.6867,-5.6799,-5.7103,-5.7814,-5.7171,-5.6799,-5.6799,-5.5378,-5.46,-5.46,-5.389,-5.3518,-5.3518,-5.3518,-5.3518,-5.3518,-5.3518,-5.3518,-8.3875,-8.5453,-8.6077,-8.4462,-8.0791,-7.69,-7.4258,-7.033,-6.6659,-6.453,-6.3429,-6.278,-6.278,-6.1924,-6.1998,-6.453,-6.4163,-6.4244,-6.6062,-6.7968,-6.9849,-7.1709,-7.6314,-8.0098,-8.1902,-8.3574,-8.4427,-8.4248,-8.265,-8.02,-7.6908,-7.5353,-7.37,-7.1684,-7.1447,-7.1312,-7.1312,-7.1312,-7.1312,-7.1312,-7.1312,-7.1312,-7.1312,-7.1312,-7.1312,-7.1312,-7.1312,-7.1312,-7.1312,-7.1075,-7.0973,-7.0872,-7.0128,-6.9383,-6.8639,-6.8098,-6.7455,-6.6812,-6.6812,-6.6643,-6.6373,-6.5865,-6.5019,-6.4174,-6.3666,-6.3159,-6.2685,-6.2448,-6.2381,-6.2381,-6.2381,-6.2381,-6.2381,-6.2381,-6.2381,-6.2347,-6.211,-6.167,-6.1231,-6.096,-6.0926,-6.0994,-6.1264,-6.1704,-6.2042,-6.2042,-6.1637,-6.1129,-6.0622,-5.9674,-5.893,-5.8693,-5.8186,-5.7814,-5.7577,-5.7543,-5.7645,-5.7881,-5.7679,-5.7543,-5.7543,-5.663,-5.6089,-5.6089,-5.4871,-5.4262,-5.4262,-5.3754,-5.3518,-5.3518,-5.3518,-5.3518,-7.8993,-8.1158,-8.2113,-8.0498,-7.7708,-7.4771,-7.2569,-6.9192,-6.6035,-6.442,-6.3429,-6.278,-6.278,-6.1741,-6.163,-6.398,-6.3477,-6.3364,-6.4976,-6.7065,-6.9317,-7.1709,-7.7173,-8.1172,-8.2338,-8.3412,-8.4245,-8.4578,-8.2504,-7.9872,-7.6834,-7.5269,-7.3509,-7.1345,-7.1312,-7.1312,-7.1312,-7.1312,-7.1312,-7.1312,-7.1312,-7.1312,-7.1312,-7.1312,-7.1312,-7.1312,-7.1312,-7.1312,0.0,-7.1312,-7.1142,-7.0838,-7.0364,-6.9553,-6.8605,-6.8098,-6.7455,-6.6812,-6.6812,-6.6812,-6.6745,-6.6271,-6.5628,-6.4783,-6.3497,-6.2753,-6.2448,-6.2719,-6.2618,-6.2381,-6.2381,-6.2381,-6.2381,-6.2381,-6.2381,-6.2381,-6.2381,-6.2042,-6.1704,-6.1704,-6.1704,-6.1704,-6.1704,-6.2076,-6.2381,-6.2381,-6.2009,-6.1603,-6.1332,-6.0486,-5.9641,-5.9066,-5.8829,-5.849,-5.7949,-5.7881,-5.7881,-5.7881,-5.7881,-5.7881,-5.7881,-5.7171,-5.6799,-5.6799,-5.5615,-5.4871,-5.46,-5.3856,-5.3518,-5.3518,-5.3518,-5.3518,0.0,-7.7781,-7.9764,-7.8222,-7.6644,-7.4698,-7.1578,-6.8568,0.0,-6.4273,-6.3282,-6.2732,-6.2732,-6.1998,-6.1741,-6.2732,-6.2805,-6.3247,-6.4795,-6.7194,-6.9797,-7.2516,-7.6579,-7.9431,-8.029,-8.2603,-8.4099,-8.4371,-8.1653,-7.9023,-7.6717,-7.4662,-7.2858,-7.1345,-7.1312,-7.1312,-7.1312,-7.1312,-7.1312,-7.1312,-7.1312,-7.1312,-7.1312,-7.1312,-7.1312,-7.1312,-7.1312,-7.1312,-7.1312,-7.1244,-7.0804,-7.0161,-7.006,-6.918,-6.7963,-6.7861,-6.7421,-6.688,-6.6846,-6.6812,-6.6779,-6.6677,-6.6136,-6.5155,-6.3091,-6.2482,-6.2618,-6.326,-6.2922,-6.2381,-6.2381,-6.2381,-6.2381,-6.2381,-6.2381,-6.2381,-6.2381,-6.2381,-6.2381,-6.2381,-6.2381,-6.2381,-6.2381,-6.2381,-6.2381,-6.2381,-6.2381,-6.2144,-6.1467,-6.1332,-6.0757,-5.9336,-5.9742,-5.9539,-5.8152,-5.8051,-5.8017,-5.7881,-5.7949,-5.7949,-5.7881,-5.7239,-5.6867,-5.6867,-5.6156,-5.5412,-5.46,-5.3923,-5.3551,-5.3518,-5.3518,-5.3518,-6.9376,0.0,-7.1505,-7.0513,-6.9963,-6.9155,0.0,-6.6145,-6.4934,-6.2658,-6.1998,-6.1887,-6.1887,-6.0713,-6.0676,-6.3356,-6.2732,-6.2682,-6.4892,-6.8952,-7.2107,-7.3195,-7.8753,-8.1564,-7.929,-8.158,-8.2924,-8.2128,-7.9764,-7.753,-7.5589,-7.4453,-7.3068,-7.1345,-7.1312,-7.1312,-7.1312,-7.1312,-7.1312,-7.1312,-7.1312,-7.1312,-7.1312,-7.1312,-7.1312,-7.1312,-7.1312,-7.1312,-7.1278,-7.0703,-7.0364,-7.006,-6.891,-6.8605,-6.8673,-6.7489,-6.732,-6.7557,-6.7015,-6.6812,-6.6609,-6.5493,-6.4613,-6.3937,-6.3396,-6.326,-6.3159,-6.2753,-6.2516,-6.2381,-6.2381,-6.2381,-6.2381,-6.2381,-6.2381,-6.2381,-6.2381,-6.2381,-6.2381,-6.2381,-6.2381,-6.2381,-6.2381,-6.2381,-6.2381,-6.2381,-6.2381,-6.2347,-6.2144,-6.1637,-6.1163,-6.0791,-6.0351,-5.9945,-5.9607,-5.9573,-5.9099,-5.7949,-5.8423,-5.849,-5.7915,-5.7712,-5.7645,-5.7645,-5.6934,-5.5919,-5.46,-5.4431,-5.4059,-5.3518,-5.3518,-5.3518,-6.7504,-6.8274,-6.8715,-6.7907,-6.7981,-6.7724,-6.5742,-6.5301,-6.4604,-6.2108,-6.1594,-6.1484,-6.1117,-6.0052,-6.0015,-6.2548,-6.1869,-6.206,-6.509,-6.8705,-7.1813,-7.3785,-7.8321,-8.0833,-7.9723,-8.1208,-8.1791,-8.0871,-7.8465,-7.6489,-7.5169,-7.3921,-7.2668,-7.1345,-7.1312,-7.1312,-7.1312,-7.1312,-7.1312,-7.1312,-7.1312,-7.1312,-7.1312,-7.1312,-7.1312,-7.1312,-7.1312,-7.1312,-7.1278,-7.0872,-7.0297,-6.962,-6.8774,-6.8504,-6.8402,-6.7252,-6.7286,-6.7793,-6.7083,-6.6576,-6.6102,-6.4986,-6.4546,-6.4309,-6.3294,-6.3463,-6.3869,-6.3125,-6.2651,-6.2381,-6.2381,-6.2381,-6.2381,-6.2381,-6.2381,-6.2381,-6.2381,-6.2381,-6.2381,-6.2381,-6.2381,-6.2381,-6.2381,-6.2381,-6.2381,-6.2381,-6.2381,-6.2381,-6.2381,-6.2042,-6.167,-6.1332,-6.1197,-6.0858,-6.0148,-6.0452,-6.0013,-5.849,-5.8795,-5.8693,-5.7915,-5.7881,-5.7881,-5.7881,-5.7171,-5.6258,-5.5108,-5.4769,-5.4228,-5.3518,-5.3518,-5.3518,-6.743,-6.8385,-6.8678,-6.7724,-6.7944,-6.7797,-6.5632,-6.5007,-6.4273,-6.1887,-6.13,-6.1043,-6.0493,-5.9758,-5.9808,-6.1667,-6.165,-6.2562,-6.6011,-6.8371,-7.0948,-7.4052,-7.7114,-7.9242,-7.9948,-8.0631,-8.064,-7.9592,-7.7197,-7.5492,-7.4731,-7.315,-7.1954,-7.1345,-7.1312,-7.1312,-7.1312,-7.1312,-7.1312,-7.1312,-7.1312,-7.1312,-7.1312,-7.1312,-7.1312,-7.1312,-7.1312,-7.1312,-7.1312,-7.1176,-7.0398,-6.9248,-6.9147,-6.8673,-6.7996,-6.7252,-6.7354,-6.7793,-6.7083,-6.6406,-6.573,-6.5019,-6.5121,-6.5155,-6.3294,-6.3429,-6.4174,-6.3666,-6.2956,-6.2381,-6.2381,-6.2381,-6.2381,-6.2381,-6.2381,-6.2381,-6.2381,-6.2381,-6.2381,-6.2381,-6.2381,-6.2381,-6.2381,-6.2381,-6.2381,-6.2381,-6.2381,-6.2381,-6.2381,-6.2381,-6.2144,-6.1535,-6.2009,-6.1873,-6.0554,-6.1061,-6.0825,-5.9268,-5.9066,-5.8693,-5.7915,-5.8017,-5.8017,-5.7881,-5.7273,-5.6596,-5.5886,-5.5141,-5.4431,-5.3856,-5.3721,-5.3721,-6.8274,-6.8825,-6.8531,-6.7063,-6.6256,-6.5595,-6.453,-6.3723,-6.2695,-6.0933,-6.0052,-5.9758,-6.0309,-5.9758,-6.0199,-6.3209,-6.5174,-6.7091,-6.9302,-7.156,-7.3171,-7.3603,-7.7697,-7.9396,-7.6747,-7.8592,-7.8933,-7.6539,-7.4842,-7.3595,-7.2836,-7.1943,-7.1447,-7.1312,-7.1312,-7.1312,-7.1312,-7.1312,-7.1312,-7.1312,-7.1312,-7.1312,-7.1312,-7.1312,-7.1312,-7.1312,-7.1312,-7.1312,-7.1278,-7.0635,-7.0229,-6.9958,-6.935,-6.9011,-6.8808,-6.803,-6.7793,-6.7793,-6.7083,-6.6745,-6.6508,-6.5764,-6.5189,-6.4715,-6.4377,-6.3531,-6.2821,-6.3362,-6.2956,-6.2381,-6.2381,-6.2381,-6.2381,-6.2381,-6.2381,-6.2381,-6.2381,-6.2381,-6.2381,-6.2381,-6.2381,-6.2381,-6.2381,-6.2381,-6.2381,-6.2381,-6.2381,-6.2381,-6.2381,-6.2381,-6.2347,-6.2245,-6.2313,-6.2279,-6.2042,-6.2144,-6.1569,-6.0047,-5.937,-5.8693,-5.7915,-5.849,-5.8558,-5.7915,-5.778,-5.7374,-5.663,-5.5886,-5.548,-5.5378,-5.4735,-5.4769,-6.7283,-6.6623,-6.5742,-6.6366,-6.688,-6.6586,-6.398,-6.3466,-6.3025,-6.1374,-6.075,-6.0481,-6.0373,-6.0715,-6.184,-6.4532,-6.6204,-6.7438,-6.8295,-7.0038,-7.164,-7.2744,-7.5628,-7.7153,-7.64,-7.7455,-7.7358,-7.5283,-7.4086,-7.3172,-7.2428,-7.1718,-7.1312,-7.1312,-7.1312,-7.1312,-7.1312,-7.1312,-7.1312,-7.1312,-7.1312,-7.1312,-7.1312,-7.1312,-7.1312,-7.1312,-7.1312,-7.1312,-7.1278,-7.0939,-7.0567,-7.0161,-6.9823,-6.9451,-6.9011,-6.8199,-6.7658,-6.7252,-6.6914,-6.6542,-6.6136,-6.5797,-6.5459,-6.5053,-6.4241,-6.4072,-6.4005,-6.3159,-6.2651,-6.2381,-6.2381,-6.2685,-6.299,-6.299,-6.3294,-6.3599,-6.3599,-6.3599,-6.3599,-6.3599,-6.3599,-6.3463,-6.3057,-6.299,-6.2854,-6.2448,-6.2381,-6.2381,-6.2381,-6.2381,-6.2381,-6.2381,-6.2381,-6.2381,-6.2381,-6.2009,-6.1501,-6.0791,-5.9674,-5.8863,-5.8524,-5.8829,-5.866,-5.7915,-5.7881,-5.7543,-5.6799,-5.6461,-5.6089,-5.5716,-5.5344,-5.5378,-6.6219,-6.5118,-6.4053,-6.5558,-6.6586,-6.6659,-6.4677,-6.4016,-6.3649,-6.3135,-6.2585,-6.197,-6.1325,-6.2377,-6.3886,-6.5454,-6.685,-6.7816,-6.8057,-6.9147,-7.0635,-7.2665,-7.4086,-7.527,-7.6251,-7.669,-7.6115,-7.4255,-7.3713,-7.3105,-7.2191,-7.1616,-7.1312,-7.1312,-7.1312,-7.1312,-7.1312,-7.1312,-7.1312,-7.1312,-7.1312,-7.1312,-7.1312,-7.1312,-7.1312,-7.1312,-7.1312,-7.1312,-7.1312,-7.1312,-7.0973,-7.0466,-7.0466,-6.9891,-6.8977,-6.7996,-6.7286,-6.6812,-6.6812,-6.644,-6.5967,-6.5967,-6.5831,-6.5527,-6.458,-6.4816,-6.5121,-6.3599,-6.3024,-6.2854,-6.2685,-6.3193,-6.3768,-6.3768,-6.4208,-6.4613,-6.4613,-6.4613,-6.4613,-6.4613,-6.4613,-6.441,-6.3869,-6.3768,-6.3565,-6.299,-6.2922,-6.2854,-6.2685,-6.2651,-6.2584,-6.2415,-6.2381,-6.2381,-6.2381,-6.1704,-6.1366,-6.1535,-6.0283,-5.9404,-5.9032,-5.9167,-5.8829,-5.7915,-5.7881,-5.7611,-5.707,-5.69,-5.6596,-5.6224,-5.6055,-5.6055,-6.6072,-6.6366,-6.5925,-6.4604,-6.3172,-6.3246,-6.7504,-6.5595,-6.3723,-6.6659,-6.5485,-6.3906,-6.3855,-6.4972,-6.5875,-6.5806,-6.8241,-7.0567,-7.1819,-7.209,-7.2732,-7.4255,-7.5134,-7.5405,-7.483,-7.6082,-7.5676,-7.2766,-7.3138,-7.2868,-7.1481,-7.1345,-7.1312,-7.1312,-7.1312,-7.1312,-7.1312,-7.1312,-7.1312,-7.1312,-7.1312,-7.1312,-7.1312,-7.1312,-7.1312,-7.1312,-7.1312,-7.1312,-7.1312,-7.1312,-7.1278,-7.1244,-7.1244,-7.0364,-6.891,-6.7455,-6.6846,-6.6812,-6.6812,-6.6779,-6.6745,-6.6745,-6.6271,-6.5797,-6.6406,-6.5696,-6.4783,-6.529,-6.4952,-6.4275,-6.3599,-6.3971,-6.4512,-6.4512,-6.4546,-6.4613,-6.4613,-6.4613,-6.4613,-6.4613,-6.4613,-6.458,-6.4546,-6.4512,-6.4512,-6.4444,-6.4444,-6.4208,-6.3531,-6.3429,-6.3159,-6.2448,-6.2381,-6.2381,-6.2381,-6.1704,-6.1603,-6.2279,-6.1569,-6.0486,-5.9066,-5.9674,-5.9336,-5.7915,-5.7881,-5.7848,-5.7814,-5.7137,-5.7137,-5.7712,-5.7036,-5.7103,-6.4824,-6.5007,-6.4971,-6.4861,-6.3613,-6.3099,-6.5999,-6.5485,-6.5007,-6.7247,-6.776,-6.7634,-6.699,-6.6732,-6.6872,-6.7752,-6.9605,-7.1144,-7.1627,-7.2124,-7.2597,-7.3172,-7.3883,-7.4221,-7.395,-7.4424,-7.4119,-7.2529,-7.2665,-7.236,-7.1379,-7.1312,-7.1312,-7.1312,-7.1312,-7.1312,-7.1312,-7.1312,-7.1312,-7.1312,-7.1312,-7.1312,-7.1312,-7.1312,-7.1312,-7.1312,-7.1312,-7.1312,-7.1278,-7.0804,-7.0906,-7.121,-7.0297,-6.9282,-6.8233,-6.7184,-6.6812,-6.6812,-6.6812,-6.6812,-6.6812,-6.6812,-6.6609,-6.6339,-6.617,-6.6068,-6.5831,-6.5189,-6.5493,-6.5696,-6.4512,-6.4715,-6.5256,-6.5256,-6.5628,-6.5967,-6.5967,-6.5967,-6.5967,-6.5967,-6.5967,-6.5831,-6.5358,-6.5256,-6.5121,-6.4681,-6.4613,-6.4512,-6.4241,-6.4174,-6.3903,-6.3159,-6.2651,-6.2584,-6.3057,-6.2415,-6.211,-6.2381,-6.1704,-6.1028,-6.0452,-6.0689,-6.0351,-5.9268,-5.9268,-5.9032,-5.8592,-5.8321,-5.8084,-5.7881,-5.7611,-5.7611,-6.3686,-6.3503,-6.3429,-6.398,-6.3466,-6.3503,-6.6219,-6.6439,-6.688,-6.9743,-7.0,-6.9433,-6.8426,-6.7474,-6.7204,-6.8274,-7.0054,-7.1312,-7.1312,-7.1751,-7.2056,-7.2056,-7.2699,-7.3037,-7.2834,-7.3206,-7.3105,-7.2124,-7.2259,-7.209,-7.1345,-7.1312,-7.1312,-7.1312,-7.1312,-7.1312,-7.1312,-7.1312,-7.1312,-7.1312,-7.1312,-7.1312,-7.1312,-7.1312,-7.1312,-7.1312,-7.1312,-7.1312,-7.1244,-7.05,-7.0364,-7.05,-6.9214,-6.8368,-6.7793,-6.7083,-6.6812,-6.6812,-6.6812,-6.6812,-6.6812,-6.6812,-6.6812,-6.6711,-6.6203,-6.6406,-6.6609,-6.5595,-6.6034,-6.6576,-6.5561,-6.5662,-6.6034,-6.6034,-6.644,-6.6812,-6.6812,-6.6812,-6.6812,-6.6812,-6.6812,-6.6643,-6.6136,-6.6034,-6.5865,-6.5358,-6.529,-6.5222,-6.4986,-6.4952,-6.458,-6.3632,-6.3057,-6.2854,-6.3125,-6.2685,-6.2381,-6.2381,-6.1907,-6.1535,-6.1332,-6.1298,-6.0926,-6.0114,-5.9877,-5.9505,-5.9032,-5.8795,-5.8524,-5.8254,-5.8254,-5.8355,-6.278,-6.2218,-6.163,-6.163,-6.2254,-6.4127,-6.9009,-6.8862,-6.9265,-7.4918,-7.2247,-6.8604,-6.7598,-6.7268,-6.7048,-6.6874,-6.935,-7.1312,-7.1312,-7.1312,-7.1312,-7.1312,-7.1954,-7.209,-7.1379,-7.2631,-7.2868,-7.1413,-7.1988,-7.209,-7.1345,-7.1312,-7.1312,-7.1312,-7.1312,-7.1312,-7.1312,-7.1312,-7.1312,-7.1312,-7.1312,-7.1312,-7.1312,-7.1312,-7.1312,-7.1312,-7.1312,-7.1312,-7.1244,-7.05,-6.9755,-6.9011,-6.8199,-6.7895,-6.7793,-6.7083,-6.6812,-6.6812,-6.6812,-6.6812,-6.6812,-6.6812,-6.6812,-6.6812,-6.6812,-6.6812,-6.6812,-6.6812,-6.6812,-6.6812,-6.6812,-6.6812,-6.6812,-6.6812,-6.6812,-6.6812,-6.6812,-6.6812,-6.6812,-6.6812,-6.6812,-6.6812,-6.6812,-6.6812,-6.6812,-6.6812,-6.6812,-6.6542,-6.5797,-6.5696,-6.5121,-6.37,-6.3531,-6.3193,-6.2448,-6.2381,-6.2381,-6.2381,-6.2381,-6.2076,-6.1332,-6.1332,-6.0926,-6.0148,-5.9404,-5.9032,-5.9032,-5.8287,-5.8287,-5.9032,-5.9032,-5.9404,-6.3723,-6.3539,-6.3466,-6.4053,-6.5228,-6.721,-7.0954,-6.9229,-6.8274,-7.3377,-7.1775,-6.9567,-6.9947,-6.9192,-6.8329,-6.7799,-6.9714,-7.1312,-7.1312,-7.1312,-7.1312,-7.1312,-7.1515,-7.1548,-7.1345,-7.1718,-7.1785,-7.1345,-7.1515,-7.1548,-7.1312,-7.1312,-7.1312,-7.1312,-7.1312,-7.1312,-7.1312,-7.0804,-7.0534,-7.05,-6.9992,-7.0297,-7.1312,-7.077,-7.0534,-7.0534,-7.0534,-7.0229,-6.9755,-6.9519,-6.8673,-6.7523,-6.7793,-6.759,-6.7117,-6.688,-6.6812,-6.6812,-6.6812,-6.6812,-6.6812,-6.6812,-6.6812,-6.6812,-6.6812,-6.6812,-6.6812,-6.6812,-6.6812,-6.6812,-6.6812,-6.6812,-6.6812,-6.6812,-6.6812,-6.6812,-6.6812,-6.6812,-6.6812,-6.6812,-6.6812,-6.6812,-6.6812,-6.6812,-6.6812,-6.6812,-6.6812,-6.6745,-6.6508,-6.5561,-6.4952,-6.5019,-6.3632,-6.2854,-6.3159,-6.2685,-6.2381,-6.2381,-6.2381,-6.2279,-6.2076,-6.2076,-6.1941,-6.1704,-6.1501,-6.1129,-6.0622,-6.0385,-6.0114,-5.9776,-5.9776,-5.9911,-6.3686,-6.3576,-6.3796,-6.4604,-6.6512,-6.8862,-7.1431,-7.1394,-7.1529,-7.4019,-7.2473,-7.0731,-7.0877,-6.9675,-6.8664,-6.8528,-6.9603,-7.0534,-7.0838,-7.0872,-7.0872,-7.0872,-7.1142,-7.1312,-7.1312,-7.1312,-7.1312,-7.1312,-7.1312,-7.1312,-7.1312,-7.1041,-7.0872,-7.0872,-7.0601,-7.0432,-7.0432,-6.9992,-6.9755,-6.9755,-6.9316,-6.9586,-7.0432,-6.9958,-6.9755,-6.9755,-6.9755,-6.9316,-6.8605,-6.8605,-6.7895,-6.6846,-6.7286,-6.7184,-6.6812,-6.6812,-6.6812,-6.6812,-6.6812,-6.6812,-6.6812,-6.6812,-6.6812,-6.6812,-6.6812,-6.6812,-6.6812,-6.6812,-6.6812,-6.6812,-6.6812,-6.6812,-6.6812,-6.6812,-6.6812,-6.6812,-6.6812,-6.6812,-6.6812,-6.6812,-6.6812,-6.6812,-6.6812,-6.6812,-6.6812,-6.6812,-6.6812,-6.6812,-6.6812,-6.6034,-6.5527,-6.5662,-6.4241,-6.3328,-6.3497,-6.2821,-6.2381,-6.2381,-6.2381,-6.2381,-6.2381,-6.2381,-6.2381,-6.2381,-6.211,-6.1738,-6.1298,-6.0994,-6.0757,-6.0588,-6.0588,-6.0723,-6.3246,-6.3,-6.3282,-6.4273,-6.7026,-6.9889,-7.1505,-7.4572,-7.6851,-7.5704,-7.3774,-7.1939,-7.0802,-6.9278,-6.8389,-6.8904,-6.9045,-6.9316,-6.9992,-7.0094,-7.0094,-7.0195,-7.0804,-7.1244,-7.1312,-7.1312,-7.1312,-7.1312,-7.1312,-7.1278,-7.121,-7.0567,-7.0161,-7.0094,-6.9451,-6.9113,-6.9113,-6.9045,-6.8977,-6.8977,-6.891,-6.8876,-6.8876,-6.8977,-6.8977,-6.8977,-6.891,-6.8504,-6.7895,-6.7827,-6.7421,-6.6812,-6.6812,-6.6812,-6.6812,-6.6812,-6.6812,-6.6812,-6.6745,-6.6745,-6.6812,-6.6745,-6.6779,-6.6812,-6.6812,-6.6812,-6.6812,-6.6812,-6.6812,-6.6812,-6.6812,-6.6812,-6.6812,-6.6812,-6.6812,-6.6812,-6.6812,-6.6812,-6.6812,-6.6812,-6.6812,-6.6812,-6.6812,-6.6812,-6.6812,-6.6812,-6.6812,-6.6812,-6.6812,-6.6745,-6.644,-6.5662,-6.4986,-6.4275,-6.3497,-6.2854,-6.2448,-6.2381,-6.2381,-6.2381,-6.2381,-6.2381,-6.2381,-6.2381,-6.1738,-6.14,-6.14,-6.0655,-6.0689,-6.14,-6.14,-6.1772,-6.4824,-6.4787,-6.5264,-6.7357,-7.077,-7.4037,-7.5622,-7.6077,-7.5517,-7.3405,-7.3008,-7.2503,-7.0858,-6.968,-6.8727,-6.8242,-6.8707,-6.9147,-6.9316,-6.935,-6.9553,-7.0128,-7.0331,-7.0669,-7.1244,-7.1312,-7.1312,-7.1312,-7.1312,-7.1075,-7.0466,-7.0263,-6.9925,-6.935,-6.918,-6.9113,-6.9113,-6.847,-6.8166,-6.8166,-6.759,-6.732,-6.732,-6.7895,-6.8166,-6.8132,-6.7557,-6.7523,-6.7861,-6.7286,-6.6948,-6.6812,-6.6812,-6.6812,-6.6812,-6.6812,-6.6812,-6.6745,-6.6136,-6.6305,-6.6711,-6.6102,-6.6339,-6.6812,-6.6812,-6.6812,-6.6812,-6.6812,-6.6812,-6.6812,-6.6812,-6.6812,-6.6812,-6.6812,-6.6812,-6.6812,-6.6812,-6.6812,-6.6812,-6.6812,-6.6812,-6.6812,-6.6812,-6.6812,-6.6812,-6.6812,-6.6812,-6.6812,-6.6812,-6.6305,-6.5628,-6.4918,-6.4681,-6.4072,-6.2753,-6.3024,-6.3024,-6.2415,-6.2381,-6.2381,-6.2381,-6.2381,-6.2381,-6.2381,-6.2245,-6.2144,-6.2144,-6.1975,-6.1975,-6.2144,-6.2144,-6.2245,-6.4347,-6.4971,-6.6659,-6.9816,-7.3083,-7.5689,-7.6533,-7.634,-7.532,-7.3147,-7.2538,-7.1831,-6.9708,-6.8897,-6.8402,-6.7963,-6.7658,-6.7726,-6.8436,-6.8233,-6.8267,-6.9011,-6.9755,-7.0331,-7.0737,-7.1109,-7.1312,-7.1312,-7.0973,-7.0601,-7.0195,-6.9485,-6.891,-6.8538,-6.8199,-6.7827,-6.7455,-6.7421,-6.7015,-6.6305,-6.6305,-6.6271,-6.6305,-6.7049,-6.7387,-6.7354,-6.6981,-6.7015,-6.7354,-6.6981,-6.6812,-6.6779,-6.6406,-6.6271,-6.6237,-6.5899,-6.5967,-6.617,-6.5425,-6.5662,-6.6136,-6.5392,-6.5662,-6.6271,-6.6271,-6.6271,-6.6339,-6.6711,-6.6542,-6.6339,-6.6711,-6.6812,-6.6812,-6.6812,-6.6812,-6.6812,-6.6812,-6.6812,-6.6812,-6.6812,-6.6812,-6.6812,-6.6812,-6.6812,-6.6812,-6.6812,-6.6812,-6.6812,-6.6812,-6.6474,-6.6068,-6.5696,-6.5324,-6.4816,-6.4038,-6.4005,-6.3734,-6.2956,-6.2922,-6.2753,-6.2415,-6.2381,-6.2381,-6.2381,-6.2381,-6.2381,-6.2381,-6.2381,-6.2381,-6.2381,-6.2381,-6.2381,-6.3466,-6.5044,-6.8017,-7.1762,-7.4294,-7.5946,-7.6056,-7.5861,-7.5102,-7.3226,-7.2155,-7.0776,-6.8184,-6.7726,-6.7624,-6.7387,-6.6406,-6.6068,-6.7184,-6.6812,-6.6745,-6.7624,-6.8842,-6.9722,-6.9958,-7.0669,-7.1075,-7.0939,-7.0466,-7.006,-6.9823,-6.8571,-6.7793,-6.7523,-6.6948,-6.6271,-6.5493,-6.6136,-6.5831,-6.4613,-6.5222,-6.5561,-6.5696,-6.6203,-6.6576,-6.6812,-6.6812,-6.6812,-6.6812,-6.6812,-6.6812,-6.6745,-6.6136,-6.5865,-6.5797,-6.5053,-6.5256,-6.573,-6.4749,-6.4986,-6.5561,-6.4681,-6.4918,-6.5493,-6.5493,-6.5493,-6.5662,-6.6406,-6.6068,-6.5696,-6.6576,-6.6711,-6.6643,-6.6779,-6.6812,-6.6812,-6.6812,-6.6812,-6.6812,-6.6812,-6.6812,-6.6812,-6.6812,-6.6812,-6.6812,-6.6812,-6.6812,-6.6812,-6.6812,-6.6812,-6.6779,-6.6643,-6.617,-6.5764,-6.5527,-6.5053,-6.4478,-6.3768,-6.37,-6.3429,-6.2787,-6.2651,-6.2584,-6.2584,-6.2448,-6.2381,-6.2381,-6.2381,-6.2381,-6.2381,-6.2381,-6.2381,-6.4163,-6.6696,-7.0257,-7.2863,-7.4294,-7.5249,-7.5946,-7.4915,-7.3323,-7.1687,-7.1194,-7.0211,-6.7426,-6.6948,-6.6542,-6.5256,-6.5392,-6.5527,-6.5087,-6.4952,-6.5392,-6.6779,-6.7151,-6.7793,-6.9113,-6.9891,-7.006,-6.9451,-6.9891,-6.962,-6.8267,-6.7996,-6.732,-6.6034,-6.5899,-6.5493,-6.4749,-6.485,-6.4783,-6.4613,-6.4681,-6.5087,-6.5662,-6.5121,-6.5595,-6.6812,-6.6812,-6.6812,-6.6812,-6.6812,-6.6812,-6.6812,-6.6711,-6.6677,-6.6576,-6.5831,-6.6,-6.6373,-6.4377,-6.4546,-6.5459,-6.4106,-6.414,-6.4749,-6.4749,-6.4749,-6.4884,-6.5628,-6.5324,-6.5053,-6.644,-6.6339,-6.6,-6.6643,-6.6812,-6.6812,-6.6812,-6.6812,-6.6812,-6.6812,-6.6812,-6.6812,-6.6812,-6.6812,-6.6812,-6.6812,-6.6812,-6.6812,-6.6812,-6.6812,-6.6576,-6.5899,-6.6339,-6.6136,-6.485,-6.5222,-6.5222,-6.4512,-6.4444,-6.441,-6.4309,-6.37,-6.3362,-6.3362,-6.2719,-6.2381,-6.2381,-6.2381,-6.2381,-6.2381,-6.2381,-6.2381,-6.6659,-6.776,-6.9559,-7.2863,-7.4294,-7.4992,-7.5359,-7.4799,-7.366,-7.1548,-7.0329,-6.8925,-6.6686,-6.6308,-6.5904,-6.4762,-6.4546,-6.4512,-6.458,-6.4241,-6.4377,-6.5459,-6.5933,-6.6609,-6.7726,-6.847,-6.8944,-6.9079,-6.8977,-6.8605,-6.7929,-6.7117,-6.6373,-6.5696,-6.529,-6.4715,-6.4005,-6.441,-6.441,-6.4005,-6.4005,-6.4174,-6.4478,-6.4546,-6.5189,-6.617,-6.5764,-6.5561,-6.5561,-6.5561,-6.5561,-6.5527,-6.5121,-6.4952,-6.4884,-6.4106,-6.4309,-6.4749,-6.3362,-6.3565,-6.4309,-6.3226,-6.3396,-6.4005,-6.4005,-6.4005,-6.414,-6.4884,-6.485,-6.485,-6.5899,-6.6237,-6.6406,-6.6745,-6.6812,-6.6812,-6.6812,-6.6812,-6.6812,-6.6812,-6.6812,-6.6812,-6.6812,-6.6812,-6.6812,-6.6812,-6.6812,-6.6812,-6.6812,-6.6812,-6.6677,-6.6339,-6.6609,-6.6542,-6.5899,-6.6136,-6.6,-6.5256,-6.5222,-6.5019,-6.4613,-6.4309,-6.3937,-6.3531,-6.3193,-6.2821,-6.2381,-6.2821,-6.2787,-6.2415,-6.2821,-6.3024,-6.7614,-6.7687,-6.8238,-7.1872,-7.3377,-7.4111,-7.4515,-7.4441,-7.364,-7.135,-6.9853,-6.838,-6.6391,-6.5803,-6.5181,-6.3956,-6.3463,-6.3294,-6.3429,-6.3159,-6.3226,-6.3937,-6.4681,-6.5493,-6.644,-6.7015,-6.7658,-6.847,-6.7963,-6.7557,-6.7354,-6.6271,-6.5527,-6.5155,-6.4613,-6.3971,-6.3226,-6.3768,-6.3666,-6.2956,-6.3125,-6.3328,-6.3531,-6.3869,-6.4444,-6.5121,-6.4749,-6.4613,-6.4613,-6.4613,-6.4613,-6.4546,-6.4005,-6.3802,-6.37,-6.2956,-6.3159,-6.3666,-6.2719,-6.2888,-6.3396,-6.2618,-6.2753,-6.3226,-6.3226,-6.3362,-6.3666,-6.441,-6.4613,-6.4816,-6.573,-6.6237,-6.6576,-6.6779,-6.6812,-6.6812,-6.6812,-6.6812,-6.6812,-6.6812,-6.6812,-6.6812,-6.6812,-6.6812,-6.6812,-6.6812,-6.6812,-6.6812,-6.6812,-6.6812,-6.6812,-6.6812,-6.6812,-6.6812,-6.6812,-6.6812,-6.6576,-6.6,-6.5967,-6.573,-6.5189,-6.4986,-6.4613,-6.4072,-6.4072,-6.3599,-6.2685,-6.3057,-6.3125,-6.2956,-6.3328,-6.3599,-6.5264,-6.5999,-6.7173,-6.9669,-7.0881,-7.1908,-7.3413,-7.3156,-7.2137,-7.0494,-7.0062,-6.9258,-6.6831,-6.5438,-6.3983,-6.1806,-6.2009,-6.1941,-6.052,-6.096,-6.1704,-6.2415,-6.3159,-6.4174,-6.5595,-6.5764,-6.6102,-6.688,-6.688,-6.6542,-6.5831,-6.573,-6.5053,-6.3666,-6.3599,-6.3193,-6.2448,-6.2482,-6.2144,-6.1434,-6.211,-6.2821,-6.3497,-6.2821,-6.2922,-6.3666,-6.4309,-6.4613,-6.4613,-6.4613,-6.4613,-6.4613,-6.4546,-6.4546,-6.4444,-6.3734,-6.3903,-6.4343,-6.2888,-6.2888,-6.3396,-6.2618,-6.2415,-6.2448,-6.2448,-6.2956,-6.3666,-6.441,-6.4613,-6.4952,-6.6373,-6.6237,-6.5933,-6.6643,-6.6812,-6.6812,-6.6812,-6.6812,-6.6812,-6.6812,-6.6812,-6.6812,-6.6812,-6.6812,-6.6812,-6.6812,-6.6812,-6.6812,-6.6812,-6.6812,-6.6812,-6.6812,-6.6812,-6.6812,-6.6812,-6.6812,-6.6779,-6.6779,-6.6745,-6.6745,-6.6711,-6.6,-6.5595,-6.5561,-6.5561,-6.4884,-6.3463,-6.2787,-6.3159,-6.4478,-6.3835,-6.3869,-6.6476,-6.5925,-6.5668,-6.8605,-6.9559,-7.0073,-7.1138,-7.1578,-7.1284,-6.9669,-6.8463,-6.7447,-6.6572,-6.5561,-6.4247,-6.2421,-6.1889,-6.1332,-6.025,-6.0351,-6.0622,-6.0892,-6.1603,-6.2482,-6.3463,-6.4005,-6.4613,-6.5324,-6.5392,-6.5256,-6.5019,-6.4546,-6.4072,-6.3531,-6.3057,-6.2448,-6.1704,-6.1163,-6.0791,-6.0554,-6.1332,-6.1839,-6.211,-6.2279,-6.2516,-6.2821,-6.3057,-6.3193,-6.3193,-6.3193,-6.3193,-6.3193,-6.3193,-6.3193,-6.3159,-6.2888,-6.2956,-6.3091,-6.2584,-6.255,-6.2753,-6.2482,-6.2381,-6.2482,-6.2956,-6.3294,-6.3666,-6.441,-6.4952,-6.5425,-6.5967,-6.6237,-6.6474,-6.6745,-6.6812,-6.6812,-6.6812,-6.6812,-6.6812,-6.6812,-6.6812,-6.6812,-6.6812,-6.6812,-6.6812,-6.6812,-6.6812,-6.6812,-6.6812,-6.6812,-6.6812,-6.6812,-6.6812,-6.6812,-6.6812,-6.6812,-6.6812,-6.6812,-6.6812,-6.6812,-6.6812,-6.6542,-6.617,-6.5696,-6.5696,-6.5189,-6.4208,-6.441,-6.4546,-6.4613,-6.4816,-6.5053,-6.6659,-6.5521,-6.4751,-6.743,-6.7907,-6.8054,-6.9376,-7.011,-7.011,-6.8788,-6.7595,-6.678,-6.646,-6.5233,-6.3815,-6.244,-6.1263,-6.025,-5.9471,-5.9573,-5.9742,-5.9742,-6.0419,-6.1197,-6.1941,-6.2245,-6.2888,-6.414,-6.4005,-6.3971,-6.4241,-6.3768,-6.3294,-6.2787,-6.2009,-6.1264,-6.0554,-6.025,-5.9979,-5.9742,-6.0791,-6.1298,-6.1332,-6.2042,-6.2381,-6.2381,-6.2381,-6.2381,-6.2381,-6.2381,-6.2381,-6.2381,-6.2381,-6.2381,-6.2381,-6.2381,-6.2381,-6.2381,-6.2381,-6.2381,-6.2381,-6.2381,-6.255,-6.2821,-6.3057,-6.3666,-6.4309,-6.4546,-6.529,-6.6068,-6.6068,-6.644,-6.6812,-6.6812,-6.6812,-6.6812,-6.6812,-6.6812,-6.6812,-6.6812,-6.6812,-6.6812,-6.6812,-6.6812,-6.6812,-6.6812,-6.6812,-6.6812,-6.6812,-6.6812,-6.6812,-6.6812,-6.6812,-6.6812,-6.6812,-6.6812,-6.6812,-6.6812,-6.6812,-6.6812,-6.6812,-6.6812,-6.6576,-6.6068,-6.6068,-6.5831,-6.5358,-6.5561,-6.5696,-6.573,-6.6203,-6.644,0.0,0.0,0.0,-6.6035,-6.5852,-6.5925,-6.8238,-6.8788,-6.8568,-6.7797,-6.7614,-6.7357,-6.6586,-6.4367,-6.237,-6.164,-6.0066,-5.8761,-5.7983,-5.8524,-5.8998,-5.8998,-5.9641,-6.0385,-6.1163,-6.0554,-6.1028,-6.3294,-6.2753,-6.2685,-6.3429,-6.3463,-6.2787,-6.1332,-6.0486,-5.9708,-5.9032,-5.9708,-5.9708,-5.9032,-6.0554,-6.1298,-6.1332,-6.2042,-6.2381,-6.2381,-6.2381,-6.2381,-6.2381,-6.2381,-6.2381,-6.2381,-6.2381,-6.2381,-6.2381,-6.2381,-6.2381,-6.2381,-6.2415,-6.2415,-6.2381,-6.2415,-6.2888,-6.3362,-6.2651,-6.3937,-6.5527,-6.485,-6.5696,-6.6812,-6.6812,-6.6812,-6.6812,-6.6812,-6.6812,-6.6812,-6.6812,-6.6812,-6.6812,-6.6812,-6.6812,-6.6812,-6.6812,-6.6812,-6.6812,-6.6812,-6.6812,-6.6812,-6.6812,-6.6812,-6.6812,-6.6812,-6.6812,-6.6812,-6.6812,-6.6812,-6.6812,-6.6812,-6.6812,-6.6812,-6.6812,-6.6812,-6.6812,-6.6812,-6.6812,-6.6812,-6.6846,-6.6102,-6.6474,-6.7895,-6.7929,-6.7929,-6.6219,0.0,0.0,0.0,0.0,0.0,-6.5411,-6.5888,-6.6256,-6.5999,-6.5485,-6.5191,-6.5558,-6.3106,-6.1149,-6.1492,-6.015,-5.8761,-5.7983,-5.8084,-5.8186,-5.8186,-5.8863,-5.9404,-5.9641,-5.9911,-6.0588,-6.1839,-6.1738,-6.1941,-6.2651,-6.2212,-6.1467,-6.0452,-5.9708,-5.9235,-5.9032,-5.866,-5.866,-5.9032,-5.9979,-6.0757,-6.1332,-6.2042,-6.2381,-6.2381,-6.2381,-6.2381,-6.2381,-6.2381,-6.2381,-6.2381,-6.2381,-6.2381,-6.2381,-6.2381,-6.2381,-6.2482,-6.3024,-6.2854,-6.2482,-6.3024,-6.2956,-6.2854,-6.3734,-6.441,-6.5087,-6.5967,-6.6508,-6.6812,-6.6812,-6.6812,-6.6812,-6.6812,-6.6812,-6.6812,-6.6812,-6.6812,-6.6812,-6.6812,-6.6812,-6.6812,-6.6812,-6.6812,-6.6812,-6.6812,-6.6812,-6.6812,-6.6812,-6.6812,-6.6812,-6.6812,-6.6812,-6.6812,-6.6812,-6.6812,-6.6812,-6.6812,-6.6812,-6.6812,-6.6812,-6.6812,-6.6812,-6.6812,-6.6812,-6.7083,-6.759,-6.7387,-6.7489,-6.7895,-6.8504,-6.8774,-6.6586,-6.6145,-6.5595,-6.4787,0.0,0.0,-6.42,-6.4714,-6.5191,-6.4861,-6.4677,-6.4453,-6.3899,-6.1681,-5.9986,-6.0065,-5.8944,-5.8051,-5.7915,-5.7881,-5.7881,-5.7881,-5.8017,-5.8084,-5.8084,-5.849,-5.9167,-6.0283,-6.0351,-6.0655,-6.14,-6.0757,-6.0148,-5.9674,-5.893,-5.8558,-5.8558,-5.8118,-5.8118,-5.8558,-5.9302,-5.9911,-6.0385,-6.1467,-6.1738,-6.1467,-6.1806,-6.1941,-6.1941,-6.1941,-6.211,-6.2381,-6.2381,-6.2381,-6.2381,-6.2381,-6.2381,-6.2448,-6.2888,-6.2753,-6.2448,-6.2888,-6.3159,-6.3429,-6.3971,-6.4783,-6.5628,-6.6203,-6.6576,-6.6812,-6.6812,-6.6812,-6.6812,-6.6812,-6.6812,-6.6812,-6.6812,-6.6812,-6.6812,-6.6812,-6.6812,-6.6812,-6.6812,-6.6812,-6.6812,-6.6812,-6.6812,-6.6812,-6.6812,-6.6812,-6.6812,-6.6812,-6.6812,-6.6812,-6.6812,-6.6812,-6.6812,-6.6812,-6.6812,-6.6948,-6.7252,-6.7252,-6.7421,-6.776,-6.776,-6.8132,-6.8842,-6.8538,-6.8707,-6.935,-6.9789,-6.9857,-6.6843,-6.6623,-6.6439,-6.5632,-6.4897,0.0,-6.4127,-6.464,-6.4934,-6.4127,-6.4457,-6.4239,-6.2051,-6.0332,-5.8941,-5.8124,-5.7329,-5.707,-5.778,-5.7881,-5.7881,-5.7881,-5.7306,-5.6934,-5.6934,-5.6867,-5.7408,-5.8896,-5.9099,-5.937,-5.9945,-5.937,-5.8964,-5.8896,-5.8254,-5.7881,-5.7881,-5.7881,-5.7915,-5.8017,-5.8693,-5.9066,-5.9167,-6.0554,-6.0791,-6.0148,-6.0858,-6.1163,-6.1163,-6.1163,-6.1637,-6.2381,-6.2381,-6.2381,-6.2381,-6.2381,-6.2381,-6.2415,-6.2482,-6.2448,-6.2415,-6.2482,-6.3396,-6.4377,-6.3802,-6.5053,-6.6576,-6.5967,-6.6305,-6.6812,-6.6812,-6.6812,-6.6812,-6.6812,-6.6812,-6.6812,-6.6812,-6.6812,-6.6812,-6.6812,-6.6812,-6.6812,-6.6812,-6.6812,-6.6812,-6.6812,-6.6812,-6.6812,-6.6812,-6.6812,-6.6812,-6.6812,-6.6812,-6.6812,-6.6812,-6.6812,-6.6846,-6.6914,-6.6948,-6.7252,-6.7996,-6.803,-6.8368,-6.9079,-6.918,-6.9553,-7.0195,-6.9553,-6.9958,-7.1312,-7.1312,-7.0973,-6.7504,-6.7467,-6.7247,-6.6476,-6.6145,0.0,-6.4383,-6.42,-6.409,-6.3246,-6.2658,-6.2193,-6.1702,-5.9816,-5.8278,-5.8099,-5.7358,-5.707,-5.778,-5.7881,-5.7881,-5.7881,-5.7746,-5.7679,-5.7679,-5.7137,-5.7408,-5.8896,-5.9573,-5.9708,-5.9268,-5.9099,-5.8727,-5.8118,-5.7983,-5.7881,-5.7881,-5.7881,-5.8186,-5.8795,-5.893,-5.9336,-5.9911,-6.0216,-6.025,-6.0114,-6.0283,-6.0317,-6.0317,-6.0317,-6.1163,-6.2381,-6.2381,-6.2381,-6.2381,-6.2381,-6.2381,-6.2482,-6.3091,-6.2888,-6.2482,-6.3091,-6.3497,-6.3802,-6.4241,-6.5087,-6.6,-6.6474,-6.6711,-6.6812,-6.6812,-6.6812,-6.6812,-6.6812,-6.6812,-6.6812,-6.6812,-6.6812,-6.6812,-6.6812,-6.6812,-6.6812,-6.6812,-6.6812,-6.6812,-6.6812,-6.6812,-6.6812,-6.6812,-6.6812,-6.6812,-6.6812,-6.6812,-6.6812,-6.6812,-6.6812,-6.7049,-6.7658,-6.7692,-6.803,-6.8842,-6.8876,-6.8944,-6.9113,-6.9688,-7.006,-7.0195,-7.006,-7.0432,-7.1312,-7.1312,-7.1244,-6.7687,-6.7687,-6.7504,-6.6696,-6.6219,0.0,0.0,-6.409,-6.3833,-6.2989,-6.2805,-6.2363,-6.0756,-5.9484,-5.856,-5.8155,-5.7367,-5.7363,-5.894,-5.8423,-5.8017,-5.8389,-5.7814,-5.734,-5.734,-5.7036,-5.7273,-5.8355,-5.9133,-5.9235,-5.849,-5.8457,-5.8287,-5.7915,-5.7881,-5.7881,-5.7881,-5.7881,-5.8084,-5.8457,-5.8457,-5.866,-5.8998,-5.937,-5.9336,-5.8998,-5.9404,-5.9573,-5.9573,-5.9573,-6.0216,-6.1298,-6.167,-6.2076,-6.2381,-6.2381,-6.2381,-6.2448,-6.2821,-6.2719,-6.2448,-6.2821,-6.3463,-6.414,-6.4478,-6.5358,-6.6339,-6.6711,-6.6812,-6.6812,-6.6812,-6.6812,-6.6812,-6.6812,-6.6812,-6.6812,-6.6812,-6.6812,-6.6812,-6.6812,-6.7117,-6.7252,-6.688,-6.6812,-6.6812,-6.6812,-6.6812,-6.6812,-6.6812,-6.6812,-6.6812,-6.6812,-6.6812,-6.6948,-6.732,-6.7354,-6.7692,-6.8436,-6.8504,-6.8842,-6.962,-6.9654,-6.9823,-7.0195,-7.0567,-7.0737,-7.0737,-7.0737,-7.0939,-7.1312,-7.1312,-7.1312,-6.7687,-6.7687,-6.754,-6.688,-6.6256,-6.5521,0.0,0.0,0.0,-6.3025,-6.3246,-6.2801,-6.0243,-5.95,-5.9087,-5.8445,-5.775,-5.7971,-5.9875,-5.8873,-5.8205,-5.8916,-5.7821,-5.7002,-5.7002,-5.69,-5.7036,-5.7645,-5.8254,-5.8389,-5.7915,-5.7881,-5.7881,-5.7881,-5.7881,-5.7881,-5.7881,-5.7881,-5.7881,-5.7881,-5.7881,-5.7881,-5.7915,-5.8524,-5.8457,-5.7915,-5.8524,-5.8795,-5.8795,-5.8795,-5.9302,-6.0182,-6.0994,-6.167,-6.2212,-6.2347,-6.2381,-6.2381,-6.2381,-6.2381,-6.2381,-6.2381,-6.3396,-6.4613,-6.4783,-6.573,-6.6812,-6.6812,-6.6812,-6.6812,-6.6812,-6.6812,-6.6812,-6.6812,-6.6812,-6.6812,-6.6812,-6.6812,-6.6846,-6.6981,-6.7489,-6.7658,-6.6948,-6.6914,-6.6981,-6.6846,-6.6812,-6.6812,-6.6812,-6.6812,-6.6812,-6.6812,-6.6948,-6.7252,-6.7861,-6.803,-6.847,-6.9248,-6.9316,-6.962,-7.0364,-7.0398,-7.0635,-7.1075,-7.1244,-7.1244,-7.1109,-7.1244,-7.1312,-7.1312,-7.1312,-7.1312,-6.7687,-6.7687,-6.7677,-6.7577,-6.7467,-6.7026,-6.5521,0.0,-6.4714,-6.311,0.0,-6.1753,-6.141,0.0,0.0,-5.9168,-5.9102,-5.9069,-5.9205,-5.8523,-5.8251,-5.9011,-5.8283,-5.778,-5.778,-5.7171,-5.6833,-5.6934,-5.7002,-5.7306,-5.7848,-5.7881,-5.7881,-5.7881,-5.7881,-5.7881,-5.7881,-5.7881,-5.7881,-5.7881,-5.7881,-5.7881,-5.7881,-5.7983,-5.7983,-5.7881,-5.7983,-5.8017,-5.8017,-5.8017,-5.8829,-6.0182,-6.0994,-6.1366,-6.1501,-6.2144,-6.2381,-6.2381,-6.2381,-6.2381,-6.2381,-6.2381,-6.3396,-6.4715,-6.5358,-6.6136,-6.6812,-6.6812,-6.6812,-6.6812,-6.6812,-6.6812,-6.6812,-6.6812,-6.6812,-6.6812,-6.6812,-6.6812,-6.7015,-6.7658,-6.7827,-6.7658,-6.6948,-6.7354,-6.7557,-6.6914,-6.6812,-6.6812,-6.6812,-6.6812,-6.6812,-6.6812,-6.7387,-6.7793,-6.7895,-6.8538,-6.9282,-7.0026,-7.006,-7.0398,-7.1142,-7.1176,-7.0906,-7.0331,-7.0973,-7.0973,-7.0331,-7.0973,-7.1312,-7.1312,-7.1312,-7.1312,-6.6235,-6.6931,-6.7635,-6.7716,-6.7687,-6.7393,-6.6256,-6.5632,-6.5118,-6.442,0.0,0.0,0.0,0.0,0.0,0.0,-5.8835,-5.8654,-5.9127,-5.8491,-5.8218,-5.8934,-5.7625,-5.6799,-5.7205,-5.6968,-5.6968,-5.7408,-5.7036,-5.7137,-5.7848,-5.8321,-5.8558,-5.8558,-5.8558,-5.8558,-5.8558,-5.8118,-5.7881,-5.7881,-5.7881,-5.7881,-5.7881,-5.7881,-5.7881,-5.7881,-5.7881,-5.7881,-5.7915,-5.8355,-5.8896,-5.9573,-6.0825,-6.1569,-6.1975,-6.2279,-6.2381,-6.2381,-6.2381,-6.2381,-6.2516,-6.3396,-6.4106,-6.4816,-6.5967,-6.6542,-6.6812,-6.6812,-6.6812,-6.6812,-6.6812,-6.6812,-6.6812,-6.6812,-6.6812,-6.6812,-6.6812,-6.6812,-6.7015,-6.776,-6.8267,-6.8504,-6.8199,-6.7996,-6.7793,-6.7489,-6.7083,-6.6812,-6.6812,-6.7184,-6.7286,-6.6846,-6.7895,-6.8605,-6.8605,-6.9282,-7.006,-7.0804,-7.0838,-7.0973,-7.1312,-7.0906,-7.05,-7.0195,-7.05,-7.05,-7.0195,-7.0939,-7.1312,-7.1312,-7.1312,-7.1312,-6.4327,-6.5519,-6.6865,-6.6707,-6.6814,-6.6749,-6.5949,-6.5302,-6.483,-6.4612,-6.3948,0.0,0.0,0.0,-6.0232,-5.9608,0.0,-5.8736,-5.9179,-5.8492,-5.8142,-5.8651,-5.7281,-5.6528,-5.7036,-5.6934,-5.7036,-5.7543,-5.7103,-5.7036,-5.7577,-5.849,-5.9032,-5.9032,-5.9032,-5.9032,-5.9032,-5.8254,-5.7881,-5.7881,-5.7881,-5.7881,-5.7881,-5.7881,-5.7881,-5.7881,-5.7881,-5.7881,-5.7949,-5.8693,-5.9133,-5.9438,-6.0791,-6.1738,-6.2381,-6.2381,-6.2381,-6.2381,-6.2381,-6.2381,-6.255,-6.3632,-6.4275,-6.4816,-6.5865,-6.6508,-6.6812,-6.6812,-6.6812,-6.6812,-6.6812,-6.6812,-6.6812,-6.6812,-6.6812,-6.6812,-6.6812,-6.6812,-6.7015,-6.776,-6.8538,-6.918,-6.9383,-6.891,-6.847,-6.8267,-6.759,-6.7184,-6.7421,-6.7726,-6.7793,-6.7455,-6.8605,-6.9383,-6.9383,-7.006,-7.0737,-7.1278,-7.1312,-7.1312,-7.1312,-7.0804,-7.0398,-7.0195,-7.0398,-7.0398,-7.0195,-7.0939,-7.1312,-7.1312,-7.1312,-7.1312,-6.2218,-6.3428,-6.4923,-6.4176,-6.4566,-6.4852,-6.4076,-6.3863,-6.3651,-6.284,-6.2092,-6.1561,-6.153,-6.0892,-6.0392,0.0,-6.0331,0.0,0.0,-5.8487,-5.8038,-5.8038,-5.7909,-5.7814,-5.7848,-5.7205,-5.6799,-5.6833,-5.6799,-5.6799,-5.6833,-5.822,-5.9032,-5.9032,-5.9032,-5.9032,-5.9032,-5.8254,-5.7881,-5.7881,-5.7881,-5.7881,-5.7881,-5.7881,-5.7881,-5.7881,-5.7881,-5.7881,-5.7949,-5.8693,-5.9438,-6.0148,-6.0994,-6.1738,-6.2381,-6.2381,-6.2381,-6.2381,-6.2381,-6.2381,-6.2381,-6.2448,-6.3429,-6.4613,-6.4647,-6.5662,-6.6812,-6.6812,-6.6812,-6.6812,-6.6812,-6.6812,-6.6812,-6.6812,-6.6812,-6.6812,-6.6812,-6.6812,-6.7015,-6.776,-6.8538,-6.9316,-7.0026,-7.0128,-6.9857,-6.918,-6.8368,-6.8132,-6.8944,-6.8368,-6.8199,-6.8944,-6.9688,-7.0161,-7.0161,-7.0838,-7.1278,-7.1312,-7.1312,-7.1312,-7.1312,-7.1312,-7.0939,-7.0195,-7.0906,-7.0906,-7.0195,-7.0939,-7.1312,-7.1312,-7.1312,-7.1312,-6.1673,-6.3205,-6.4883,-6.469,-6.5212,-6.5566,-6.4787,-6.461,-6.4506,-6.4223,-6.3194,-6.2117,-6.1595,-6.0414,0.0,0.0,0.0,0.0,0.0,-5.7703,-5.7565,-5.8554,-5.8199,-5.7509,-5.6562,-5.6224,-5.6089,-5.6089,-5.6089,-5.6494,-5.7476,-5.893,-5.9979,-6.052,-6.052,-6.0283,-5.9742,-5.8998,-5.8389,-5.7881,-5.7881,-5.7881,-5.7881,-5.7881,-5.7881,-5.7881,-5.7881,-5.8186,-5.8693,-5.9438,-6.0182,-6.096,-6.1738,-6.2178,-6.2381,-6.2381,-6.2381,-6.2381,-6.2381,-6.2381,-6.2482,-6.2956,-6.3802,-6.4681,-6.5189,-6.6034,-6.6812,-6.6812,-6.6812,-6.6812,-6.6812,-6.6812,-6.6812,-6.6812,-6.6812,-6.6812,-6.6812,-6.7184,-6.776,-6.8538,-6.9316,-7.006,-7.0804,-7.0939,-7.0669,-6.9925,-6.918,-6.8808,-6.9079,-6.9282,-6.935,-6.9113,-7.0195,-7.0737,-7.0229,-7.0872,-7.1312,-7.1312,-7.1312,-7.1312,-7.1312,-7.0838,-7.0432,-7.0195,-7.0432,-7.0432,-7.0195,-7.0939,-7.1312,-7.1312,-7.1312,-7.1312,-6.0655,-6.2279,-6.3942,-6.3763,-6.4252,-6.4636,-6.3869,-6.3904,-6.4078,-6.4078,-6.2857,-6.1779,-6.1802,-6.0112,0.0,0.0,0.0,0.0,0.0,-5.7476,-5.7543,-5.849,-5.8186,-5.7611,-5.6968,-5.6427,-5.5987,-5.575,-5.5953,-5.6528,-5.7442,-5.9167,-6.0486,-6.1264,-6.1298,-6.1061,-6.052,-5.9505,-5.8761,-5.8287,-5.8017,-5.7881,-5.7881,-5.7881,-5.7881,-5.7881,-5.7881,-5.8152,-5.866,-5.9404,-6.0182,-6.096,-6.1704,-6.2144,-6.2381,-6.2381,-6.2381,-6.2381,-6.2381,-6.2381,-6.2482,-6.2956,-6.3802,-6.4681,-6.5155,-6.6,-6.6779,-6.6474,-6.6609,-6.6745,-6.6474,-6.6609,-6.6812,-6.6812,-6.6812,-6.688,-6.7151,-6.7557,-6.8132,-6.8944,-6.9688,-7.0331,-7.0838,-7.1142,-7.1142,-7.0669,-6.9958,-6.9586,-6.9857,-7.006,-7.0094,-6.9925,-7.0737,-7.1109,-7.0635,-7.1041,-7.1312,-7.1312,-7.1312,-7.1312,-7.1312,-7.0838,-7.0838,-7.1345,-7.0838,-7.0838,-7.1345,-7.1312,-7.1312,-7.1312,-7.1312,-7.1312]},{"header":{"parameterUnit":"m.s-1","parameterCategory":1,"la1":30.6,"la2":29.2853,"lo1":-89.7004,"lo2":-87.6739,"dy":0.0162,"dx":0.0183,"nx":112,"ny":82,"refTime":"2023-04-03T18:00:00:Z","depth":0,"parameterNumber":3,"parameterNumberName":"V-component_of_WINDS"},"data":[0.0,0.0,0.0,0.0,0.0,0.0,0.0,0.0,0.0,0.0,0.0,0.0,0.0,0.0,0.0,0.0,0.0,0.0,0.0,0.0,0.0,0.0,0.0,0.0,0.0,0.0,0.0,0.0,0.0,0.0,0.0,0.0,0.0,0.0,0.0,0.0,0.0,0.0,0.0,0.0,0.0,0.0,0.0,0.0,0.0,0.0,0.0,0.0,0.0,0.0,0.0,0.0,0.0,0.0,0.0,0.0,0.0,0.0,0.0,0.0,0.0,0.0,0.0,0.0,0.0,0.0,0.0,0.0,0.0,0.0,0.0,0.0,0.0,0.0,0.0,0.0,0.0,0.0,0.0,0.0,0.0,0.0,0.0,0.0,0.0,0.0,0.0,0.0,0.0,0.0,2.5424,2.6667,2.8978,3.0287,2.994,3.0326,2.9984,2.8611,0.0,0.0,0.0,0.0,0.0,0.0,0.0,0.0,0.0,0.0,0.0,0.0,0.0,0.0,0.0,0.0,0.0,0.0,0.0,0.0,0.0,0.0,0.0,0.0,0.0,0.0,0.0,0.0,0.0,0.0,0.0,0.0,0.0,0.0,0.0,0.0,0.0,0.0,0.0,0.0,0.0,0.0,0.0,0.0,0.0,0.0,0.0,0.0,0.0,0.0,0.0,0.0,0.0,0.0,0.0,0.0,0.0,0.0,0.0,0.0,0.0,0.0,0.0,0.0,0.0,0.0,0.0,0.0,0.0,0.0,0.0,0.0,0.0,0.0,0.0,0.0,0.0,0.0,0.0,0.0,0.0,0.0,0.0,0.0,0.0,0.0,0.0,0.0,0.0,0.0,0.0,0.0,0.0,0.0,0.0,0.0,0.0,0.0,0.0,0.0,0.0,0.0,0.0,0.0,2.5438,2.8323,2.9887,3.0515,2.9967,3.0722,3.0986,3.0304,0.0,0.0,0.0,0.0,0.0,0.0,0.0,0.0,0.0,0.0,0.0,0.0,0.0,0.0,0.0,0.0,0.0,0.0,0.0,0.0,0.0,0.0,0.0,0.0,0.0,0.0,0.0,0.0,0.0,0.0,0.0,0.0,0.0,0.0,0.0,0.0,0.0,0.0,0.0,0.0,0.0,0.0,0.0,0.0,0.0,0.0,0.0,0.0,0.0,0.0,0.0,0.0,0.0,0.0,0.0,0.0,0.0,0.0,0.0,0.0,0.0,0.0,0.0,0.0,0.0,0.0,0.0,0.0,0.0,0.0,0.0,0.0,0.0,0.0,0.0,0.0,0.0,0.0,0.0,0.0,0.0,0.0,0.0,0.0,0.0,0.0,0.0,0.0,0.0,0.0,0.0,0.0,0.0,0.0,0.0,0.0,0.0,0.0,0.0,0.0,0.0,0.0,0.0,2.6712,2.7762,2.9165,3.216,3.3368,3.1606,3.2804,3.3242,3.2159,2.9771,0.0,0.0,0.0,0.0,0.0,0.0,0.0,0.0,0.0,0.0,0.0,0.0,0.0,0.0,0.0,0.0,0.0,0.0,0.0,0.0,0.0,0.0,0.0,0.0,0.0,0.0,0.0,0.0,0.0,0.0,0.0,0.0,0.0,0.0,0.0,0.0,0.0,0.0,0.0,0.0,0.0,0.0,0.0,0.0,0.0,0.0,0.0,0.0,0.0,0.0,0.0,0.0,0.0,0.0,0.0,0.0,0.0,0.0,0.0,0.0,0.0,0.0,0.0,0.0,0.0,0.0,0.0,0.0,0.0,0.0,0.0,0.0,0.0,0.0,0.0,0.0,0.0,0.0,0.0,0.0,0.0,0.0,0.0,0.0,0.0,0.0,0.0,0.0,0.0,0.0,0.0,0.0,0.0,0.0,0.0,0.0,0.0,0.0,0.0,0.0,0.0,0.0,2.9822,3.0922,3.0865,3.4306,3.566,3.345,3.4795,3.5025,3.3376,3.2001,0.0,0.0,0.0,0.0,0.0,0.0,0.0,0.0,0.0,0.0,0.0,0.0,0.0,0.0,0.0,0.0,0.0,0.0,0.0,0.0,0.0,0.0,0.0,0.0,0.0,0.0,0.0,0.0,0.0,0.0,0.0,0.0,0.0,0.0,0.0,0.0,0.0,0.0,0.0,0.0,0.0,0.0,0.0,0.0,0.0,0.0,0.0,0.0,0.0,0.0,0.0,0.0,0.0,0.0,0.0,0.0,0.0,0.0,0.0,0.0,0.0,0.0,0.0,0.0,0.0,0.0,0.0,0.0,0.0,0.0,0.0,0.0,0.0,0.0,0.0,0.0,0.0,0.0,0.0,0.0,0.0,0.0,0.0,0.0,0.0,0.0,0.0,0.0,0.0,0.0,0.0,0.0,0.0,0.0,0.0,0.0,0.0,0.0,0.0,0.0,0.0,0.0,3.1601,3.4294,3.4635,3.5553,3.5769,3.4997,3.545,3.4922,3.2983,3.3452,0.0,0.0,0.0,0.0,0.0,0.0,0.0,0.0,0.0,0.0,0.0,0.0,0.0,0.0,0.0,0.0,0.0,0.0,0.0,0.0,0.0,0.0,0.0,0.0,0.0,0.0,0.0,0.0,0.0,0.0,0.0,0.0,0.0,0.0,0.0,0.0,0.0,0.0,0.0,0.0,0.0,0.0,0.0,0.0,0.0,0.0,0.0,0.0,0.0,0.0,0.0,0.0,0.0,0.0,0.0,0.0,0.0,0.0,0.0,0.0,0.0,0.0,0.0,0.0,0.0,0.0,0.0,0.0,0.0,0.0,0.0,0.0,0.0,0.0,0.0,0.0,0.0,0.0,0.0,0.0,0.0,0.0,0.0,0.0,0.0,0.0,0.0,0.0,0.0,0.0,0.0,0.0,0.0,0.0,0.0,0.0,0.0,0.0,0.0,0.0,0.0,0.0,3.3794,3.5642,3.5163,3.8042,3.925,3.7294,3.8126,3.7593,3.4966,0.0,0.0,0.0,0.0,0.0,0.0,0.0,0.0,0.0,0.0,0.0,0.0,0.0,0.0,0.0,0.0,0.0,0.0,0.0,0.0,0.0,0.0,0.0,0.0,0.0,0.0,0.0,0.0,0.0,0.0,0.0,0.0,0.0,0.0,0.0,0.0,0.0,0.0,0.0,0.0,0.0,0.0,0.0,0.0,0.0,0.0,0.0,0.0,0.0,0.0,0.0,0.0,0.0,0.0,0.0,0.0,0.0,0.0,0.0,0.0,0.0,0.0,0.0,0.0,0.0,0.0,0.0,0.0,0.0,0.0,0.0,0.0,0.0,0.0,0.0,0.0,0.0,0.0,0.0,0.0,0.0,0.0,0.0,0.0,0.0,0.0,0.0,0.0,0.0,0.0,0.0,0.0,0.0,0.0,0.0,0.0,0.0,0.0,0.0,0.0,0.0,0.0,3.299,3.576,3.7466,3.7105,4.0029,4.1183,3.9202,3.9147,3.8301,3.5976,0.0,0.0,0.0,0.0,0.0,0.0,0.0,0.0,0.0,0.0,0.0,0.0,0.0,0.0,0.0,0.0,0.0,0.0,0.0,0.0,0.0,0.0,0.0,0.0,0.0,0.0,0.0,0.0,0.0,0.0,0.0,0.0,0.0,0.0,0.0,0.0,0.0,0.0,0.0,0.0,0.0,0.0,0.0,0.0,0.0,0.0,0.0,0.0,0.0,0.0,0.0,0.0,0.0,0.0,0.0,0.0,0.0,0.0,0.0,0.0,0.0,0.0,0.0,0.0,0.0,0.0,0.0,0.0,0.0,0.0,0.0,0.0,0.0,0.0,0.0,0.0,0.0,0.0,0.0,0.0,0.0,0.0,0.0,0.0,0.0,0.0,0.0,0.0,0.0,0.0,0.0,0.0,0.0,0.0,0.0,0.0,0.0,0.0,0.0,0.0,0.0,0.0,3.3702,3.7299,4.0215,4.1074,4.1172,4.0996,4.0547,3.8144,3.6309,0.0,0.0,0.0,0.0,0.0,0.0,0.0,0.0,0.0,0.0,0.0,0.0,0.0,0.0,0.0,0.0,0.0,0.0,0.0,0.0,0.0,0.0,0.0,0.0,0.0,0.0,0.0,0.0,0.0,0.0,0.0,0.0,0.0,0.0,0.0,0.0,0.0,0.0,0.0,0.0,0.0,0.0,0.0,0.0,0.0,0.0,0.0,0.0,0.0,0.0,0.0,0.0,0.0,0.0,0.0,0.0,0.0,0.0,0.0,0.0,0.0,0.0,0.0,0.0,0.0,0.0,0.0,0.0,0.0,0.0,0.0,0.0,0.0,0.0,0.0,0.0,0.0,0.0,0.0,0.0,0.0,0.0,0.0,0.0,0.0,0.0,0.0,0.0,0.0,0.0,0.0,0.0,0.0,0.0,0.0,0.0,0.0,0.0,0.0,0.0,0.0,0.0,0.0,3.5229,3.7701,3.9863,4.1055,4.0898,4.0547,4.0117,3.7988,3.6172,3.498,0.0,0.0,0.0,0.0,0.0,0.0,0.0,0.0,0.0,0.0,0.0,0.0,0.0,0.0,0.0,0.0,0.0,0.0,0.0,0.0,0.0,0.0,0.0,0.0,0.0,0.0,0.0,0.0,0.0,0.0,0.0,0.0,0.0,0.0,0.0,0.0,0.0,0.0,0.0,0.0,0.0,0.0,0.0,0.0,0.0,0.0,0.0,0.0,0.0,0.0,0.0,0.0,0.0,0.0,0.0,0.0,0.0,0.0,0.0,0.0,0.0,0.0,0.0,0.0,0.0,0.0,0.0,0.0,0.0,0.0,0.0,0.0,0.0,0.0,0.0,0.0,0.0,0.0,0.0,0.0,0.0,0.0,0.0,0.0,0.0,0.0,0.0,0.0,0.0,0.0,0.0,0.0,0.0,0.0,0.0,0.0,0.0,0.0,0.0,0.0,0.0,0.0,3.5625,3.7637,3.9394,4.0547,4.043,4.0019,3.9414,3.7715,3.6035,3.4551,0.0,0.0,0.0,0.0,0.0,0.0,0.0,0.0,0.0,0.0,0.0,0.0,0.0,0.0,0.0,0.0,0.0,0.0,0.0,0.0,0.0,0.0,0.0,0.0,0.0,0.0,0.0,0.0,0.0,0.0,0.0,0.0,0.0,0.0,0.0,0.0,0.0,0.0,0.0,0.0,0.0,0.0,0.0,0.0,0.0,0.0,0.0,0.0,0.0,0.0,0.0,0.0,0.0,0.0,0.0,0.0,0.0,0.0,0.0,0.0,0.0,0.0,0.0,0.0,0.0,0.0,0.0,0.0,0.0,0.0,0.0,0.0,0.0,0.0,0.0,0.0,0.0,0.0,0.0,0.0,0.0,0.0,0.0,0.0,0.0,0.0,0.0,0.0,0.0,0.0,0.0,0.0,0.0,0.0,0.0,0.0,0.0,0.0,0.0,0.0,0.0,0.0,3.5273,3.7187,3.8828,3.9785,3.9824,3.9434,3.8594,3.7266,3.5781,3.4121,0.0,0.0,0.0,0.0,0.0,0.0,0.0,0.0,0.0,0.0,0.0,0.0,0.0,0.0,0.0,0.0,0.0,0.0,0.0,0.0,0.0,0.0,0.0,0.0,0.0,0.0,0.0,0.0,0.0,0.0,0.0,0.0,0.0,0.0,0.0,0.0,0.0,0.0,0.0,0.0,0.0,0.0,0.0,0.0,0.0,0.0,0.0,0.0,0.0,0.0,0.0,0.0,0.0,0.0,0.0,0.0,0.0,0.0,0.0,0.0,2.7081,2.7589,0.0,0.0,0.0,0.0,0.0,0.0,0.0,0.0,0.0,0.0,0.0,0.0,0.0,0.0,0.0,0.0,0.0,0.0,0.0,0.0,0.0,0.0,0.0,0.0,0.0,0.0,0.0,0.0,0.0,0.0,0.0,0.0,0.0,0.0,0.0,0.0,0.0,0.0,0.0,0.0,3.5195,3.666,3.8164,3.9726,3.9277,3.8633,3.8105,3.625,3.4668,3.3633,3.2363,0.0,0.0,0.0,0.0,0.0,0.0,0.0,0.0,0.0,0.0,0.0,0.0,0.0,0.0,0.0,0.0,0.0,0.0,0.0,0.0,0.0,0.0,0.0,0.0,0.0,0.0,0.0,0.0,0.0,0.0,0.0,0.0,0.0,0.0,0.0,0.0,0.0,0.0,0.0,0.0,0.0,0.0,0.0,0.0,0.0,0.0,0.0,0.0,0.0,0.0,0.0,0.0,0.0,0.0,0.0,0.0,0.0,0.0,0.0,2.7094,2.7161,0.0,0.0,0.0,0.0,0.0,0.0,0.0,0.0,0.0,0.0,0.0,0.0,0.0,0.0,0.0,0.0,0.0,0.0,0.0,0.0,0.0,0.0,0.0,0.0,0.0,0.0,0.0,0.0,0.0,0.0,0.0,0.0,0.0,0.0,0.0,0.0,0.0,0.0,0.0,0.0,3.459,3.5879,3.7187,3.8496,3.8242,3.7793,3.7363,3.5918,3.457,3.3496,3.2422,0.0,0.0,0.0,0.0,0.0,0.0,0.0,0.0,0.0,0.0,0.0,0.0,0.0,0.0,0.0,0.0,0.0,0.0,0.0,0.0,0.0,0.0,0.0,0.0,0.0,0.0,0.0,0.0,0.0,0.0,0.0,0.0,0.0,0.0,0.0,0.0,0.0,0.0,0.0,0.0,0.0,0.0,0.0,0.0,0.0,0.0,0.0,0.0,0.0,0.0,0.0,0.0,0.0,2.6653,2.7001,2.7551,2.9392,2.9115,2.7269,2.7636,2.7456,2.6721,2.7703,0.0,0.0,0.0,0.0,0.0,0.0,0.0,0.0,0.0,0.0,0.0,0.0,0.0,0.0,0.0,0.0,0.0,0.0,0.0,0.0,0.0,0.0,3.2472,3.2801,3.353,3.3733,3.1985,0.0,0.0,0.0,0.0,0.0,0.0,0.0,0.0,0.0,0.0,0.0,3.3945,3.5156,3.6269,3.7207,3.7226,3.7051,3.6699,3.582,3.4746,3.3496,3.2637,3.1777,0.0,0.0,0.0,0.0,0.0,0.0,0.0,0.0,0.0,0.0,0.0,0.0,0.0,0.0,0.0,0.0,0.0,0.0,0.0,0.0,0.0,0.0,0.0,0.0,0.0,0.0,0.0,0.0,0.0,0.0,0.0,0.0,2.5424,2.5504,0.0,0.0,0.0,0.0,0.0,0.0,0.0,0.0,0.0,0.0,0.0,0.0,0.0,2.656,2.7028,2.6814,2.6734,2.676,2.6547,2.6493,2.656,2.6878,2.6986,2.6975,2.9114,0.0,2.9365,2.9448,0.0,0.0,0.0,0.0,0.0,0.0,0.0,0.0,0.0,0.0,0.0,0.0,0.0,0.0,0.0,0.0,0.0,0.0,0.0,0.0,0.0,0.0,3.4379,3.4437,3.4491,3.4349,3.3334,3.3306,3.3496,3.3437,3.2441,3.1601,0.0,0.0,0.0,0.0,0.0,0.0,3.3906,3.4902,3.5937,3.7168,3.6973,3.6738,3.668,3.5508,3.4394,3.3476,3.2637,3.1777,3.0918,3.084,0.0,0.0,0.0,0.0,0.0,0.0,0.0,0.0,0.0,0.0,0.0,0.0,0.0,0.0,0.0,0.0,0.0,0.0,0.0,0.0,0.0,0.0,0.0,0.0,0.0,0.0,0.0,0.0,0.0,2.5504,2.5879,2.5558,2.6172,2.6333,0.0,0.0,0.0,0.0,0.0,0.0,0.0,0.0,0.0,2.6613,2.6627,2.668,2.6774,2.68,2.6907,2.7068,2.7108,2.7215,2.7457,2.991,2.9755,2.781,3.2583,3.3736,3.2205,3.2016,3.1606,3.1211,0.0,0.0,0.0,0.0,3.1264,3.225,3.2518,3.3428,3.4321,3.3977,0.0,0.0,0.0,0.0,0.0,0.0,0.0,3.5019,3.4766,3.5059,3.5391,3.5137,3.5078,3.498,3.4609,3.3945,3.3281,3.2812,3.2461,3.209,3.1601,3.1172,0.0,0.0,0.0,3.2539,3.3574,3.4473,3.541,3.6465,3.6406,3.6211,3.5976,3.5176,3.4238,3.3144,3.25,3.1777,3.0918,3.0898,3.0762,0.0,0.0,0.0,0.0,0.0,0.0,0.0,0.0,0.0,0.0,0.0,0.0,0.0,0.0,0.0,0.0,0.0,0.0,0.0,0.0,0.0,0.0,0.0,0.0,0.0,0.0,0.0,0.0,2.5625,2.6092,2.5571,2.6293,2.6453,0.0,0.0,0.0,0.0,0.0,0.0,2.6146,2.6319,2.656,2.6921,2.7014,2.7324,2.7806,2.7554,2.7784,2.8482,2.8149,2.8325,2.9118,3.1805,3.1572,2.9286,3.4732,3.5949,3.4222,3.4312,3.3949,3.3221,3.3255,3.2609,3.1754,3.2401,3.3591,3.4921,3.4864,3.5873,3.7031,3.6387,3.5898,3.541,3.4609,0.0,0.0,0.0,0.0,3.5019,3.4902,3.5371,3.5801,3.5605,3.5469,3.5351,3.5234,3.4453,3.3496,3.2656,3.2559,3.2402,3.1641,3.125,0.0,3.1055,3.1699,3.248,3.332,3.4082,3.4824,3.5605,3.5684,3.5566,3.5234,3.4805,3.4043,3.2871,3.2402,3.1777,3.0918,3.0898,3.0723,3.0391,0.0,0.0,0.0,0.0,0.0,0.0,0.0,0.0,0.0,0.0,0.0,0.0,0.0,0.0,0.0,0.0,0.0,0.0,0.0,0.0,0.0,0.0,0.0,0.0,0.0,0.0,0.0,0.0,0.0,2.5545,2.6293,0.0,0.0,0.0,0.0,2.5932,2.64,2.6734,2.6774,2.6533,2.6653,2.7228,2.7509,2.8966,3.1667,2.9854,2.9868,3.1727,2.9618,2.948,3.1159,2.937,2.9523,3.1392,3.3839,3.4813,3.473,3.5939,3.6533,3.652,3.6178,3.4765,3.3209,3.4724,3.5114,3.5048,3.6182,3.663,3.6699,3.666,3.6348,3.5684,3.3984,3.3769,0.0,0.0,3.4121,3.4316,3.5156,3.5391,3.5527,3.5898,3.5684,3.5273,3.4824,3.4687,3.4375,3.3535,3.2734,3.2051,3.1601,0.0,3.1484,3.1484,3.1875,3.248,3.332,3.3828,3.4277,3.4726,3.4766,3.4766,3.4726,3.4336,3.373,3.2851,3.2402,3.1777,3.0918,3.0898,3.0879,3.0859,3.0019,0.0,0.0,0.0,0.0,0.0,0.0,0.0,0.0,0.0,0.0,0.0,0.0,0.0,0.0,0.0,0.0,0.0,0.0,0.0,0.0,0.0,0.0,0.0,0.0,0.0,0.0,0.0,0.0,2.7148,2.7655,0.0,2.6841,2.68,2.6734,2.6533,2.6533,2.6787,2.7362,2.8903,2.9125,2.7899,2.979,3.0481,2.9844,3.0439,3.1175,3.187,3.0854,3.1631,3.3848,3.3104,3.3187,3.4095,3.7694,3.8308,3.6904,3.8803,3.926,3.8747,3.8291,3.7502,3.6683,3.6953,3.7115,3.728,3.7462,3.748,3.7344,3.6523,3.5762,3.5059,3.4434,3.4355,3.4473,3.4473,3.4687,3.5,3.5312,3.5586,3.584,3.5996,3.5703,3.5351,3.5176,3.4687,3.4199,3.3906,3.3379,3.2754,3.2051,3.1934,3.1934,3.1934,3.2305,3.2773,3.334,3.3809,3.4238,3.4648,3.4707,3.459,3.4316,3.3906,3.3301,3.2441,3.1992,3.1484,3.0918,3.0605,3.0312,3.0039,2.9453,2.9023,0.0,0.0,0.0,0.0,0.0,0.0,0.0,0.0,0.0,0.0,0.0,0.0,0.0,0.0,0.0,0.0,0.0,0.0,0.0,0.0,0.0,0.0,0.0,0.0,0.0,2.68,2.7642,2.823,2.8657,2.8671,2.8056,2.7829,2.7642,2.7442,2.7428,2.7602,2.7989,3.0303,3.0988,2.9523,3.2194,3.2783,3.1078,3.1845,3.2432,3.2958,3.1994,3.3176,3.6157,3.5407,3.5488,3.632,3.9191,3.9538,3.8054,4.0275,4.084,4.0293,4.0,3.9609,3.9199,3.8906,3.8789,3.873,3.8301,3.7949,3.7559,3.6562,3.5644,3.4902,3.4746,3.4707,3.4726,3.4883,3.5156,3.543,3.5566,3.5801,3.5996,3.584,3.5469,3.5117,3.498,3.4375,3.3848,3.3848,3.3613,3.3203,3.25,3.2383,3.2383,3.2383,3.2617,3.2949,3.3379,3.3672,3.3965,3.4238,3.4141,3.3945,3.3672,3.3242,3.2637,3.1797,3.1465,3.1055,3.0469,3.0293,3.0059,2.9785,2.9355,2.8867,2.8301,0.0,0.0,0.0,0.0,0.0,0.0,0.0,0.0,0.0,0.0,0.0,0.0,0.0,0.0,0.0,0.0,0.0,0.0,0.0,0.0,0.0,0.0,0.0,2.5985,2.7522,2.8631,2.8671,2.9179,2.9299,2.8738,2.9266,2.936,2.8698,2.9253,2.932,2.8757,3.0778,3.1984,3.2137,3.4558,3.5824,3.5891,3.4081,3.3909,3.5361,3.3125,3.4095,3.7914,3.5816,3.5977,3.7993,3.7993,3.7993,3.8152,4.0353,4.1172,4.1172,4.1172,4.0918,4.0547,4.0527,3.9961,3.9141,3.8711,3.8008,3.7226,3.6816,3.6094,3.5332,3.4883,3.4746,3.4824,3.5293,3.541,3.5508,3.5918,3.6016,3.5918,3.5488,3.5039,3.459,3.416,3.373,3.3418,3.3418,3.3418,3.3301,3.2891,3.2812,3.2812,3.2812,3.2812,0.0,3.3359,3.3398,3.3398,3.3398,3.3047,3.2793,3.2793,3.2402,3.1797,3.0937,3.0859,3.0469,2.9609,2.9941,3.0156,3.0137,2.9746,2.9121,2.8301,0.0,0.0,0.0,0.0,0.0,0.0,0.0,0.0,0.0,0.0,0.0,0.0,0.0,0.0,0.0,0.0,0.0,0.0,0.0,0.0,0.0,2.6453,2.7537,2.7618,2.8337,2.9232,3.0087,3.0327,3.0368,3.0207,3.1718,3.1962,3.0066,3.1257,3.2062,3.2033,3.4026,3.5016,3.4825,3.7535,3.818,3.6306,3.7233,3.7799,3.7989,3.7037,3.8096,4.0636,3.8489,3.865,4.0715,4.0715,4.0543,4.0353,4.0919,4.1172,4.1172,4.1172,4.1094,4.0957,4.0644,3.9961,3.9101,3.8359,3.7754,3.7226,3.6816,3.6289,3.582,3.5684,3.5664,3.5684,3.582,3.5859,3.5879,3.5996,3.6016,3.5918,3.5488,3.5039,3.459,3.416,3.373,3.3418,3.3418,3.3418,3.3379,3.3262,3.3242,3.3242,3.3242,3.3242,3.3184,3.2988,3.2969,3.2969,3.2969,3.2871,3.2793,3.2793,3.2109,3.1465,3.0918,3.0293,2.9824,2.9646,2.9375,2.9121,2.8828,2.8711,2.8535,0.0,0.0,0.0,0.0,0.0,0.0,0.0,0.0,0.0,0.0,0.0,0.0,0.0,0.0,0.0,0.0,0.0,0.0,0.0,0.0,0.0,0.0,2.7562,2.8644,2.9499,2.9806,3.0247,3.1062,3.1263,3.1396,3.1517,3.2418,3.2873,3.2521,3.3173,3.3983,3.4853,3.674,3.7772,3.7804,4.0196,4.0425,3.8149,3.9152,3.9465,3.9068,3.8671,3.9634,4.1718,4.03,4.0303,4.1543,4.1543,4.1406,4.1172,4.1172,4.1172,4.1172,0.0,0.0,0.0,0.0,3.9805,3.9101,3.8437,3.7812,3.7266,3.7012,3.6523,3.6016,3.6016,3.6016,3.6016,3.6016,3.6016,3.6016,3.6016,3.6016,3.5918,3.5488,3.5039,3.459,3.416,3.373,3.3379,3.3184,3.3301,0.0,3.2949,3.3184,3.3418,3.3418,3.3281,3.3066,3.2832,3.2637,3.2539,3.2539,3.2363,3.2266,3.2266,3.1465,0.0,0.0,0.0,2.9297,2.9297,2.9062,0.0,0.0,0.0,2.8476,2.8301,2.8301,0.0,0.0,2.8301,2.8301,0.0,0.0,0.0,0.0,0.0,0.0,0.0,0.0,0.0,0.0,0.0,0.0,0.0,0.0,0.0,0.0,2.8778,2.9566,3.145,3.1543,3.1503,3.1744,3.1971,3.2211,3.2465,3.2586,3.3351,3.5152,3.5243,3.5859,3.7428,3.8895,0.0,0.0,0.0,4.2474,4.0958,4.049,4.007,3.9632,3.9149,3.993,4.1777,4.1367,4.1172,4.1172,4.1172,4.1172,4.1172,4.1172,4.1172,4.1172,4.1172,4.1152,4.0996,4.0195,3.9609,3.9121,3.8613,0.0,0.0,3.7187,3.6641,3.6016,3.6016,3.6016,3.6016,3.6016,3.6016,3.6016,3.6016,3.5996,3.584,3.541,3.4961,3.4492,3.4023,3.3652,3.3281,3.2812,3.3105,3.3164,3.2383,3.2851,3.334,3.3281,3.2969,3.2715,3.2656,3.2324,3.209,3.209,3.1758,0.0,3.1523,3.0762,3.0078,2.9646,2.9121,2.8848,2.8848,2.8848,2.8848,2.8848,2.8848,2.8672,2.8301,2.8301,2.8301,2.8301,2.8301,2.8301,0.0,0.0,0.0,0.0,0.0,0.0,0.0,0.0,0.0,0.0,0.0,0.0,0.0,0.0,0.0,2.8497,2.9793,3.1022,3.1891,3.2372,3.2572,3.2398,3.2211,3.2131,3.2185,3.5802,3.7273,3.5431,3.8935,4.0983,4.0575,4.0597,4.1542,4.3568,4.4013,4.4013,4.3652,4.3575,4.3131,4.2341,4.1837,0.0,4.1777,4.1367,4.1172,4.1172,4.1172,4.1172,4.1172,4.1172,4.1172,4.1172,4.1172,4.0957,4.0586,4.0078,3.9609,3.9043,3.793,3.7441,3.7187,3.6484,3.6152,3.6016,3.6016,3.6016,0.0,3.6016,3.6016,3.6016,3.6016,3.5762,3.5391,3.4941,3.4512,3.3984,3.3203,3.3242,3.3203,3.2441,3.291,3.3262,3.2754,3.2812,3.2793,3.2461,3.2344,3.2168,3.1816,3.1699,3.1641,3.1641,3.1562,3.1523,3.1523,3.1055,3.041,2.9685,2.8848,2.8418,2.8418,2.8418,2.8418,2.8418,2.8418,2.8379,2.8301,2.8301,2.8301,2.8301,2.8301,2.8301,0.0,0.0,0.0,0.0,0.0,0.0,0.0,0.0,0.0,0.0,0.0,2.6386,2.6386,0.0,2.9152,3.0194,3.1089,3.1917,3.2652,3.2879,3.2919,3.2786,3.2639,3.2599,3.2746,3.5978,3.7382,3.5832,4.0106,4.2369,4.1704,4.2352,4.3253,4.4622,4.4277,4.416,4.4394,4.416,4.3828,4.3379,4.2734,4.2324,4.209,4.1465,4.1172,4.1172,4.1172,4.1172,4.1172,4.1172,4.1172,4.1152,4.0937,4.0586,4.0176,3.998,3.9473,3.8789,3.8164,3.7656,3.7226,3.6797,3.6367,3.6016,3.6016,3.6016,3.6016,3.6016,3.6016,3.6016,3.6016,3.5703,3.5332,3.5098,3.4551,3.3965,3.3535,3.3418,3.3242,3.2598,3.2812,3.291,3.2266,3.2148,3.2226,3.2441,3.2109,3.1758,3.1543,3.1328,3.1211,3.1211,3.1211,3.1211,3.1211,3.0801,3.0273,2.9665,2.8965,2.8613,2.8613,2.8398,2.8301,2.8301,2.8301,2.8301,2.8301,2.8301,2.8301,2.8301,2.8301,2.8301,0.0,0.0,0.0,0.0,0.0,0.0,0.0,2.477,2.5157,2.5518,2.652,2.7562,2.827,2.9232,3.0394,3.1864,3.2198,3.2545,3.3307,3.3213,3.3066,3.3066,3.3013,3.3264,3.3977,3.5565,3.6627,3.6872,4.0576,4.2621,4.1992,4.3605,4.4687,4.5019,4.4258,4.4023,4.4394,4.3926,4.3672,4.3574,4.2715,4.2305,4.2285,4.1523,4.1172,4.1172,4.1172,4.1172,4.1172,4.1172,4.1133,4.1016,4.0664,4.0215,3.9766,3.9766,3.9258,3.8555,3.8379,3.7871,3.7266,3.7109,3.6582,3.6016,3.6016,3.6016,3.6016,3.6016,3.6016,3.5996,3.5918,3.5586,3.5234,3.5156,3.4531,3.3926,3.3848,3.3613,3.3281,3.2773,3.2734,3.2559,3.1777,3.1562,3.1719,3.2324,3.1836,3.1406,3.1406,3.1094,3.0898,3.0898,3.0898,3.0898,3.0898,3.0469,3.0059,2.9707,2.9199,2.8926,2.8926,2.8516,2.8301,2.8301,2.8301,2.8301,2.8301,2.8379,2.8379,2.8301,2.8379,2.8379,2.4396,2.4249,2.4462,2.5104,2.5144,2.5358,0.0,2.672,2.6734,2.7295,2.835,2.9219,2.9312,3.0474,3.157,3.2024,3.2545,3.3013,3.336,3.3387,3.336,3.336,3.3133,3.3945,3.628,3.6691,3.7544,3.9063,4.1948,4.3108,4.201,4.387,4.498,4.5019,4.457,4.4355,4.4394,4.3926,4.3516,4.3144,4.2285,4.1875,4.1855,4.1387,4.1172,4.1172,4.1172,4.1172,4.1172,4.1172,4.0937,4.0586,4.0547,4.0019,3.9277,3.9277,3.8984,3.8457,3.7695,3.7383,3.7168,3.6406,3.6094,3.6016,3.6016,3.6016,3.6016,3.6016,3.6016,3.5937,3.5566,3.5117,3.4687,3.4316,3.3848,3.3398,3.3027,3.3184,3.3184,3.2383,3.2539,3.2656,3.2168,3.1777,3.1426,3.1152,3.1016,3.0957,3.0957,3.0918,3.0898,3.0898,3.0898,3.0898,3.0898,3.0469,3.0176,3.0137,2.9375,2.8926,2.8926,2.8516,2.8301,2.8301,2.8301,2.8301,2.8301,2.8672,2.8652,2.8301,2.8672,2.8652,2.4409,2.4449,2.4676,2.4543,2.505,2.5758,2.636,2.68,2.7348,2.8283,2.9553,3.0608,3.0942,3.1784,3.2532,3.2812,3.3066,3.328,3.3387,3.467,3.5506,3.4954,3.6386,3.7348,3.7155,3.8345,3.9354,3.9868,4.2115,4.3054,4.201,4.3908,4.4785,4.4277,4.3848,4.3516,4.3262,4.3066,4.2871,4.2695,4.209,4.1797,4.1777,4.1367,4.1172,4.1172,4.1172,4.1172,4.1172,4.1172,4.0918,4.0508,4.0254,3.9766,3.9199,3.9199,3.8769,3.8144,3.7793,3.7344,3.6875,3.6523,3.623,3.6016,3.6016,3.6016,3.5976,3.5723,3.5664,3.5547,3.5098,3.4668,3.4297,3.4121,3.375,3.3379,3.3203,3.3105,3.2949,3.2598,3.2285,3.1992,3.1816,3.1445,3.1094,3.0918,3.0898,3.0898,3.0898,3.0898,3.0898,3.0898,3.0898,3.0898,3.0898,3.0703,3.0605,3.0605,3.0019,2.9551,2.9316,2.8887,2.8535,2.8301,2.8535,2.8535,2.8301,2.8711,2.8711,2.8301,2.8476,2.8457,2.4329,2.4569,2.4903,2.4676,2.5531,2.6507,2.6747,2.7428,2.8283,2.9312,3.0555,3.1623,3.2131,3.2706,3.316,3.3374,3.3414,3.3414,3.3414,3.4914,3.5944,3.5868,3.7725,3.864,3.7759,3.8782,3.9685,4.0083,4.1401,4.2154,4.201,4.3908,4.4609,4.373,4.3301,4.2871,4.2422,4.2305,4.2246,4.2246,4.1836,4.1621,4.1621,4.1308,4.1172,4.1172,4.1172,4.1113,4.0996,4.0996,4.0664,4.0117,3.9824,3.9434,3.9023,3.9023,3.8633,3.8066,3.7832,3.7344,3.6816,3.6562,3.6289,3.6016,3.6016,3.6016,3.5957,3.5644,3.5566,3.543,3.4844,3.4473,3.418,3.3945,3.3652,3.3418,3.3418,3.3184,3.2969,3.2969,3.2383,3.1875,3.1875,3.1523,3.125,3.125,3.1133,3.1016,3.0898,3.0898,3.0898,3.0898,3.0898,3.0898,3.0898,3.0898,3.0898,3.0898,3.0449,3.0059,2.9766,2.9336,2.8965,2.8652,2.8945,2.8887,2.8476,2.8887,2.8828,2.8301,2.8418,2.8398,2.4062,2.4422,2.4983,2.6386,2.7188,2.7869,2.8751,2.9406,3.0007,3.0608,3.145,3.2171,3.2478,3.3013,3.34,3.3414,3.3414,3.3414,3.3414,3.3031,3.3409,3.5229,3.5293,3.6204,3.8569,3.7257,3.7344,3.9879,3.9719,4.0214,4.1904,4.3908,4.4609,4.373,4.3301,4.2871,4.2422,4.2031,4.1816,4.1816,4.1387,4.1191,4.1191,4.1172,4.1172,4.1172,4.1172,4.0937,4.0547,4.0547,4.0019,3.9238,3.9238,3.8965,3.8594,3.8594,3.8574,3.8437,3.7598,3.7305,3.7148,3.6309,3.6035,3.6016,3.6016,3.6016,3.6016,3.5996,3.5996,3.5801,3.4922,3.4687,3.4473,3.3633,3.3437,3.3418,3.3418,3.3418,3.3398,3.3398,3.3047,3.2754,3.2754,3.2402,3.219,3.219,3.1758,3.1348,3.0937,3.0898,3.0898,3.0898,3.0898,3.0898,3.0898,3.0898,3.0898,3.0898,3.0449,3.0195,3.0176,2.9766,2.9551,2.9587,2.9551,2.9336,2.8906,2.9336,2.9121,2.8301,2.8711,2.8672,2.4436,2.5411,2.66,2.7482,2.8297,2.9058,2.9753,3.0221,3.0662,3.1249,3.1303,3.133,3.161,3.1677,3.1797,3.2198,3.2585,3.347,3.5292,3.6855,3.7694,3.7071,4.0283,4.0628,3.5707,3.5167,3.6467,3.9561,3.7687,3.7964,4.1421,4.2252,4.2829,4.332,4.3144,4.2734,4.2012,4.1875,4.166,4.1387,4.125,4.1172,4.1172,4.1172,4.1172,4.1172,4.1172,4.1094,4.0957,4.0957,4.0449,3.9668,3.9668,3.9219,3.8535,3.8242,3.8144,3.8066,3.75,3.7109,3.6797,3.6211,3.6016,3.6016,3.6016,3.6016,3.5957,3.5684,3.5391,3.5019,3.4434,3.4062,3.3789,3.3496,3.3418,3.3418,3.3418,3.3203,3.3008,3.3008,3.2656,3.2383,3.2383,3.2031,3.1641,3.1367,3.1426,3.1367,3.0937,3.0898,3.0898,3.0898,3.0898,3.0898,3.0898,3.0898,3.0898,3.0898,3.0742,3.0527,3.0215,3.0059,2.9863,2.9626,2.9844,2.9785,2.9355,2.9492,2.9277,2.8711,2.8574,2.8437,2.5531,2.672,2.7936,2.8824,2.9366,2.9953,3.0541,3.0808,3.1022,3.1303,3.0969,3.0635,3.0608,3.0368,3.0327,3.0808,3.1209,3.2583,3.5536,3.7086,3.8288,3.8995,4.1403,4.0769,3.5106,3.4268,3.5178,3.7759,3.6083,3.6818,4.1334,4.1452,4.194,4.3258,4.3008,4.2519,4.1816,4.166,4.1445,4.1172,4.1172,4.1172,4.1172,4.1172,4.1172,4.1172,4.1172,4.1074,4.0937,4.0937,4.043,3.9648,3.9648,3.9199,3.8535,3.8262,3.8164,3.8047,3.7324,3.6894,3.6601,3.6152,3.6016,3.6016,3.6016,3.6016,3.5957,3.5703,3.541,3.5078,3.4648,3.4336,3.4082,3.3906,3.3887,3.3828,3.3691,3.3437,3.3203,3.3047,3.2793,3.2617,3.2617,3.2383,3.2012,3.1445,3.1582,3.1543,3.0957,3.0898,3.0898,3.0898,3.0898,3.0898,3.0898,3.0898,3.0898,3.0898,3.0898,3.0762,3.0449,3.0449,3.0312,3.0039,3.0312,3.0234,2.9785,2.9648,2.9434,2.9141,2.8711,2.8516,2.7241,2.8243,2.8991,3.0154,3.0448,3.0595,3.1142,3.1249,3.1129,3.0808,3.0461,3.002,2.9432,2.9098,2.9032,2.9379,2.9499,3.0911,3.4619,3.4292,3.558,4.063,3.9011,3.7258,3.6691,3.4674,3.3734,3.4817,3.4709,3.67,4.1409,4.1334,4.1898,4.3502,4.2829,4.2266,4.1836,4.1387,4.1172,4.1172,4.1172,4.1172,4.1172,4.1172,4.1172,4.1172,4.1172,4.0918,4.0527,4.0527,4.0,3.9199,3.9199,3.8945,3.8574,3.8555,3.8535,3.8359,3.7129,3.6719,3.666,3.6211,3.6055,3.6055,3.6035,3.6016,3.6016,3.6016,3.5996,3.5898,3.5488,3.5371,3.5254,3.4805,3.4707,3.459,3.416,3.4082,3.3945,3.3496,3.3418,3.3418,3.3398,3.3379,3.3086,3.2266,3.217,3.1816,3.0996,3.0898,3.0898,3.0898,3.0898,3.0898,3.0898,3.0898,3.0898,3.0898,3.0898,3.0898,3.0898,3.0898,3.0898,3.0898,3.0898,3.0664,3.0234,2.9805,2.9609,2.959,2.916,2.8945,2.8644,2.9619,3.0461,3.1423,3.1664,3.169,3.1837,3.1543,3.1022,3.0287,2.9032,2.7883,2.7281,2.7295,2.7709,2.8671,2.9753,3.2303,3.7531,3.832,3.9283,4.1796,4.3148,4.2225,3.8006,3.7041,3.6063,3.4623,3.266,3.3005,3.6352,3.7834,3.946,4.1427,4.2417,4.2695,4.2266,4.1543,4.1172,4.1172,4.1172,4.1172,4.1172,4.1172,4.1172,4.1172,4.1172,4.0918,4.0527,4.0527,4.0,3.9199,3.9199,3.8945,3.8535,3.8203,3.8086,3.8008,3.7363,3.7344,3.748,3.6738,3.6504,3.6445,3.6113,3.6016,3.6016,3.6016,3.5801,3.5527,3.543,3.5137,3.4844,3.4726,3.4707,3.459,3.416,3.4082,3.3945,3.3496,3.3418,3.332,3.3008,3.2695,3.2305,3.1758,3.1406,3.1133,3.0918,3.0898,3.0898,3.0898,3.0898,3.0898,3.0898,3.0898,3.0898,3.0898,3.0898,3.0898,3.0898,3.0898,3.0898,3.0898,3.0898,3.084,3.0703,3.0254,3.0039,3.0019,2.9609,2.9394,3.0087,3.0996,3.1677,3.2171,3.2198,3.1931,3.1289,3.0889,3.0221,2.8684,2.7468,2.6466,2.5758,2.5865,2.636,2.7295,2.8564,3.1558,3.7599,3.8604,4.0036,4.3416,4.5145,4.4307,3.9983,3.8582,3.7079,3.4819,3.2267,3.2401,3.6079,3.7208,3.8989,4.1928,4.2548,4.25,4.1875,4.1406,4.1172,4.1172,4.1172,4.1172,4.1172,4.1172,4.1172,4.1172,4.1172,4.0918,4.0527,4.0527,4.0,3.9199,3.9199,3.8945,3.8555,3.8301,3.8086,3.7891,3.7656,3.7598,3.7539,3.6875,3.6543,3.6348,3.6094,3.6016,3.6016,3.6016,3.5859,3.5664,3.5664,3.5469,3.5273,3.5273,3.5137,3.4941,3.4707,3.4355,3.3945,3.3496,3.3418,3.334,3.3105,3.2871,3.2578,3.2148,3.1719,3.1387,3.1191,3.0996,3.0898,3.0898,3.0898,3.0898,3.0898,3.0898,3.0898,3.0898,3.0898,3.0898,3.0898,3.0898,3.0898,3.0898,3.0898,3.0898,3.0898,3.043,3.0293,3.0488,3.0059,2.9844,3.1463,3.2211,3.271,3.275,3.2372,3.173,3.0301,2.982,2.9032,2.6747,2.5985,2.5464,2.4623,2.4743,2.5211,2.5945,2.7014,3.0028,3.6506,3.7338,3.9409,4.5165,4.584,4.4798,4.2087,3.9593,3.7468,3.5608,3.3058,3.3493,3.7637,3.7696,3.9409,4.339,4.2812,4.2031,4.1172,4.1172,4.1172,4.1172,4.1172,4.1172,4.1172,4.1172,4.1172,4.1172,4.1113,4.084,4.043,4.0371,3.9863,3.9121,3.9121,3.8887,3.8574,3.8516,3.8242,3.791,3.7851,3.7559,3.7148,3.6797,3.6406,3.6094,3.6035,3.6016,3.6016,3.6016,3.6016,3.6016,3.6016,3.6016,3.6016,3.6016,3.5742,3.5469,3.541,3.4707,3.3965,3.3574,3.3457,3.3418,3.3418,3.3379,3.3223,3.2851,3.2441,3.2031,3.166,3.1191,3.0898,3.0898,3.0898,3.0898,3.0898,3.0898,3.0898,3.0898,3.0898,3.0898,3.0898,3.0898,3.0898,3.0898,3.0898,3.0898,3.0898,3.0488,3.0488,3.0879,3.0469,3.0293,3.2478,3.2826,3.2959,3.32,3.2679,3.1784,3.0568,2.9339,2.7923,2.6052,2.505,2.4315,2.3674,2.3995,2.4863,2.6413,2.7455,3.0496,3.7289,3.8595,4.078,4.6091,4.6719,4.5757,4.3288,4.052,3.8737,3.8347,3.573,3.4492,3.5303,3.6594,3.8974,4.2514,4.25,4.2031,4.1172,4.1172,4.1172,4.1172,4.1172,4.1172,4.1172,4.1172,4.1172,4.1152,4.0801,4.0391,3.998,3.959,3.9141,3.8691,3.8691,3.8633,3.8535,3.8164,3.7988,3.7871,3.7519,3.7129,3.6758,3.6699,3.6621,3.6484,3.6133,3.6016,3.6016,3.6016,3.6016,3.6016,3.6016,3.6016,3.6016,3.6016,3.5957,3.582,3.5469,3.4707,3.4043,3.3965,3.3672,3.3418,3.3418,3.3125,3.2871,3.2812,3.2441,3.2148,3.207,3.1367,3.0898,3.0898,3.0898,3.0898,3.0898,3.0898,3.0898,3.0898,3.0898,3.0898,3.0898,3.0898,3.0898,3.0898,3.0898,3.0898,3.0898,3.082,3.082,3.0898,3.082,3.0762,3.3293,3.3454,3.344,3.3414,3.2639,3.141,2.9708,2.8297,2.6827,2.4596,2.3928,2.3607,2.3166,2.3701,2.4529,2.5518,2.6547,2.9602,3.6355,3.7708,4.0123,4.5898,4.6601,4.5591,4.3198,4.0549,3.8455,3.6999,3.541,3.5575,3.8078,3.9302,4.0694,4.2361,4.2012,4.1582,4.1172,4.1172,4.1172,4.1172,4.1172,4.1172,4.1172,4.1172,4.1172,4.1172,4.0957,4.0625,4.0195,3.9746,3.9297,3.8887,3.8652,3.8574,3.8555,3.834,3.8125,3.7891,3.7695,3.7207,3.668,3.668,3.6523,3.6289,3.6094,3.6016,3.6016,3.6016,3.6016,3.6016,3.6016,3.6016,3.6016,3.6016,3.6016,3.584,3.5176,3.4883,3.4629,3.416,3.3906,3.3691,3.3457,3.3262,3.3125,3.3125,3.2754,3.25,3.25,3.1953,3.1465,3.125,3.1016,3.0898,3.0898,3.0898,3.0898,3.0898,3.0898,3.0898,3.0898,3.0898,3.0898,3.0898,3.0898,3.0898,3.0898,3.0898,3.0898,3.0898,3.0898,3.0898,3.3814,3.3881,3.3814,3.3494,3.2438,3.0875,2.8577,2.7268,2.5838,2.3367,2.306,2.3153,2.2913,2.3434,2.4088,2.4636,2.5504,2.8503,3.5311,3.656,3.9093,4.5377,4.625,4.5109,4.2085,3.9999,3.7778,3.5149,3.5469,3.7306,4.0955,4.2068,4.2519,4.2422,4.1699,4.1269,4.1172,4.1172,4.1172,4.1172,4.1172,4.1172,4.1172,4.1172,4.1172,4.1172,4.1074,4.084,4.0488,3.9961,3.9531,3.916,3.875,3.8574,3.8555,3.8476,3.8223,3.791,3.7812,3.7305,3.668,3.668,3.6445,3.6152,3.6055,3.6094,3.6133,3.6035,3.6016,3.6016,3.6016,3.6016,3.6016,3.6016,3.6016,3.5801,3.5019,3.5059,3.5019,3.4219,3.4004,3.3848,3.3613,3.3555,3.3555,3.3555,3.3281,3.3027,3.2949,3.2559,3.2168,3.1836,3.1328,3.1035,3.1035,3.1035,3.1055,3.1152,3.1074,3.1035,3.1035,3.0937,3.0898,3.0898,3.0898,3.0898,3.0898,3.0898,3.0898,3.0898,3.0898,3.0898,3.3881,3.3881,3.3814,3.3494,3.2131,3.0327,2.8217,2.664,2.5104,2.3316,2.2954,2.2899,2.2928,2.2995,2.3434,2.481,2.513,2.7762,3.5097,3.6476,3.9005,4.5077,4.6074,4.4473,3.9812,3.886,3.7617,3.5449,3.8658,4.0624,4.0403,4.2112,4.2832,4.2441,4.1973,4.1562,4.1172,4.1172,4.1172,4.1172,4.1172,4.1172,4.1172,4.1172,4.1172,4.1152,4.0762,4.0566,4.0469,3.9609,3.9238,3.916,3.875,3.8574,3.8535,3.8125,3.7969,3.7871,3.748,3.7051,3.668,3.668,3.6641,3.6543,3.6133,3.6289,3.6523,3.6133,3.6016,3.6016,3.6016,3.6016,3.6016,3.6016,3.6016,3.5898,3.543,3.5019,3.4629,3.416,3.375,3.3594,3.3945,3.4023,3.4023,3.4023,3.3984,3.3809,3.3418,3.3008,3.2715,3.2676,3.1953,3.1465,3.1465,3.1465,3.1621,3.2031,3.168,3.1465,3.1465,3.1094,3.0898,3.0898,3.0898,3.0898,3.0898,3.0898,3.0898,3.0898,3.0898,3.0898,3.3948,3.4148,3.4068,3.3774,3.2104,3.0127,2.8591,2.6694,2.485,2.3434,2.2993,2.2928,2.2928,2.2712,2.2913,2.3875,2.3861,2.569,3.1151,3.3211,3.6258,4.1882,4.3864,4.3813,4.1351,3.9768,3.7649,3.4847,3.7338,3.9184,3.985,4.165,4.248,4.207,4.1641,4.1348,4.1172,4.1172,4.1172,4.1172,4.1172,4.1172,4.1172,4.1172,4.1172,4.1172,4.0996,4.0918,4.0859,4.0254,4.0,3.9961,3.9531,3.9199,3.8926,3.875,3.8535,3.8301,3.8125,3.7793,3.7422,3.7422,3.7246,3.6914,3.623,3.6152,3.625,3.6074,3.6016,3.6016,3.6016,3.6016,3.6016,3.6016,3.6016,3.5976,3.5801,3.543,3.498,3.4531,3.4316,3.416,3.4082,3.4277,3.4453,3.4453,3.4238,3.4004,3.3828,3.3437,3.3066,3.2832,3.2266,3.1914,3.1914,3.1914,3.1992,3.2209,3.2012,3.1914,3.1914,3.1504,3.1269,3.1269,3.1016,3.0898,3.0898,3.0898,3.0898,3.0898,3.0898,3.0898,3.3521,3.3988,3.4095,3.3721,3.1971,3.0007,2.8644,2.6653,2.4743,2.3567,2.3086,2.2928,2.2928,2.2699,2.2726,0.0,2.322,2.458,2.8594,3.0707,3.354,3.8167,4.0243,4.1212,4.1054,3.9091,3.6555,3.3296,3.5765,3.7718,3.8355,4.0903,4.2226,4.1816,4.1387,4.1172,4.1172,4.1172,4.1172,4.1172,4.1172,4.1172,4.1172,4.1172,4.1172,4.1172,4.1172,4.1172,4.1133,4.0703,4.0527,4.0488,4.0059,3.9609,3.9199,3.9199,3.8945,3.8574,3.8574,3.8281,3.793,3.793,3.7559,3.6992,3.6387,3.6211,3.6191,3.6055,3.6016,3.6016,3.6016,3.6016,3.6016,3.6016,3.6016,3.5996,3.5859,3.5605,3.5254,3.4785,3.4707,3.4648,3.4492,3.4707,3.4902,3.4902,3.4648,3.4375,3.4101,3.3809,3.3457,3.3027,3.2715,3.248,3.2363,3.2363,3.2402,3.2539,3.2422,3.2363,3.2363,3.1816,3.1523,3.1523,3.1113,3.0898,3.0898,3.0898,3.0898,3.0898,3.0898,3.0898,3.2398,3.3213,3.3748,3.3133,3.1664,2.99,2.811,2.6346,2.4743,2.3567,2.3086,2.2928,2.2928,2.2928,2.2966,2.3273,2.3567,2.5022,2.8506,2.9641,3.1277,3.4467,3.5257,3.6068,3.7144,3.6087,3.4027,3.0694,3.4965,3.7085,3.5639,3.9903,4.2226,4.1816,4.1387,4.1172,4.1172,4.1172,4.1172,4.1172,4.1172,4.1172,4.1172,4.1172,4.1172,4.1172,4.1172,4.1172,4.1133,4.0703,4.0527,4.0488,4.0059,3.9609,3.9199,3.9199,3.8945,3.8574,3.8574,3.8281,3.793,3.793,3.7363,3.668,3.666,3.666,3.6582,3.6152,3.6016,3.6016,3.6016,3.6016,3.6016,3.6016,3.6016,3.5898,3.5488,3.5391,3.5254,3.4785,3.4707,3.4844,3.5293,3.5391,3.5391,3.5391,3.5391,3.5059,3.418,3.4062,3.3906,3.3457,3.3418,3.3242,3.2832,3.2793,3.2969,3.3379,3.3008,3.2793,3.2793,3.1973,3.1523,3.1523,3.1113,3.0898,3.0898,3.0898,3.0898,3.0898,3.0898,3.0898,3.0528,3.1102,3.133,3.0742,2.9406,2.7989,2.7028,2.5598,2.4262,2.3487,2.3086,2.2928,2.2928,2.2539,2.2565,2.3487,2.3354,2.3701,2.5194,2.9026,3.2386,3.4396,3.8049,3.9826,3.8518,3.6339,3.379,3.0872,3.3393,3.5184,3.5455,3.8394,4.0433,4.1387,4.125,4.1172,4.1172,4.1172,4.1172,4.1172,4.1172,4.1172,4.1172,4.1172,4.1172,4.1172,4.1172,4.1172,4.1172,4.1035,4.0976,4.0918,4.0488,4.0059,3.9629,3.9316,3.8945,3.8574,3.8574,3.8476,3.832,3.8027,3.7539,3.7051,3.6758,3.6465,3.6191,3.6055,3.6016,3.6016,3.6016,3.6016,3.6016,3.6016,3.6016,3.5996,3.5859,3.5605,3.5351,3.5195,3.5176,3.5215,3.5371,3.5625,3.582,3.582,3.5586,3.5293,3.5,3.4453,3.4023,3.3887,3.3594,3.3379,3.3242,3.3223,3.3281,3.3418,3.3301,3.3223,3.3223,3.2695,3.2383,3.2383,3.168,3.1328,3.1328,3.1035,3.0898,3.0898,3.0898,3.0898,2.8751,2.9539,2.9887,2.9299,2.8283,2.7215,2.6413,2.5184,2.4035,2.3447,2.3086,2.2928,2.2928,2.2472,2.2432,2.3287,2.3182,2.3376,2.4861,2.8554,3.1955,3.4396,3.8162,3.959,3.7199,3.5729,3.3717,3.0993,3.3439,3.5249,3.5523,3.8558,4.0537,4.1191,4.1172,4.1172,4.1172,4.1172,4.1172,4.1172,4.1172,4.1172,4.1172,4.1172,4.1172,4.1172,4.1172,4.1172,0.0,4.1172,4.1074,4.0898,4.0625,4.0156,3.9609,3.9316,3.8945,3.8574,3.8574,3.8574,3.8535,3.8262,3.7891,3.7402,3.666,3.623,3.6055,3.6211,3.6152,3.6016,3.6016,3.6016,3.6016,3.6016,3.6016,3.6016,3.6016,3.582,3.5625,3.5625,3.5625,3.5625,3.5625,3.584,3.6016,3.6016,3.5801,3.5566,3.541,3.4922,3.4434,3.4101,3.3965,3.3769,3.3457,3.3418,3.3418,3.3418,3.3418,3.3418,3.3418,3.3008,3.2793,3.2793,3.2109,3.168,3.1523,3.1094,3.0898,3.0898,3.0898,3.0898,0.0,2.831,2.9032,2.847,2.7896,2.7188,2.6052,2.4957,0.0,2.3394,2.3033,2.2832,2.2832,2.2565,2.2472,2.2832,2.2859,2.3804,2.6591,2.8349,3.0893,3.488,3.6526,3.6513,3.4288,3.4533,3.3872,3.144,3.4975,3.6744,3.5774,3.9803,4.1853,4.1191,4.1172,4.1172,4.1172,4.1172,4.1172,4.1172,4.1172,4.1172,4.1172,4.1172,4.1172,4.1172,4.1172,4.1172,4.1172,4.1133,4.0879,4.0508,4.0449,3.9941,3.9238,3.918,3.8926,3.8613,3.8594,3.8574,3.8555,3.8496,3.8184,3.7617,3.6426,3.6074,3.6152,3.6523,3.6328,3.6016,3.6016,3.6016,3.6016,3.6016,3.6016,3.6016,3.6016,3.6016,3.6016,3.6016,3.6016,3.6016,3.6016,3.6016,3.6016,3.6016,3.6016,3.5879,3.5488,3.541,3.5078,3.4258,3.4492,3.4375,3.3574,3.3516,3.3496,3.3418,3.3457,3.3457,3.3418,3.3047,3.2832,3.2832,3.2422,3.1992,3.1523,3.1133,3.0918,3.0898,3.0898,3.0898,2.5251,0.0,2.6026,2.5665,2.5464,2.517,0.0,2.4075,2.3634,2.2806,2.2565,2.2525,2.2525,2.2098,2.2084,2.306,2.2832,2.2969,2.4424,2.9802,3.5364,4.0053,3.9372,3.8686,3.8994,3.6215,3.4879,3.6137,3.635,3.698,3.81,3.8861,3.9879,4.1191,4.1172,4.1172,4.1172,4.1172,4.1172,4.1172,4.1172,4.1172,4.1172,4.1172,4.1172,4.1172,4.1172,4.1172,4.1152,4.082,4.0625,4.0449,3.9785,3.9609,3.9648,3.8965,3.8867,3.9004,3.8691,3.8574,3.8457,3.7812,3.7305,3.6914,3.6601,3.6523,3.6465,3.623,3.6094,3.6016,3.6016,3.6016,3.6016,3.6016,3.6016,3.6016,3.6016,3.6016,3.6016,3.6016,3.6016,3.6016,3.6016,3.6016,3.6016,3.6016,3.6016,3.5996,3.5879,3.5586,3.5312,3.5098,3.4844,3.4609,3.4414,3.4394,3.4121,3.3457,3.373,3.3769,3.3437,3.332,3.3281,3.3281,3.2871,3.2285,3.1523,3.1426,3.1211,3.0898,3.0898,3.0898,2.4569,2.485,2.501,2.4716,2.4743,2.4649,2.3928,2.3768,2.3514,2.2605,2.2418,2.2378,2.2245,2.1857,2.1844,2.2766,2.3363,2.4916,2.8302,3.3696,3.8587,4.2278,4.0989,4.0192,4.117,3.7976,3.6416,3.7496,3.7742,3.8136,3.8922,3.9615,4.0281,4.1191,4.1172,4.1172,4.1172,4.1172,4.1172,4.1172,4.1172,4.1172,4.1172,4.1172,4.1172,4.1172,4.1172,4.1172,4.1152,4.0918,4.0586,4.0195,3.9707,3.9551,3.9492,3.8828,3.8848,3.9141,3.873,3.8437,3.8164,3.7519,3.7266,3.7129,3.6543,3.6641,3.6875,3.6445,3.6172,3.6016,3.6016,3.6016,3.6016,3.6016,3.6016,3.6016,3.6016,3.6016,3.6016,3.6016,3.6016,3.6016,3.6016,3.6016,3.6016,3.6016,3.6016,3.6016,3.6016,3.582,3.5605,3.541,3.5332,3.5137,3.4726,3.4902,3.4648,3.3769,3.3945,3.3887,3.3437,3.3418,3.3418,3.3418,3.3008,3.248,3.1816,3.1621,3.1309,3.0898,3.0898,3.0898,2.4543,2.489,2.4997,2.4649,2.473,2.4676,2.3888,2.3661,2.3394,2.2525,2.2311,2.2218,2.2017,2.175,2.1842,2.2445,2.4362,2.7936,3.4181,3.7801,4.055,4.2754,4.176,4.1251,4.2174,3.9982,3.8355,3.8283,3.9334,3.9823,3.9422,4.0861,4.1543,4.1191,4.1172,4.1172,4.1172,4.1172,4.1172,4.1172,4.1172,4.1172,4.1172,4.1172,4.1172,4.1172,4.1172,4.1172,4.1172,4.1094,4.0644,3.998,3.9922,3.9648,3.9258,3.8828,3.8887,3.9141,3.873,3.834,3.7949,3.7539,3.7598,3.7617,3.6543,3.6621,3.7051,3.6758,3.6348,3.6016,3.6016,3.6016,3.6016,3.6016,3.6016,3.6016,3.6016,3.6016,3.6016,3.6016,3.6016,3.6016,3.6016,3.6016,3.6016,3.6016,3.6016,3.6016,3.6016,3.6016,3.5879,3.5527,3.5801,3.5723,3.4961,3.5254,3.5117,3.4219,3.4101,3.3887,3.3437,3.3496,3.3496,3.3418,3.3066,3.2676,3.2266,3.1836,3.1426,3.1094,3.1016,3.1016,2.485,2.505,2.4943,2.4409,2.4115,2.3875,2.3487,2.3193,2.2819,2.2178,2.1857,2.175,2.1951,2.175,2.1911,2.3006,2.5755,2.9959,3.598,3.8149,3.9935,4.2281,4.2077,4.2216,4.3311,4.1898,4.1419,4.2645,4.2236,4.1744,4.1419,4.1327,4.125,4.1172,4.1172,4.1172,4.1172,4.1172,4.1172,4.1172,4.1172,4.1172,4.1172,4.1172,4.1172,4.1172,4.1172,4.1172,4.1152,4.0781,4.0547,4.0391,4.0039,3.9844,3.9726,3.9277,3.9141,3.9141,3.873,3.8535,3.8398,3.7969,3.7637,3.7363,3.7168,3.668,3.6269,3.6582,3.6348,3.6016,3.6016,3.6016,3.6016,3.6016,3.6016,3.6016,3.6016,3.6016,3.6016,3.6016,3.6016,3.6016,3.6016,3.6016,3.6016,3.6016,3.6016,3.6016,3.6016,3.6016,3.5996,3.5937,3.5976,3.5957,3.582,3.5879,3.5547,3.4668,3.4277,3.3887,3.3437,3.3769,3.3809,3.3437,3.3359,3.3125,3.2695,3.2266,3.2031,3.1973,3.1601,3.1621,2.4489,2.4249,2.3928,2.4155,2.4342,2.4235,2.3287,2.31,2.2939,2.2338,2.2111,2.2388,2.3553,2.407,2.5457,2.8985,3.096,3.344,3.7371,3.8823,4.012,4.1893,4.2353,4.2987,4.3999,4.3488,4.3101,4.3355,4.2773,4.2246,4.1816,4.1406,4.1172,4.1172,4.1172,4.1172,4.1172,4.1172,4.1172,4.1172,4.1172,4.1172,4.1172,4.1172,4.1172,4.1172,4.1172,4.1172,4.1152,4.0957,4.0742,4.0508,4.0312,4.0098,3.9844,3.9375,3.9062,3.8828,3.8633,3.8418,3.8184,3.7988,3.7793,3.7559,3.709,3.6992,3.6953,3.6465,3.6172,3.6016,3.6016,3.6191,3.6367,3.6367,3.6543,3.6719,3.6719,3.6719,3.6719,3.6719,3.6719,3.6641,3.6406,3.6367,3.6289,3.6055,3.6016,3.6016,3.6016,3.6016,3.6016,3.6016,3.6016,3.6016,3.6016,3.5801,3.5508,3.5098,3.4453,3.3984,3.3789,3.3965,3.3867,3.3437,3.3418,3.3223,3.2793,3.2598,3.2383,3.2168,3.1953,3.1973,2.4102,2.3701,2.3313,2.3861,2.4235,2.4262,2.3541,2.33,2.3166,2.2979,2.2779,2.3093,2.4544,2.5997,2.8611,3.3983,3.5358,3.6534,3.8996,3.9922,4.0781,4.1953,4.2773,4.3457,4.4023,4.4277,4.3945,4.2871,4.2558,4.2207,4.168,4.1348,4.1172,4.1172,4.1172,4.1172,4.1172,4.1172,4.1172,4.1172,4.1172,4.1172,4.1172,4.1172,4.1172,4.1172,4.1172,4.1172,4.1172,4.1172,4.0976,4.0684,4.0684,4.0351,3.9824,3.9258,3.8848,3.8574,3.8574,3.8359,3.8086,3.8086,3.8008,3.7832,3.7285,3.7422,3.7598,3.6719,3.6387,3.6289,3.6191,3.6484,3.6816,3.6816,3.707,3.7305,3.7305,3.7305,3.7305,3.7305,3.7305,3.7187,3.6875,3.6816,3.6699,3.6367,3.6328,3.6289,3.6191,3.6172,3.6133,3.6035,3.6016,3.6016,3.6016,3.5625,3.543,3.5527,3.4805,3.4297,3.4082,3.416,3.3965,3.3437,3.3418,3.3262,3.2949,3.2851,3.2676,3.2461,3.2363,3.2363,2.4048,2.4155,2.3995,2.3514,2.2993,2.302,2.4569,2.3875,2.3193,2.4262,2.3834,2.326,2.3399,2.5839,2.9329,3.3983,3.5903,3.8016,4.1152,4.1621,4.1992,4.2871,4.3379,4.3535,4.3203,4.3926,4.3691,4.2012,4.2226,4.207,4.1269,4.1191,4.1172,4.1172,4.1172,4.1172,4.1172,4.1172,4.1172,4.1172,4.1172,4.1172,4.1172,4.1172,4.1172,4.1172,4.1172,4.1172,4.1172,4.1172,4.1152,4.1133,4.1133,4.0625,3.9785,3.8945,3.8594,3.8574,3.8574,3.8555,3.8535,3.8535,3.8262,3.7988,3.834,3.793,3.7402,3.7695,3.75,3.7109,3.6719,3.6934,3.7246,3.7246,3.7266,3.7305,3.7305,3.7305,3.7305,3.7305,3.7305,3.7285,3.7266,3.7246,3.7246,3.7207,3.7207,3.707,3.668,3.6621,3.6465,3.6055,3.6016,3.6016,3.6016,3.5625,3.5566,3.5957,3.5547,3.4922,3.4101,3.4453,3.4258,3.3437,3.3418,3.3398,3.3379,3.2988,3.2988,3.332,3.293,3.2969,2.3594,2.3661,2.3647,2.3607,2.3153,2.2966,2.4022,2.3834,2.3661,2.4476,2.4663,2.5119,2.6473,3.1029,3.4811,3.5741,3.7989,4.0047,4.125,4.1641,4.1914,4.2246,4.2656,4.2851,4.2695,4.2969,4.2793,4.1875,4.1953,4.1777,4.1211,4.1172,4.1172,4.1172,4.1172,4.1172,4.1172,4.1172,4.1172,4.1172,4.1172,4.1172,4.1172,4.1172,4.1172,4.1172,4.1172,4.1172,4.1152,4.0879,4.0937,4.1113,4.0586,4.0,3.9394,3.8789,3.8574,3.8574,3.8574,3.8574,3.8574,3.8574,3.8457,3.8301,3.8203,3.8144,3.8008,3.7637,3.7812,3.793,3.7246,3.7363,3.7676,3.7676,3.7891,3.8086,3.8086,3.8086,3.8086,3.8086,3.8086,3.8008,3.7734,3.7676,3.7598,3.7344,3.7305,3.7246,3.709,3.7051,3.6894,3.6465,3.6172,3.6133,3.6406,3.6035,3.5859,3.6016,3.5625,3.5234,3.4902,3.5039,3.4844,3.4219,3.4219,3.4082,3.3828,3.3672,3.3535,3.3418,3.3262,3.3262,2.318,2.3113,2.3086,2.3287,2.31,2.3113,2.4102,2.4182,2.4342,2.5384,2.5478,2.6219,2.9045,3.3366,3.6679,3.7166,3.9433,4.1172,4.1172,4.1426,4.1601,4.1601,4.1973,4.2168,4.2051,4.2266,4.2207,4.1641,4.1719,4.1621,4.1191,4.1172,4.1172,4.1172,4.1172,4.1172,4.1172,4.1172,4.1172,4.1172,4.1172,4.1172,4.1172,4.1172,4.1172,4.1172,4.1172,4.1172,4.1133,4.0703,4.0625,4.0703,3.9961,3.9473,3.9141,3.873,3.8574,3.8574,3.8574,3.8574,3.8574,3.8574,3.8574,3.8516,3.8223,3.834,3.8457,3.7871,3.8125,3.8437,3.7851,3.791,3.8125,3.8125,3.8359,3.8574,3.8574,3.8574,3.8574,3.8574,3.8574,3.8476,3.8184,3.8125,3.8027,3.7734,3.7695,3.7656,3.7519,3.75,3.7285,3.6738,3.6406,3.6289,3.6445,3.6191,3.6016,3.6016,3.5742,3.5527,3.541,3.5391,3.5176,3.4707,3.457,3.4355,3.4082,3.3945,3.3789,3.3633,3.3633,3.3691,2.2928,2.2645,2.2432,2.2432,2.2659,2.334,2.5117,2.5064,2.5211,2.7268,2.6385,2.642,3.0451,3.1636,3.352,3.7836,4.0039,4.1172,4.1172,4.1172,4.1172,4.1172,4.1543,4.1621,4.1211,4.1933,4.207,4.123,4.1562,4.1621,4.1191,4.1172,4.1172,4.1172,4.1172,4.1172,4.1172,4.1172,4.1172,4.1172,4.1172,4.1172,4.1172,4.1172,4.1172,4.1172,4.1172,4.1172,4.1133,4.0703,4.0273,3.9844,3.9375,3.9199,3.9141,3.873,3.8574,3.8574,3.8574,3.8574,3.8574,3.8574,3.8574,3.8574,3.8574,3.8574,3.8574,3.8574,3.8574,3.8574,3.8574,3.8574,3.8574,3.8574,3.8574,3.8574,3.8574,3.8574,3.8574,3.8574,3.8574,3.8574,3.8574,3.8574,3.8574,3.8574,3.8574,3.8418,3.7988,3.793,3.7598,3.6777,3.668,3.6484,3.6055,3.6016,3.6016,3.6016,3.6016,3.584,3.541,3.541,3.5176,3.4726,3.4297,3.4082,3.4082,3.3652,3.3652,3.4082,3.4082,3.4297,2.3193,2.3126,2.31,2.3313,2.3741,2.4462,2.5825,2.5197,2.485,2.6707,2.8817,3.0249,2.9961,3.4122,3.739,3.6812,3.9242,4.1172,4.1172,4.1172,4.1172,4.1172,4.1289,4.1308,4.1191,4.1406,4.1445,4.1191,4.1289,4.1308,4.1172,4.1172,4.1172,4.1172,4.1172,4.1172,4.1172,4.0879,4.0723,4.0703,4.041,4.0586,4.1172,4.0859,4.0723,4.0723,4.0723,4.0547,4.0273,4.0137,3.9648,3.8984,3.9141,3.9023,3.875,3.8613,3.8574,3.8574,3.8574,3.8574,3.8574,3.8574,3.8574,3.8574,3.8574,3.8574,3.8574,3.8574,3.8574,3.8574,3.8574,3.8574,3.8574,3.8574,3.8574,3.8574,3.8574,3.8574,3.8574,3.8574,3.8574,3.8574,3.8574,3.8574,3.8574,3.8574,3.8574,3.8535,3.8398,3.7851,3.75,3.7539,3.6738,3.6289,3.6465,3.6191,3.6016,3.6016,3.6016,3.5957,3.584,3.584,3.5762,3.5625,3.5508,3.5293,3.5,3.4863,3.4707,3.4512,3.4512,3.459,2.318,2.314,2.322,2.3514,2.4209,2.5064,2.5999,2.5985,2.63,2.8228,3.0205,3.1676,3.2207,3.5597,3.8159,3.7596,3.9279,4.0723,4.0898,4.0918,4.0918,4.0918,4.1074,4.1172,4.1172,4.1172,4.1172,4.1172,4.1172,4.1172,4.1172,4.1016,4.0918,4.0918,4.0762,4.0664,4.0664,4.041,4.0273,4.0273,4.0019,4.0176,4.0664,4.0391,4.0273,4.0273,4.0273,4.0019,3.9609,3.9609,3.9199,3.8594,3.8848,3.8789,3.8574,3.8574,3.8574,3.8574,3.8574,3.8574,3.8574,3.8574,3.8574,3.8574,3.8574,3.8574,3.8574,3.8574,3.8574,3.8574,3.8574,3.8574,3.8574,3.8574,3.8574,3.8574,3.8574,3.8574,3.8574,3.8574,3.8574,3.8574,3.8574,3.8574,3.8574,3.8574,3.8574,3.8574,3.8574,3.8125,3.7832,3.791,3.709,3.6562,3.666,3.6269,3.6016,3.6016,3.6016,3.6016,3.6016,3.6016,3.6016,3.6016,3.5859,3.5644,3.5391,3.5215,3.5078,3.498,3.498,3.5059,2.302,2.3008,2.3033,2.3394,2.4396,2.5438,2.6026,2.7419,2.9021,3.0875,3.0841,3.1748,3.5881,3.6449,3.7036,3.9482,3.9863,4.0019,4.041,4.0469,4.0469,4.0527,4.0879,4.1133,4.1172,4.1172,4.1172,4.1172,4.1172,4.1152,4.1113,4.0742,4.0508,4.0469,4.0098,3.9902,3.9902,3.9863,3.9824,3.9824,3.9785,3.9766,3.9766,3.9824,3.9824,3.9824,3.9785,3.9551,3.9199,3.916,3.8926,3.8574,3.8574,3.8574,3.8574,3.8574,3.8574,3.8574,3.8535,3.8535,3.8574,3.8535,3.8555,3.8574,3.8574,3.8574,3.8574,3.8574,3.8574,3.8574,3.8574,3.8574,3.8574,3.8574,3.8574,3.8574,3.8574,3.8574,3.8574,3.8574,3.8574,3.8574,3.8574,3.8574,3.8574,3.8574,3.8574,3.8574,3.8574,3.8535,3.8359,3.791,3.7519,3.7109,3.666,3.6289,3.6055,3.6016,3.6016,3.6016,3.6016,3.6016,3.6016,3.6016,3.5644,3.5449,3.5449,3.5019,3.5039,3.5449,3.5449,3.5664,2.3594,2.3581,2.3754,2.4516,2.5758,2.6947,2.7618,2.9298,3.0607,3.0405,3.1839,3.3905,3.6201,3.7932,3.9082,3.93,3.9668,3.9922,4.0019,4.0039,4.0156,4.0488,4.0605,4.0801,4.1133,4.1172,4.1172,4.1172,4.1172,4.1035,4.0684,4.0566,4.0371,4.0039,3.9941,3.9902,3.9902,3.9531,3.9355,3.9355,3.9023,3.8867,3.8867,3.9199,3.9355,3.9336,3.9004,3.8984,3.918,3.8848,3.8652,3.8574,3.8574,3.8574,3.8574,3.8574,3.8574,3.8535,3.8184,3.8281,3.8516,3.8164,3.8301,3.8574,3.8574,3.8574,3.8574,3.8574,3.8574,3.8574,3.8574,3.8574,3.8574,3.8574,3.8574,3.8574,3.8574,3.8574,3.8574,3.8574,3.8574,3.8574,3.8574,3.8574,3.8574,3.8574,3.8574,3.8574,3.8574,3.8281,3.7891,3.748,3.7344,3.6992,3.623,3.6387,3.6387,3.6035,3.6016,3.6016,3.6016,3.6016,3.6016,3.6016,3.5937,3.5879,3.5879,3.5781,3.5781,3.5879,3.5879,3.5937,2.342,2.3647,2.4262,2.5411,2.66,2.7549,2.7856,2.8827,3.005,3.1616,3.3922,3.6009,3.7553,3.8782,3.9492,3.9238,3.9062,3.9101,3.9512,3.9394,3.9414,3.9844,4.0273,4.0605,4.084,4.1055,4.1172,4.1172,4.0976,4.0762,4.0527,4.0117,3.9785,3.957,3.9375,3.916,3.8945,3.8926,3.8691,3.8281,3.8281,3.8262,3.8281,3.8711,3.8906,3.8887,3.8672,3.8691,3.8887,3.8672,3.8574,3.8555,3.834,3.8262,3.8242,3.8047,3.8086,3.8203,3.7773,3.791,3.8184,3.7754,3.791,3.8262,3.8262,3.8262,3.8301,3.8516,3.8418,3.8301,3.8516,3.8574,3.8574,3.8574,3.8574,3.8574,3.8574,3.8574,3.8574,3.8574,3.8574,3.8574,3.8574,3.8574,3.8574,3.8574,3.8574,3.8574,3.8574,3.8379,3.8144,3.793,3.7715,3.7422,3.6973,3.6953,3.6797,3.6348,3.6328,3.623,3.6035,3.6016,3.6016,3.6016,3.6016,3.6016,3.6016,3.6016,3.6016,3.6016,3.6016,3.6016,2.31,2.3674,2.4756,2.6119,2.7041,2.7642,2.7682,2.7987,2.9111,3.2507,3.4998,3.704,3.8773,3.9101,3.9043,3.8906,3.834,3.8144,3.8789,3.8574,3.8535,3.9043,3.9746,4.0254,4.0391,4.0801,4.1035,4.0957,4.0684,4.0449,4.0312,3.959,3.9141,3.8984,3.8652,3.8262,3.7812,3.8184,3.8008,3.7305,3.7656,3.7851,3.793,3.8223,3.8437,3.8574,3.8574,3.8574,3.8574,3.8574,3.8574,3.8535,3.8184,3.8027,3.7988,3.7559,3.7676,3.7949,3.7383,3.7519,3.7851,3.7344,3.748,3.7812,3.7812,3.7812,3.791,3.834,3.8144,3.793,3.8437,3.8516,3.8476,3.8555,3.8574,3.8574,3.8574,3.8574,3.8574,3.8574,3.8574,3.8574,3.8574,3.8574,3.8574,3.8574,3.8574,3.8574,3.8574,3.8574,3.8555,3.8476,3.8203,3.7969,3.7832,3.7559,3.7226,3.6816,3.6777,3.6621,3.625,3.6172,3.6133,3.6133,3.6055,3.6016,3.6016,3.6016,3.6016,3.6016,3.6016,3.6016,2.3354,2.4275,2.5571,2.652,2.7041,2.7388,2.7642,2.8945,3.0091,3.0061,3.1884,3.4529,3.8051,3.8652,3.8418,3.7676,3.7754,3.7832,3.7578,3.75,3.7754,3.8555,3.8769,3.9141,3.9902,4.0351,4.0449,4.0098,4.0351,4.0195,3.9414,3.9258,3.8867,3.8125,3.8047,3.7812,3.7383,3.7441,3.7402,3.7305,3.7344,3.7578,3.791,3.7598,3.7871,3.8574,3.8574,3.8574,3.8574,3.8574,3.8574,3.8574,3.8516,3.8496,3.8437,3.8008,3.8105,3.832,3.7168,3.7266,3.7793,3.7012,3.7031,3.7383,3.7383,3.7383,3.7461,3.7891,3.7715,3.7559,3.8359,3.8301,3.8105,3.8476,3.8574,3.8574,3.8574,3.8574,3.8574,3.8574,3.8574,3.8574,3.8574,3.8574,3.8574,3.8574,3.8574,3.8574,3.8574,3.8574,3.8437,3.8047,3.8301,3.8184,3.7441,3.7656,3.7656,3.7246,3.7207,3.7187,3.7129,3.6777,3.6582,3.6582,3.6211,3.6016,3.6016,3.6016,3.6016,3.6016,3.6016,3.6016,2.4262,2.4663,2.5317,2.652,2.7041,2.7295,2.7428,2.8152,2.883,2.9271,3.0945,3.3153,3.5832,3.6284,3.6531,3.7202,3.7266,3.7246,3.7285,3.709,3.7168,3.7793,3.8066,3.8457,3.9101,3.9531,3.9805,3.9883,3.9824,3.9609,3.9219,3.875,3.832,3.793,3.7695,3.7363,3.6953,3.7187,3.7187,3.6953,3.6953,3.7051,3.7226,3.7266,3.7637,3.8203,3.7969,3.7851,3.7851,3.7851,3.7851,3.7832,3.7598,3.75,3.7461,3.7012,3.7129,3.7383,3.6582,3.6699,3.7129,3.6504,3.6601,3.6953,3.6953,3.6953,3.7031,3.7461,3.7441,3.7441,3.8047,3.8242,3.834,3.8535,3.8574,3.8574,3.8574,3.8574,3.8574,3.8574,3.8574,3.8574,3.8574,3.8574,3.8574,3.8574,3.8574,3.8574,3.8574,3.8574,3.8496,3.8301,3.8457,3.8418,3.8047,3.8184,3.8105,3.7676,3.7656,3.7539,3.7305,3.7129,3.6914,3.668,3.6484,3.6269,3.6016,3.6269,3.625,3.6035,3.6269,3.6387,2.4609,2.4636,2.4836,2.6159,2.6707,2.6974,2.7121,2.7094,2.735,2.8195,2.9382,3.0713,3.2381,3.4073,3.5575,3.6646,3.6641,3.6543,3.6621,3.6465,3.6504,3.6914,3.7344,3.7812,3.8359,3.8691,3.9062,3.9531,3.9238,3.9004,3.8887,3.8262,3.7832,3.7617,3.7305,3.6934,3.6504,3.6816,3.6758,3.6348,3.6445,3.6562,3.668,3.6875,3.7207,3.7598,3.7383,3.7305,3.7305,3.7305,3.7305,3.7266,3.6953,3.6836,3.6777,3.6348,3.6465,3.6758,3.6211,3.6309,3.6601,3.6152,3.623,3.6504,3.6504,3.6582,3.6758,3.7187,3.7305,3.7422,3.7949,3.8242,3.8437,3.8555,3.8574,3.8574,3.8574,3.8574,3.8574,3.8574,3.8574,3.8574,3.8574,3.8574,3.8574,3.8574,3.8574,3.8574,3.8574,3.8574,3.8574,3.8574,3.8574,3.8574,3.8574,3.8574,3.8437,3.8105,3.8086,3.7949,3.7637,3.7519,3.7305,3.6992,3.6992,3.6719,3.6191,3.6406,3.6445,3.6348,3.6562,3.6719,2.3754,2.4022,2.4449,2.5358,2.5798,2.6172,2.672,2.6627,2.6345,2.5832,2.5761,2.624,2.7597,3.2984,3.6755,3.5684,3.5801,3.5762,3.4941,3.5195,3.5625,3.6035,3.6465,3.7051,3.7871,3.7969,3.8164,3.8613,3.8613,3.8418,3.8008,3.7949,3.7559,3.6758,3.6719,3.6484,3.6055,3.6074,3.5879,3.5469,3.5859,3.6269,3.666,3.6269,3.6328,3.6758,3.7129,3.7305,3.7305,3.7305,3.7305,3.7305,3.7266,3.7266,3.7207,3.6797,3.6894,3.7148,3.6309,3.6309,3.6601,3.6152,3.6035,3.6055,3.6055,3.6348,3.6758,3.7187,3.7305,3.75,3.832,3.8242,3.8066,3.8476,3.8574,3.8574,3.8574,3.8574,3.8574,3.8574,3.8574,3.8574,3.8574,3.8574,3.8574,3.8574,3.8574,3.8574,3.8574,3.8574,3.8574,3.8574,3.8574,3.8574,3.8574,3.8574,3.8555,3.8555,3.8535,3.8535,3.8516,3.8105,3.7871,3.7851,3.7851,3.7461,3.6641,3.625,3.6465,3.7226,3.6855,3.6875,2.4195,2.3995,2.3901,2.497,2.5317,2.5504,2.5892,2.6052,2.5945,2.5358,2.6024,2.6909,2.7405,3.0398,3.3001,3.3452,3.4748,3.541,3.4785,3.4844,3.5,3.5156,3.5566,3.6074,3.6641,3.6953,3.7305,3.7715,3.7754,3.7676,3.7539,3.7266,3.6992,3.668,3.6406,3.6055,3.5625,3.5312,3.5098,3.4961,3.541,3.5703,3.5859,3.5957,3.6094,3.6269,3.6406,3.6484,3.6484,3.6484,3.6484,3.6484,3.6484,3.6484,3.6465,3.6309,3.6348,3.6426,3.6133,3.6113,3.623,3.6074,3.6016,3.6074,3.6348,3.6543,3.6758,3.7187,3.75,3.7773,3.8086,3.8242,3.8379,3.8535,3.8574,3.8574,3.8574,3.8574,3.8574,3.8574,3.8574,3.8574,3.8574,3.8574,3.8574,3.8574,3.8574,3.8574,3.8574,3.8574,3.8574,3.8574,3.8574,3.8574,3.8574,3.8574,3.8574,3.8574,3.8574,3.8574,3.8574,3.8418,3.8203,3.793,3.793,3.7637,3.707,3.7187,3.7266,3.7305,3.7422,3.7559,2.4262,2.3848,2.3567,2.4543,2.4716,2.477,2.5251,2.5518,2.5518,2.5037,2.5778,2.6474,2.6431,2.8364,3.0438,3.2072,3.3784,3.4785,3.4336,3.4394,3.4492,3.4492,3.4883,3.5332,3.5762,3.5937,3.6309,3.7031,3.6953,3.6934,3.709,3.6816,3.6543,3.625,3.5801,3.5371,3.4961,3.4785,3.4629,3.4492,3.5098,3.5391,3.541,3.582,3.6016,3.6016,3.6016,3.6016,3.6016,3.6016,3.6016,3.6016,3.6016,3.6016,3.6016,3.6016,3.6016,3.6016,3.6016,3.6016,3.6016,3.6016,3.6113,3.6269,3.6406,3.6758,3.7129,3.7266,3.7695,3.8144,3.8144,3.8359,3.8574,3.8574,3.8574,3.8574,3.8574,3.8574,3.8574,3.8574,3.8574,3.8574,3.8574,3.8574,3.8574,3.8574,3.8574,3.8574,3.8574,3.8574,3.8574,3.8574,3.8574,3.8574,3.8574,3.8574,3.8574,3.8574,3.8574,3.8574,3.8574,3.8574,3.8437,3.8144,3.8144,3.8008,3.7734,3.7851,3.793,3.7949,3.8223,3.8359,0.0,0.0,0.0,2.4035,2.3968,2.3995,2.4836,2.5037,2.4957,2.4676,2.4609,2.4516,2.4235,2.6909,2.9749,3.1492,3.3124,3.3926,3.3476,3.3789,3.4062,3.4062,3.4434,3.4863,3.5312,3.4961,3.5234,3.6543,3.623,3.6191,3.6621,3.6641,3.625,3.541,3.4922,3.4473,3.4082,3.4473,3.4473,3.4082,3.4961,3.5391,3.541,3.582,3.6016,3.6016,3.6016,3.6016,3.6016,3.6016,3.6016,3.6016,3.6016,3.6016,3.6016,3.6016,3.6016,3.6016,3.6035,3.6035,3.6016,3.6035,3.6309,3.6582,3.6172,3.6914,3.7832,3.7441,3.793,3.8574,3.8574,3.8574,3.8574,3.8574,3.8574,3.8574,3.8574,3.8574,3.8574,3.8574,3.8574,3.8574,3.8574,3.8574,3.8574,3.8574,3.8574,3.8574,3.8574,3.8574,3.8574,3.8574,3.8574,3.8574,3.8574,3.8574,3.8574,3.8574,3.8574,3.8574,3.8574,3.8574,3.8574,3.8574,3.8574,3.8574,3.8594,3.8164,3.8379,3.9199,3.9219,3.9219,2.4102,0.0,0.0,0.0,0.0,0.0,2.3808,2.3981,2.4115,2.4022,2.3834,2.3728,2.3861,2.6382,2.8677,2.9412,3.2067,3.3926,3.3476,3.3535,3.3594,3.3594,3.3984,3.4297,3.4434,3.459,3.498,3.5703,3.5644,3.5762,3.6172,3.5918,3.5488,3.4902,3.4473,3.4199,3.4082,3.3867,3.3867,3.4082,3.4629,3.5078,3.541,3.582,3.6016,3.6016,3.6016,3.6016,3.6016,3.6016,3.6016,3.6016,3.6016,3.6016,3.6016,3.6016,3.6016,3.6074,3.6387,3.6289,3.6074,3.6387,3.6348,3.6289,3.6797,3.7187,3.7578,3.8086,3.8398,3.8574,3.8574,3.8574,3.8574,3.8574,3.8574,3.8574,3.8574,3.8574,3.8574,3.8574,3.8574,3.8574,3.8574,3.8574,3.8574,3.8574,3.8574,3.8574,3.8574,3.8574,3.8574,3.8574,3.8574,3.8574,3.8574,3.8574,3.8574,3.8574,3.8574,3.8574,3.8574,3.8574,3.8574,3.8574,3.8574,3.873,3.9023,3.8906,3.8965,3.9199,3.9551,3.9707,2.4235,2.4075,2.3875,2.3581,0.0,0.0,2.3367,2.3554,2.3728,2.3607,2.3541,2.3698,2.4289,2.6341,2.8211,2.9134,3.1672,3.3516,3.3437,3.3418,3.3418,3.3418,3.3496,3.3535,3.3535,3.3769,3.416,3.4805,3.4844,3.5019,3.5449,3.5078,3.4726,3.4453,3.4023,3.3809,3.3809,3.3555,3.3555,3.3809,3.4238,3.459,3.4863,3.5488,3.5644,3.5488,3.5684,3.5762,3.5762,3.5762,3.5859,3.6016,3.6016,3.6016,3.6016,3.6016,3.6016,3.6055,3.6309,3.623,3.6055,3.6309,3.6465,3.6621,3.6934,3.7402,3.7891,3.8223,3.8437,3.8574,3.8574,3.8574,3.8574,3.8574,3.8574,3.8574,3.8574,3.8574,3.8574,3.8574,3.8574,3.8574,3.8574,3.8574,3.8574,3.8574,3.8574,3.8574,3.8574,3.8574,3.8574,3.8574,3.8574,3.8574,3.8574,3.8574,3.8574,3.8574,3.8574,3.8652,3.8828,3.8828,3.8926,3.9121,3.9121,3.9336,3.9746,3.957,3.9668,4.0039,4.0293,4.0332,2.4329,2.4249,2.4182,2.3888,2.3621,0.0,2.334,2.3527,2.3634,2.334,2.346,2.3938,2.4834,2.6312,2.7956,2.9616,3.1533,3.2949,3.3359,3.3418,3.3418,3.3418,3.3086,3.2871,3.2871,3.2832,3.3144,3.4004,3.4121,3.4277,3.4609,3.4277,3.4043,3.4004,3.3633,3.3418,3.3418,3.3418,3.3437,3.3496,3.3887,3.4101,3.416,3.4961,3.5098,3.4726,3.5137,3.5312,3.5312,3.5312,3.5586,3.6016,3.6016,3.6016,3.6016,3.6016,3.6016,3.6035,3.6074,3.6055,3.6035,3.6074,3.6601,3.7168,3.6836,3.7559,3.8437,3.8086,3.8281,3.8574,3.8574,3.8574,3.8574,3.8574,3.8574,3.8574,3.8574,3.8574,3.8574,3.8574,3.8574,3.8574,3.8574,3.8574,3.8574,3.8574,3.8574,3.8574,3.8574,3.8574,3.8574,3.8574,3.8574,3.8574,3.8574,3.8574,3.8594,3.8633,3.8652,3.8828,3.9258,3.9277,3.9473,3.9883,3.9941,4.0156,4.0527,4.0156,4.0391,4.1172,4.1172,4.0976,2.4569,2.4556,2.4476,2.4195,2.4075,0.0,2.3434,2.3367,2.3327,2.302,2.2806,2.2713,2.2916,2.5237,2.7253,2.7634,3.0578,3.2949,3.3359,3.3418,3.3418,3.3418,3.334,3.3301,3.3301,3.2988,3.3144,3.4004,3.4394,3.4473,3.4219,3.4121,3.3906,3.3555,3.3476,3.3418,3.3418,3.3418,3.3594,3.3945,3.4023,3.4258,3.459,3.4766,3.4785,3.4707,3.4805,3.4824,3.4824,3.4824,3.5312,3.6016,3.6016,3.6016,3.6016,3.6016,3.6016,3.6074,3.6426,3.6309,3.6074,3.6426,3.666,3.6836,3.709,3.7578,3.8105,3.8379,3.8516,3.8574,3.8574,3.8574,3.8574,3.8574,3.8574,3.8574,3.8574,3.8574,3.8574,3.8574,3.8574,3.8574,3.8574,3.8574,3.8574,3.8574,3.8574,3.8574,3.8574,3.8574,3.8574,3.8574,3.8574,3.8574,3.8574,3.8574,3.8711,3.9062,3.9082,3.9277,3.9746,3.9766,3.9805,3.9902,4.0234,4.0449,4.0527,4.0449,4.0664,4.1172,4.1172,4.1133,2.4636,2.4636,2.4569,2.4275,2.4102,0.0,0.0,2.3327,2.3233,2.2926,2.2859,2.293,2.3322,2.4715,2.6072,2.6964,2.9467,3.1146,3.0846,3.2301,3.3496,3.3711,3.3379,3.3105,3.3105,3.293,3.3066,3.3691,3.4141,3.4199,3.3769,3.375,3.3652,3.3437,3.3418,3.3418,3.3418,3.3418,3.3535,3.375,3.375,3.3867,3.4062,3.4277,3.4258,3.4062,3.4297,3.4394,3.4394,3.4394,3.4766,3.5391,3.5605,3.584,3.6016,3.6016,3.6016,3.6055,3.6269,3.6211,3.6055,3.6269,3.6641,3.7031,3.7226,3.7734,3.8301,3.8516,3.8574,3.8574,3.8574,3.8574,3.8574,3.8574,3.8574,3.8574,3.8574,3.8574,3.8574,3.8574,3.875,3.8828,3.8613,3.8574,3.8574,3.8574,3.8574,3.8574,3.8574,3.8574,3.8574,3.8574,3.8574,3.8652,3.8867,3.8887,3.9082,3.9512,3.9551,3.9746,4.0195,4.0215,4.0312,4.0527,4.0742,4.084,4.084,4.084,4.0957,4.1172,4.1172,4.1172,2.4636,2.4636,2.4583,2.4342,2.4115,2.3848,0.0,0.0,0.0,2.2939,2.302,2.3324,2.3882,2.4266,2.4853,2.6328,2.8089,2.914,2.8719,3.1057,3.2931,3.3418,3.3131,3.291,3.291,3.2851,3.293,3.3281,3.3633,3.3711,3.3437,3.3418,3.3418,3.3418,3.3418,3.3418,3.3418,3.3418,3.3418,3.3418,3.3418,3.3418,3.3437,3.3789,3.375,3.3437,3.3789,3.3945,3.3945,3.3945,3.4238,3.4746,3.5215,3.5605,3.5918,3.5996,3.6016,3.6016,3.6016,3.6016,3.6016,3.6016,3.6601,3.7305,3.7402,3.7949,3.8574,3.8574,3.8574,3.8574,3.8574,3.8574,3.8574,3.8574,3.8574,3.8574,3.8574,3.8574,3.8594,3.8672,3.8965,3.9062,3.8652,3.8633,3.8672,3.8594,3.8574,3.8574,3.8574,3.8574,3.8574,3.8574,3.8652,3.8828,3.918,3.9277,3.9531,3.998,4.0019,4.0195,4.0625,4.0644,4.0781,4.1035,4.1133,4.1133,4.1055,4.1133,4.1172,4.1172,4.1172,4.1172,2.4636,2.4636,2.4549,2.4596,2.4556,2.4396,2.3848,0.0,2.3554,2.3048,0.0,2.2552,2.2579,0.0,0.0,2.466,2.6391,2.8412,3.0248,3.0546,3.0729,3.113,3.2473,3.3359,3.3359,3.3008,3.2812,3.2871,3.291,3.3086,3.3398,3.3418,3.3418,3.3418,3.3418,3.3418,3.3418,3.3418,3.3418,3.3418,3.3418,3.3418,3.3418,3.3476,3.3476,3.3418,3.3476,3.3496,3.3496,3.3496,3.3965,3.4746,3.5215,3.543,3.5508,3.5879,3.6016,3.6016,3.6016,3.6016,3.6016,3.6016,3.6601,3.7363,3.7734,3.8184,3.8574,3.8574,3.8574,3.8574,3.8574,3.8574,3.8574,3.8574,3.8574,3.8574,3.8574,3.8574,3.8691,3.9062,3.916,3.9062,3.8652,3.8887,3.9004,3.8633,3.8574,3.8574,3.8574,3.8574,3.8574,3.8574,3.8906,3.9141,3.9199,3.957,4.0,4.043,4.0449,4.0644,4.1074,4.1094,4.0937,4.0605,4.0976,4.0976,4.0605,4.0976,4.1172,4.1172,4.1172,4.1172,2.6258,2.6196,2.6217,2.4898,2.4636,2.4529,2.4115,2.3888,2.3701,2.3447,0.0,0.0,0.0,0.0,0.0,0.0,2.7905,2.9084,2.8918,3.0692,3.2188,3.2668,3.2686,3.2793,3.3027,3.2891,3.2891,3.3144,3.293,3.2988,3.3398,3.3672,3.3809,3.3809,3.3809,3.3809,3.3809,3.3555,3.3418,3.3418,3.3418,3.3418,3.3418,3.3418,3.3418,3.3418,3.3418,3.3418,3.3437,3.3691,3.4004,3.4394,3.5117,3.5547,3.5781,3.5957,3.6016,3.6016,3.6016,3.6016,3.6094,3.6601,3.7012,3.7422,3.8086,3.8418,3.8574,3.8574,3.8574,3.8574,3.8574,3.8574,3.8574,3.8574,3.8574,3.8574,3.8574,3.8574,3.8691,3.9121,3.9414,3.9551,3.9375,3.9258,3.9141,3.8965,3.873,3.8574,3.8574,3.8789,3.8848,3.8594,3.9199,3.9609,3.9609,4.0,4.0449,4.0879,4.0898,4.0976,4.1172,4.0937,4.0703,4.0527,4.0703,4.0703,4.0527,4.0957,4.1172,4.1172,4.1172,4.1172,2.7803,2.7896,2.8125,2.6445,2.6066,2.6125,2.5812,2.5641,2.5455,2.537,2.5029,0.0,0.0,0.0,2.6346,2.7637,0.0,2.9445,2.8544,3.0774,3.2644,3.3014,3.2739,3.2637,3.293,3.2871,3.293,3.3223,3.2969,3.293,3.3242,3.3769,3.4082,3.4082,3.4082,3.4082,3.4082,3.3633,3.3418,3.3418,3.3418,3.3418,3.3418,3.3418,3.3418,3.3418,3.3418,3.3418,3.3457,3.3887,3.4141,3.4316,3.5098,3.5644,3.6016,3.6016,3.6016,3.6016,3.6016,3.6016,3.6113,3.6738,3.7109,3.7422,3.8027,3.8398,3.8574,3.8574,3.8574,3.8574,3.8574,3.8574,3.8574,3.8574,3.8574,3.8574,3.8574,3.8574,3.8691,3.9121,3.957,3.9941,4.0059,3.9785,3.9531,3.9414,3.9023,3.8789,3.8926,3.9101,3.9141,3.8945,3.9609,4.0059,4.0059,4.0449,4.084,4.1152,4.1172,4.1172,4.1172,4.0879,4.0644,4.0527,4.0644,4.0644,4.0527,4.0957,4.1172,4.1172,4.1172,4.1172,2.86,2.9241,3.0102,2.9671,2.9851,3.0069,2.9794,2.9695,2.9596,2.9303,2.8872,2.8625,2.8692,2.8395,2.8081,0.0,2.8213,0.0,0.0,3.0446,3.0293,3.0293,3.21,3.3379,3.3398,3.3027,3.2793,3.2812,3.2793,3.2793,3.2812,3.3613,3.4082,3.4082,3.4082,3.4082,3.4082,3.3633,3.3418,3.3418,3.3418,3.3418,3.3418,3.3418,3.3418,3.3418,3.3418,3.3418,3.3457,3.3887,3.4316,3.4726,3.5215,3.5644,3.6016,3.6016,3.6016,3.6016,3.6016,3.6016,3.6016,3.6055,3.6621,3.7305,3.7324,3.791,3.8574,3.8574,3.8574,3.8574,3.8574,3.8574,3.8574,3.8574,3.8574,3.8574,3.8574,3.8574,3.8691,3.9121,3.957,4.0019,4.043,4.0488,4.0332,3.9941,3.9473,3.9336,3.9805,3.9473,3.9375,3.9805,4.0234,4.0508,4.0508,4.0898,4.1152,4.1172,4.1172,4.1172,4.1172,4.1172,4.0957,4.0527,4.0937,4.0937,4.0527,4.0957,4.1172,4.1172,4.1172,4.1172,3.1255,3.1599,3.2085,3.051,3.0409,3.0574,3.0211,3.0128,3.0165,3.0033,2.9468,2.9462,3.0626,3.0368,0.0,0.0,0.0,0.0,0.0,3.215,3.2156,3.2708,3.3179,3.3203,3.2656,3.2461,3.2383,3.2383,3.2383,3.2617,3.3184,3.4023,3.4629,3.4941,3.4941,3.4805,3.4492,3.4062,3.3711,3.3418,3.3418,3.3418,3.3418,3.3418,3.3418,3.3418,3.3418,3.3594,3.3887,3.4316,3.4746,3.5195,3.5644,3.5898,3.6016,3.6016,3.6016,3.6016,3.6016,3.6016,3.6074,3.6348,3.6836,3.7344,3.7637,3.8125,3.8574,3.8574,3.8574,3.8574,3.8574,3.8574,3.8574,3.8574,3.8574,3.8574,3.8574,3.8789,3.9121,3.957,4.0019,4.0449,4.0879,4.0957,4.0801,4.0371,3.9941,3.9726,3.9883,4.0,4.0039,3.9902,4.0527,4.084,4.0547,4.0918,4.1172,4.1172,4.1172,4.1172,4.1172,4.0898,4.0664,4.0527,4.0664,4.0664,4.0527,4.0957,4.1172,4.1172,4.1172,4.1172,3.3105,3.3552,3.4088,3.2489,3.2386,3.2579,3.2193,3.221,3.2298,3.2298,3.1683,3.1648,3.312,3.2468,0.0,0.0,0.0,0.0,0.0,3.3184,3.3223,3.3769,3.3594,3.3262,3.2891,3.2578,3.2324,3.2187,3.2305,3.2637,3.3164,3.416,3.4922,3.5371,3.5391,3.5254,3.4941,3.4355,3.3926,3.3652,3.3496,3.3418,3.3418,3.3418,3.3418,3.3418,3.3418,3.3574,3.3867,3.4297,3.4746,3.5195,3.5625,3.5879,3.6016,3.6016,3.6016,3.6016,3.6016,3.6016,3.6074,3.6348,3.6836,3.7344,3.7617,3.8105,3.8555,3.8379,3.8457,3.8535,3.8379,3.8457,3.8574,3.8574,3.8574,3.8613,3.8769,3.9004,3.9336,3.9805,4.0234,4.0605,4.0898,4.1074,4.1074,4.0801,4.0391,4.0176,4.0332,4.0449,4.0469,4.0371,4.084,4.1055,4.0781,4.1016,4.1172,4.1172,4.1172,4.1172,4.1172,4.0898,4.0898,4.1191,4.0898,4.0898,4.1191,4.1172,4.1172,4.1172,4.1172,4.1172]}]]